<?xml version='1.0' encoding='UTF-8'?><gpx version="1.1" creator="JPX - https://github.com/jenetics/jpx" xmlns="http://www.topografix.com/GPX/1/1"><trk><trkseg><trkpt lat="40.52545271797991" lon="8.719882522257882"><ele>459.25</ele><time>2026-05-04T14:33:43.999Z</time></trkpt><trkpt lat="40.52532671574223" lon="8.719848892232031"><ele>459.5</ele><time>2026-05-04T14:33:46.999Z</time></trkpt><trkpt lat="40.5252210359962" lon="8.719815199858232"><ele>459.75</ele><time>2026-05-04T14:33:47.999Z</time></trkpt><trkpt lat="40.52506597269677" lon="8.719833900121571"><ele>460.0</ele><time>2026-05-04T14:33:48.999Z</time></trkpt><trkpt lat="40.524938176683726" lon="8.719787337962352"><ele>460.0</ele><time>2026-05-04T14:33:49.999Z</time></trkpt><trkpt lat="40.524824598531275" lon="8.719664413449602"><ele>460.0</ele><time>2026-05-04T14:33:50.999Z</time></trkpt><trkpt lat="40.52472665890887" lon="8.71962376955239"><ele>460.0</ele><time>2026-05-04T14:33:51.999Z</time></trkpt><trkpt lat="40.52463326918133" lon="8.719583576199007"><ele>460.0</ele><time>2026-05-04T14:33:52.999Z</time></trkpt><trkpt lat="40.524536739401434" lon="8.719542031419955"><ele>460.1666666666667</ele><time>2026-05-04T14:33:53.999Z</time></trkpt><trkpt lat="40.52444692165508" lon="8.719503375386237"><ele>460.33333333333337</ele><time>2026-05-04T14:33:54.999Z</time></trkpt><trkpt lat="40.52436155977761" lon="8.719465716043146"><ele>460.5</ele><time>2026-05-04T14:33:55.999Z</time></trkpt><trkpt lat="40.524289802765985" lon="8.719447754717256"><ele>460.66666666666663</ele><time>2026-05-04T14:33:56.999Z</time></trkpt><trkpt lat="40.524226882574666" lon="8.719423266665867"><ele>460.8333333333333</ele><time>2026-05-04T14:33:57.999Z</time></trkpt><trkpt lat="40.52415731297866" lon="8.719394734978897"><ele>461.0</ele><time>2026-05-04T14:33:58.999Z</time></trkpt><trkpt lat="40.52410249654249" lon="8.719311166454284"><ele>461.8</ele><time>2026-05-04T14:33:59.999Z</time></trkpt><trkpt lat="40.52404181230859" lon="8.719201903716657"><ele>462.6</ele><time>2026-05-04T14:34:00.999Z</time></trkpt><trkpt lat="40.5240026052961" lon="8.719126446474986"><ele>463.4</ele><time>2026-05-04T14:34:01.999Z</time></trkpt><trkpt lat="40.52393426757984" lon="8.719009628182834"><ele>464.2</ele><time>2026-05-04T14:34:03.999Z</time></trkpt><trkpt lat="40.52388939679161" lon="8.718888761828074"><ele>465.0</ele><time>2026-05-04T14:34:05.999Z</time></trkpt><trkpt lat="40.52375012836013" lon="8.719087448632001"><ele>465.0</ele><time>2026-05-04T14:34:09.999Z</time></trkpt><trkpt lat="40.52380271513585" lon="8.719191647456729"><ele>465.0</ele><time>2026-05-04T14:34:10.999Z</time></trkpt><trkpt lat="40.52386147722879" lon="8.719304643300188"><ele>465.0</ele><time>2026-05-04T14:34:11.999Z</time></trkpt><trkpt lat="40.52391542936327" lon="8.719447876848845"><ele>465.0</ele><time>2026-05-04T14:34:12.999Z</time></trkpt><trkpt lat="40.5239746298701" lon="8.719573222947266"><ele>465.0</ele><time>2026-05-04T14:34:13.999Z</time></trkpt><trkpt lat="40.524041028325044" lon="8.719683289917512"><ele>464.3333333333333</ele><time>2026-05-04T14:34:14.999Z</time></trkpt><trkpt lat="40.52409928194966" lon="8.719759155315385"><ele>463.66666666666663</ele><time>2026-05-04T14:34:15.999Z</time></trkpt><trkpt lat="40.524156276611464" lon="8.719803264175923"><ele>463.0</ele><time>2026-05-04T14:34:16.999Z</time></trkpt><trkpt lat="40.52426538183257" lon="8.71985742588199"><ele>462.3333333333333</ele><time>2026-05-04T14:34:18.999Z</time></trkpt><trkpt lat="40.524328349615374" lon="8.71985644386176"><ele>461.66666666666663</ele><time>2026-05-04T14:34:19.999Z</time></trkpt><trkpt lat="40.52441812007065" lon="8.719893987604259"><ele>461.0</ele><time>2026-05-04T14:34:21.999Z</time></trkpt><trkpt lat="40.524496310147896" lon="8.719927725656694"><ele>460.8333333333333</ele><time>2026-05-04T14:34:23.999Z</time></trkpt><trkpt lat="40.524565498617235" lon="8.719963408218078"><ele>460.66666666666663</ele><time>2026-05-04T14:34:25.999Z</time></trkpt><trkpt lat="40.52463349945219" lon="8.719991714863312"><ele>460.5</ele><time>2026-05-04T14:34:27.999Z</time></trkpt><trkpt lat="40.524706527271064" lon="8.720022005016867"><ele>460.33333333333337</ele><time>2026-05-04T14:34:29.999Z</time></trkpt><trkpt lat="40.524794917508466" lon="8.720063631775172"><ele>460.1666666666667</ele><time>2026-05-04T14:34:32.999Z</time></trkpt><trkpt lat="40.52485870435912" lon="8.720101968279716"><ele>460.0</ele><time>2026-05-04T14:34:34.999Z</time></trkpt><trkpt lat="40.524880846863056" lon="8.720213125259068"><ele>457.6666666666667</ele><time>2026-05-04T14:34:37.999Z</time></trkpt><trkpt lat="40.52486660377152" lon="8.72031867254477"><ele>455.33333333333337</ele><time>2026-05-04T14:34:40.999Z</time></trkpt><trkpt lat="40.5249433566163" lon="8.720347770896453"><ele>453.0</ele><time>2026-05-04T14:34:42.999Z</time></trkpt><trkpt lat="40.52505046782233" lon="8.720355790141861"><ele>450.66666666666663</ele><time>2026-05-04T14:34:44.999Z</time></trkpt><trkpt lat="40.52511650939063" lon="8.720370328112308"><ele>448.3333333333333</ele><time>2026-05-04T14:34:45.999Z</time></trkpt><trkpt lat="40.52522796398157" lon="8.720395635464133"><ele>446.0</ele><time>2026-05-04T14:34:47.999Z</time></trkpt><trkpt lat="40.52534512596495" lon="8.720411563356702"><ele>447.0</ele><time>2026-05-04T14:34:49.999Z</time></trkpt><trkpt lat="40.525442406388784" lon="8.720432580261233"><ele>448.0</ele><time>2026-05-04T14:34:51.999Z</time></trkpt><trkpt lat="40.525562202924114" lon="8.720420636592083"><ele>449.0</ele><time>2026-05-04T14:34:53.999Z</time></trkpt><trkpt lat="40.52564075104249" lon="8.720394209545653"><ele>450.0</ele><time>2026-05-04T14:34:54.999Z</time></trkpt><trkpt lat="40.52572234444994" lon="8.720408907215074"><ele>451.0</ele><time>2026-05-04T14:34:55.999Z</time></trkpt><trkpt lat="40.52580470930029" lon="8.720400590407127"><ele>451.0</ele><time>2026-05-04T14:34:56.999Z</time></trkpt><trkpt lat="40.525897805552816" lon="8.720394178045165"><ele>451.0</ele><time>2026-05-04T14:34:57.999Z</time></trkpt><trkpt lat="40.525993315209945" lon="8.72038852361624"><ele>451.0</ele><time>2026-05-04T14:34:58.998Z</time></trkpt><trkpt lat="40.52609703643722" lon="8.720383547274418"><ele>451.0</ele><time>2026-05-04T14:34:59.998Z</time></trkpt><trkpt lat="40.526192868131155" lon="8.720378891677758"><ele>451.0</ele><time>2026-05-04T14:35:00.998Z</time></trkpt><trkpt lat="40.526276539835244" lon="8.720373773509008"><ele>450.83333333333337</ele><time>2026-05-04T14:35:01.998Z</time></trkpt><trkpt lat="40.526356878068555" lon="8.72036532374893"><ele>450.6666666666667</ele><time>2026-05-04T14:35:02.998Z</time></trkpt><trkpt lat="40.52644952409062" lon="8.720357159092233"><ele>450.5</ele><time>2026-05-04T14:35:03.998Z</time></trkpt><trkpt lat="40.52653560146745" lon="8.720347690912174"><ele>450.33333333333337</ele><time>2026-05-04T14:35:04.998Z</time></trkpt><trkpt lat="40.526616176491615" lon="8.720342432946701"><ele>450.1666666666667</ele><time>2026-05-04T14:35:05.998Z</time></trkpt><trkpt lat="40.52668420856736" lon="8.720339155605073"><ele>450.0</ele><time>2026-05-04T14:35:06.998Z</time></trkpt><trkpt lat="40.526747867762424" lon="8.720333542339548"><ele>450.0</ele><time>2026-05-04T14:35:07.998Z</time></trkpt><trkpt lat="40.526859096706254" lon="8.720334207720168"><ele>450.0</ele><time>2026-05-04T14:35:09.998Z</time></trkpt><trkpt lat="40.526991330354164" lon="8.720310708031981"><ele>450.0</ele><time>2026-05-04T14:35:11.998Z</time></trkpt><trkpt lat="40.5270879302648" lon="8.720296658413286"><ele>450.0</ele><time>2026-05-04T14:35:12.998Z</time></trkpt><trkpt lat="40.5271959575643" lon="8.72029398302956"><ele>450.0</ele><time>2026-05-04T14:35:13.998Z</time></trkpt><trkpt lat="40.527309593478655" lon="8.720293700538212"><ele>450.0</ele><time>2026-05-04T14:35:14.998Z</time></trkpt><trkpt lat="40.527439450376896" lon="8.72028577874466"><ele>450.0</ele><time>2026-05-04T14:35:15.998Z</time></trkpt><trkpt lat="40.527575130656125" lon="8.72027443677144"><ele>450.0</ele><time>2026-05-04T14:35:16.998Z</time></trkpt><trkpt lat="40.52770196472455" lon="8.720270204079814"><ele>450.0</ele><time>2026-05-04T14:35:17.998Z</time></trkpt><trkpt lat="40.5278340803682" lon="8.720260614345971"><ele>450.0</ele><time>2026-05-04T14:35:18.998Z</time></trkpt><trkpt lat="40.52797642957061" lon="8.720253298243898"><ele>450.0</ele><time>2026-05-04T14:35:19.998Z</time></trkpt><trkpt lat="40.52812098355222" lon="8.720246027577721"><ele>450.0</ele><time>2026-05-04T14:35:20.998Z</time></trkpt><trkpt lat="40.52826258282937" lon="8.720237470507605"><ele>452.33333333333337</ele><time>2026-05-04T14:35:21.998Z</time></trkpt><trkpt lat="40.52841006216409" lon="8.720221818275302"><ele>454.6666666666667</ele><time>2026-05-04T14:35:22.998Z</time></trkpt><trkpt lat="40.52856540836844" lon="8.720207428318126"><ele>457.0</ele><time>2026-05-04T14:35:23.998Z</time></trkpt><trkpt lat="40.5287230416163" lon="8.720200748129288"><ele>456.33333333333337</ele><time>2026-05-04T14:35:24.998Z</time></trkpt><trkpt lat="40.52886620506531" lon="8.720197708689746"><ele>455.66666666666663</ele><time>2026-05-04T14:35:25.998Z</time></trkpt><trkpt lat="40.52902734398213" lon="8.720193721277978"><ele>455.0</ele><time>2026-05-04T14:35:26.999Z</time></trkpt><trkpt lat="40.52919397884469" lon="8.720190887940987"><ele>455.0</ele><time>2026-05-04T14:35:27.999Z</time></trkpt><trkpt lat="40.52936908609674" lon="8.720187178502137"><ele>455.0</ele><time>2026-05-04T14:35:28.999Z</time></trkpt><trkpt lat="40.52954251678401" lon="8.720186116740948"><ele>455.0</ele><time>2026-05-04T14:35:29.999Z</time></trkpt><trkpt lat="40.52967589908957" lon="8.720193945141203"><ele>453.75</ele><time>2026-05-04T14:35:30.999Z</time></trkpt><trkpt lat="40.529803070702165" lon="8.720199652478005"><ele>452.5</ele><time>2026-05-04T14:35:31.999Z</time></trkpt><trkpt lat="40.52991110521723" lon="8.720215895204676"><ele>451.25</ele><time>2026-05-04T14:35:32.999Z</time></trkpt><trkpt lat="40.53001478054057" lon="8.720130010410077"><ele>450.0</ele><time>2026-05-04T14:35:33.999Z</time></trkpt><trkpt lat="40.53010445904063" lon="8.72001574952563"><ele>450.0</ele><time>2026-05-04T14:35:34.999Z</time></trkpt><trkpt lat="40.530182042648455" lon="8.719854752626484"><ele>450.0</ele><time>2026-05-04T14:35:35.999Z</time></trkpt><trkpt lat="40.530239816273784" lon="8.719661423304341"><ele>450.0</ele><time>2026-05-04T14:35:36.999Z</time></trkpt><trkpt lat="40.53028827891946" lon="8.719437360303374"><ele>450.66666666666663</ele><time>2026-05-04T14:35:37.999Z</time></trkpt><trkpt lat="40.53034194542826" lon="8.719205483954342"><ele>451.3333333333333</ele><time>2026-05-04T14:35:38.999Z</time></trkpt><trkpt lat="40.53038682484181" lon="8.718958519095391"><ele>452.0</ele><time>2026-05-04T14:35:39.999Z</time></trkpt><trkpt lat="40.53041494579117" lon="8.718717017344927"><ele>449.40000000000003</ele><time>2026-05-04T14:35:40.999Z</time></trkpt><trkpt lat="40.530418605596125" lon="8.718536917398147"><ele>446.80000000000007</ele><time>2026-05-04T14:35:41.999Z</time></trkpt><trkpt lat="40.530441839390704" lon="8.718395176043618"><ele>444.2</ele><time>2026-05-04T14:35:42.999Z</time></trkpt><trkpt lat="40.530465521174676" lon="8.718286846584718"><ele>441.6</ele><time>2026-05-04T14:35:43.999Z</time></trkpt><trkpt lat="40.53049203420881" lon="8.71821100420673"><ele>439.0</ele><time>2026-05-04T14:35:44.999Z</time></trkpt><trkpt lat="40.53060241890031" lon="8.718146410775764"><ele>439.0</ele><time>2026-05-04T14:35:46.999Z</time></trkpt><trkpt lat="40.53066138338518" lon="8.718226644830702"><ele>439.0</ele><time>2026-05-04T14:35:47.999Z</time></trkpt><trkpt lat="40.53066394317122" lon="8.718342593525655"><ele>439.0</ele><time>2026-05-04T14:35:48.999Z</time></trkpt><trkpt lat="40.53060383938217" lon="8.71844722851538"><ele>439.0</ele><time>2026-05-04T14:35:49.999Z</time></trkpt><trkpt lat="40.53058477230258" lon="8.71856293607315"><ele>439.0</ele><time>2026-05-04T14:35:50.999Z</time></trkpt><trkpt lat="40.53056700144916" lon="8.718705042730534"><ele>439.6</ele><time>2026-05-04T14:35:51.999Z</time></trkpt><trkpt lat="40.53056320013759" lon="8.718857124152581"><ele>440.2</ele><time>2026-05-04T14:35:52.999Z</time></trkpt><trkpt lat="40.53056503888249" lon="8.71898767418533"><ele>440.80000000000007</ele><time>2026-05-04T14:35:53.999Z</time></trkpt><trkpt lat="40.53061341357365" lon="8.719075224897985"><ele>441.40000000000003</ele><time>2026-05-04T14:35:54.999Z</time></trkpt><trkpt lat="40.530652160464044" lon="8.719142501996961"><ele>442.0</ele><time>2026-05-04T14:35:55.999Z</time></trkpt><trkpt lat="40.53076738683956" lon="8.719143641537093"><ele>442.0</ele><time>2026-05-04T14:35:56.999Z</time></trkpt><trkpt lat="40.530886914375436" lon="8.718914111478195"><ele>442.0</ele><time>2026-05-04T14:35:57.999Z</time></trkpt><trkpt lat="40.530980470026485" lon="8.718716001028143"><ele>442.0</ele><time>2026-05-04T14:35:58.999Z</time></trkpt><trkpt lat="40.53111286626838" lon="8.718464238974466"><ele>440.0</ele><time>2026-05-04T14:35:59.999Z</time></trkpt><trkpt lat="40.53127123903821" lon="8.71819121520167"><ele>438.0</ele><time>2026-05-04T14:36:00.999Z</time></trkpt><trkpt lat="40.53146118348077" lon="8.717898656072823"><ele>432.5</ele><time>2026-05-04T14:36:01.999Z</time></trkpt><trkpt lat="40.53164966746517" lon="8.717601954383502"><ele>427.0</ele><time>2026-05-04T14:36:02.999Z</time></trkpt><trkpt lat="40.53181085202677" lon="8.717222201099156"><ele>426.0</ele><time>2026-05-04T14:36:03.999Z</time></trkpt><trkpt lat="40.53192786879451" lon="8.7168920522035"><ele>425.0</ele><time>2026-05-04T14:36:04.999Z</time></trkpt><trkpt lat="40.53203189290613" lon="8.716653747693048"><ele>428.0</ele><time>2026-05-04T14:36:05.999Z</time></trkpt><trkpt lat="40.53213352376492" lon="8.716455896549402"><ele>431.0</ele><time>2026-05-04T14:36:06.999Z</time></trkpt><trkpt lat="40.53227866796941" lon="8.716277034401037"><ele>434.0</ele><time>2026-05-04T14:36:07.999Z</time></trkpt><trkpt lat="40.53242936976698" lon="8.716128763887435"><ele>430.5</ele><time>2026-05-04T14:36:08.999Z</time></trkpt><trkpt lat="40.53254320945505" lon="8.715982854250424"><ele>427.0</ele><time>2026-05-04T14:36:09.999Z</time></trkpt><trkpt lat="40.53262600697069" lon="8.715834776175384"><ele>423.5</ele><time>2026-05-04T14:36:10.999Z</time></trkpt><trkpt lat="40.53265415382812" lon="8.71566361125376"><ele>420.0</ele><time>2026-05-04T14:36:11.999Z</time></trkpt><trkpt lat="40.53262466114071" lon="8.715480508130009"><ele>420.0</ele><time>2026-05-04T14:36:12.999Z</time></trkpt><trkpt lat="40.53254468278203" lon="8.715317592652905"><ele>420.0</ele><time>2026-05-04T14:36:13.999Z</time></trkpt><trkpt lat="40.53240401284069" lon="8.715158557212861"><ele>420.0</ele><time>2026-05-04T14:36:14.999Z</time></trkpt><trkpt lat="40.53224028363356" lon="8.714924940545167"><ele>422.0</ele><time>2026-05-04T14:36:15.999Z</time></trkpt><trkpt lat="40.532097687636025" lon="8.714619120260426"><ele>424.0</ele><time>2026-05-04T14:36:16.999Z</time></trkpt><trkpt lat="40.53192939809245" lon="8.71426251972285"><ele>418.0</ele><time>2026-05-04T14:36:17.999Z</time></trkpt><trkpt lat="40.5317427315871" lon="8.713912316240188"><ele>412.0</ele><time>2026-05-04T14:36:18.999Z</time></trkpt><trkpt lat="40.53156605114163" lon="8.713631282553784"><ele>415.5</ele><time>2026-05-04T14:36:19.999Z</time></trkpt><trkpt lat="40.53142282641238" lon="8.71338896677359"><ele>419.0</ele><time>2026-05-04T14:36:20.999Z</time></trkpt><trkpt lat="40.53133434594004" lon="8.713128345995138"><ele>419.0</ele><time>2026-05-04T14:36:21.999Z</time></trkpt><trkpt lat="40.531280189574424" lon="8.71283536230991"><ele>419.0</ele><time>2026-05-04T14:36:22.999Z</time></trkpt><trkpt lat="40.53128039810738" lon="8.712535650203497"><ele>420.5</ele><time>2026-05-04T14:36:23.999Z</time></trkpt><trkpt lat="40.53130131705113" lon="8.712227555158407"><ele>422.0</ele><time>2026-05-04T14:36:24.999Z</time></trkpt><trkpt lat="40.531311408762924" lon="8.711860795266547"><ele>422.0</ele><time>2026-05-04T14:36:25.999Z</time></trkpt><trkpt lat="40.53134442875664" lon="8.711452866176158"><ele>422.0</ele><time>2026-05-04T14:36:26.999Z</time></trkpt><trkpt lat="40.53136601075128" lon="8.711068784204862"><ele>418.0</ele><time>2026-05-04T14:36:27.999Z</time></trkpt><trkpt lat="40.531348560540664" lon="8.710755802213185"><ele>414.0</ele><time>2026-05-04T14:36:28.999Z</time></trkpt><trkpt lat="40.53127906557625" lon="8.710472692081565"><ele>407.5</ele><time>2026-05-04T14:36:29.999Z</time></trkpt><trkpt lat="40.531150103525334" lon="8.710200003861145"><ele>401.0</ele><time>2026-05-04T14:36:30.999Z</time></trkpt><trkpt lat="40.53097748820535" lon="8.709894904635313"><ele>401.0</ele><time>2026-05-04T14:36:31.999Z</time></trkpt><trkpt lat="40.53081837693296" lon="8.709508170453201"><ele>401.0</ele><time>2026-05-04T14:36:32.999Z</time></trkpt><trkpt lat="40.53069009882863" lon="8.709154784783893"><ele>405.5</ele><time>2026-05-04T14:36:33.999Z</time></trkpt><trkpt lat="40.53054600542736" lon="8.708885141857936"><ele>410.0</ele><time>2026-05-04T14:36:34.999Z</time></trkpt><trkpt lat="40.53041486432043" lon="8.708681798863868"><ele>406.0</ele><time>2026-05-04T14:36:35.999Z</time></trkpt><trkpt lat="40.530328585017465" lon="8.70847940215298"><ele>402.0</ele><time>2026-05-04T14:36:36.999Z</time></trkpt><trkpt lat="40.53030021204482" lon="8.708256632334475"><ele>398.0</ele><time>2026-05-04T14:36:37.999Z</time></trkpt><trkpt lat="40.53030848418693" lon="8.707965371454064"><ele>396.5</ele><time>2026-05-04T14:36:38.999Z</time></trkpt><trkpt lat="40.53032281870158" lon="8.707603036612687"><ele>395.0</ele><time>2026-05-04T14:36:39.999Z</time></trkpt><trkpt lat="40.53029415374197" lon="8.707251852194386"><ele>395.0</ele><time>2026-05-04T14:36:40.999Z</time></trkpt><trkpt lat="40.530280284715666" lon="8.706913188640051"><ele>395.0</ele><time>2026-05-04T14:36:41.999Z</time></trkpt><trkpt lat="40.530262027567034" lon="8.706651391018244"><ele>394.3333333333333</ele><time>2026-05-04T14:36:42.999Z</time></trkpt><trkpt lat="40.530244073236545" lon="8.706421656247707"><ele>393.66666666666663</ele><time>2026-05-04T14:36:43.999Z</time></trkpt><trkpt lat="40.53021836674122" lon="8.706208927429888"><ele>393.0</ele><time>2026-05-04T14:36:44.999Z</time></trkpt><trkpt lat="40.530179404469806" lon="8.706001753892995"><ele>392.0</ele><time>2026-05-04T14:36:45.999Z</time></trkpt><trkpt lat="40.5301327022772" lon="8.705801141384827"><ele>391.0</ele><time>2026-05-04T14:36:46.999Z</time></trkpt><trkpt lat="40.530084735858665" lon="8.705601660623284"><ele>390.0</ele><time>2026-05-04T14:36:47.999Z</time></trkpt><trkpt lat="40.53006032872827" lon="8.705418516632045"><ele>390.0</ele><time>2026-05-04T14:36:48.999Z</time></trkpt><trkpt lat="40.530021825718045" lon="8.70524620664245"><ele>390.0</ele><time>2026-05-04T14:36:49.999Z</time></trkpt><trkpt lat="40.52997368080413" lon="8.705101872542121"><ele>390.0</ele><time>2026-05-04T14:36:50.999Z</time></trkpt><trkpt lat="40.529927293147004" lon="8.704939211833992"><ele>390.0</ele><time>2026-05-04T14:36:51.999Z</time></trkpt><trkpt lat="40.52985063344005" lon="8.70478214791342"><ele>389.25</ele><time>2026-05-04T14:36:52.999Z</time></trkpt><trkpt lat="40.52975237890498" lon="8.704627532904365"><ele>388.5</ele><time>2026-05-04T14:36:53.999Z</time></trkpt><trkpt lat="40.52965500573559" lon="8.704492109930523"><ele>387.75</ele><time>2026-05-04T14:36:54.999Z</time></trkpt><trkpt lat="40.52958061433457" lon="8.704317992645281"><ele>387.0</ele><time>2026-05-04T14:36:55.999Z</time></trkpt><trkpt lat="40.52952545697146" lon="8.704123143842114"><ele>385.0</ele><time>2026-05-04T14:36:56.999Z</time></trkpt><trkpt lat="40.529491767086114" lon="8.703916688796614"><ele>383.0</ele><time>2026-05-04T14:36:57.999Z</time></trkpt><trkpt lat="40.529466050079826" lon="8.703703472561507"><ele>381.0</ele><time>2026-05-04T14:36:58.999Z</time></trkpt><trkpt lat="40.52944029072387" lon="8.703474460296468"><ele>381.0</ele><time>2026-05-04T14:36:59.999Z</time></trkpt><trkpt lat="40.52939959933629" lon="8.70325127933846"><ele>381.0</ele><time>2026-05-04T14:37:00.999Z</time></trkpt><trkpt lat="40.529390569223686" lon="8.703033799706569"><ele>381.0</ele><time>2026-05-04T14:37:01.999Z</time></trkpt><trkpt lat="40.529363887384505" lon="8.702797466370196"><ele>381.3333333333333</ele><time>2026-05-04T14:37:02.999Z</time></trkpt><trkpt lat="40.52933345736383" lon="8.70252793378837"><ele>381.66666666666663</ele><time>2026-05-04T14:37:03.999Z</time></trkpt><trkpt lat="40.529300635294184" lon="8.702241405336416"><ele>382.0</ele><time>2026-05-04T14:37:04.998Z</time></trkpt><trkpt lat="40.529264023508" lon="8.701940871654587"><ele>382.5</ele><time>2026-05-04T14:37:05.998Z</time></trkpt><trkpt lat="40.52918539818596" lon="8.701634878597448"><ele>383.0</ele><time>2026-05-04T14:37:06.998Z</time></trkpt><trkpt lat="40.52907785908524" lon="8.701341753242566"><ele>383.0</ele><time>2026-05-04T14:37:07.998Z</time></trkpt><trkpt lat="40.52893790249541" lon="8.701068439561675"><ele>383.0</ele><time>2026-05-04T14:37:08.998Z</time></trkpt><trkpt lat="40.528806273333835" lon="8.700837713606354"><ele>381.0</ele><time>2026-05-04T14:37:09.998Z</time></trkpt><trkpt lat="40.52868891199359" lon="8.700573005747035"><ele>379.0</ele><time>2026-05-04T14:37:10.998Z</time></trkpt><trkpt lat="40.52856250382931" lon="8.700320523169088"><ele>380.0</ele><time>2026-05-04T14:37:11.998Z</time></trkpt><trkpt lat="40.52843517045248" lon="8.70006619261103"><ele>381.0</ele><time>2026-05-04T14:37:12.998Z</time></trkpt><trkpt lat="40.52831052288496" lon="8.699817227480109"><ele>381.0</ele><time>2026-05-04T14:37:13.998Z</time></trkpt><trkpt lat="40.52819160695169" lon="8.699579709529603"><ele>381.0</ele><time>2026-05-04T14:37:14.998Z</time></trkpt><trkpt lat="40.52807605589144" lon="8.699348692112844"><ele>381.0</ele><time>2026-05-04T14:37:15.998Z</time></trkpt><trkpt lat="40.527963072373616" lon="8.699122742916721"><ele>379.0</ele><time>2026-05-04T14:37:16.998Z</time></trkpt><trkpt lat="40.52785262597288" lon="8.698901867560519"><ele>377.0</ele><time>2026-05-04T14:37:17.998Z</time></trkpt><trkpt lat="40.527723581595886" lon="8.698683223540467"><ele>375.0</ele><time>2026-05-04T14:37:18.998Z</time></trkpt><trkpt lat="40.52760415970537" lon="8.698443407101978"><ele>375.0</ele><time>2026-05-04T14:37:19.998Z</time></trkpt><trkpt lat="40.52749005389073" lon="8.698211050455075"><ele>375.0</ele><time>2026-05-04T14:37:20.998Z</time></trkpt><trkpt lat="40.527377642071606" lon="8.697988749339855"><ele>375.0</ele><time>2026-05-04T14:37:21.998Z</time></trkpt><trkpt lat="40.52726046189452" lon="8.69775219171818"><ele>376.0</ele><time>2026-05-04T14:37:22.998Z</time></trkpt><trkpt lat="40.52713536366376" lon="8.697496734632875"><ele>377.0</ele><time>2026-05-04T14:37:23.998Z</time></trkpt><trkpt lat="40.526991719588594" lon="8.697213851878166"><ele>375.5</ele><time>2026-05-04T14:37:24.998Z</time></trkpt><trkpt lat="40.52684283248922" lon="8.696922112697553"><ele>374.0</ele><time>2026-05-04T14:37:25.998Z</time></trkpt><trkpt lat="40.526690781819596" lon="8.6966157650816"><ele>374.0</ele><time>2026-05-04T14:37:26.998Z</time></trkpt><trkpt lat="40.5265418709906" lon="8.696320133331604"><ele>374.0</ele><time>2026-05-04T14:37:27.998Z</time></trkpt><trkpt lat="40.52642719785045" lon="8.696053983236922"><ele>374.6666666666667</ele><time>2026-05-04T14:37:28.998Z</time></trkpt><trkpt lat="40.5262901246773" lon="8.695820409015443"><ele>375.3333333333333</ele><time>2026-05-04T14:37:29.998Z</time></trkpt><trkpt lat="40.526178343069745" lon="8.695592042932928"><ele>376.0</ele><time>2026-05-04T14:37:30.998Z</time></trkpt><trkpt lat="40.52608947336909" lon="8.695356818695917"><ele>372.66666666666663</ele><time>2026-05-04T14:37:31.998Z</time></trkpt><trkpt lat="40.5260178902445" lon="8.695110501589964"><ele>369.3333333333333</ele><time>2026-05-04T14:37:32.999Z</time></trkpt><trkpt lat="40.525970647544135" lon="8.6948379919121"><ele>366.0</ele><time>2026-05-04T14:37:33.999Z</time></trkpt><trkpt lat="40.52593029669592" lon="8.69453902686569"><ele>365.5</ele><time>2026-05-04T14:37:34.999Z</time></trkpt><trkpt lat="40.52588660828963" lon="8.694191596905396"><ele>365.0</ele><time>2026-05-04T14:37:35.999Z</time></trkpt><trkpt lat="40.5258359218091" lon="8.693806057927667"><ele>364.5</ele><time>2026-05-04T14:37:36.999Z</time></trkpt><trkpt lat="40.52577736218492" lon="8.693380547103583"><ele>364.0</ele><time>2026-05-04T14:37:37.999Z</time></trkpt><trkpt lat="40.52571910990482" lon="8.692940360123917"><ele>364.0</ele><time>2026-05-04T14:37:38.999Z</time></trkpt><trkpt lat="40.52567439918194" lon="8.692601595481229"><ele>364.0</ele><time>2026-05-04T14:37:39.999Z</time></trkpt><trkpt lat="40.52562203428462" lon="8.692340205873673"><ele>364.0</ele><time>2026-05-04T14:37:40.999Z</time></trkpt><trkpt lat="40.525591570986094" lon="8.692087619620215"><ele>364.0</ele><time>2026-05-04T14:37:41.999Z</time></trkpt><trkpt lat="40.52558757942189" lon="8.691840026598598"><ele>364.0</ele><time>2026-05-04T14:37:42.999Z</time></trkpt><trkpt lat="40.52558414910254" lon="8.691594051886657"><ele>364.0</ele><time>2026-05-04T14:37:43.999Z</time></trkpt><trkpt lat="40.52570533832712" lon="8.691297535497544"><ele>364.0</ele><time>2026-05-04T14:37:44.999Z</time></trkpt><trkpt lat="40.52579059430616" lon="8.690972056067238"><ele>361.66666666666663</ele><time>2026-05-04T14:37:45.999Z</time></trkpt><trkpt lat="40.52585590711013" lon="8.690698401567447"><ele>359.3333333333333</ele><time>2026-05-04T14:37:46.999Z</time></trkpt><trkpt lat="40.525887597288666" lon="8.690465373236883"><ele>357.0</ele><time>2026-05-04T14:37:47.999Z</time></trkpt><trkpt lat="40.52587603552087" lon="8.690227505110734"><ele>356.5</ele><time>2026-05-04T14:37:48.999Z</time></trkpt><trkpt lat="40.525809917116305" lon="8.689967100036407"><ele>356.0</ele><time>2026-05-04T14:37:49.999Z</time></trkpt><trkpt lat="40.525706929362954" lon="8.68966260548905"><ele>355.5</ele><time>2026-05-04T14:37:50.999Z</time></trkpt><trkpt lat="40.52559188102478" lon="8.689302622108094"><ele>355.0</ele><time>2026-05-04T14:37:51.999Z</time></trkpt><trkpt lat="40.52546786357628" lon="8.68890265003366"><ele>349.5</ele><time>2026-05-04T14:37:52.999Z</time></trkpt><trkpt lat="40.52532925960669" lon="8.688448661488016"><ele>344.0</ele><time>2026-05-04T14:37:53.999Z</time></trkpt><trkpt lat="40.525177279815196" lon="8.68793802038447"><ele>342.5</ele><time>2026-05-04T14:37:54.999Z</time></trkpt><trkpt lat="40.52501029992492" lon="8.68738978169017"><ele>341.0</ele><time>2026-05-04T14:37:55.999Z</time></trkpt><trkpt lat="40.52486471031055" lon="8.686911024238517"><ele>339.0</ele><time>2026-05-04T14:37:56.999Z</time></trkpt><trkpt lat="40.52473958236072" lon="8.686524399556939"><ele>337.0</ele><time>2026-05-04T14:37:57.999Z</time></trkpt><trkpt lat="40.52462728370549" lon="8.68617932038615"><ele>337.0</ele><time>2026-05-04T14:37:58.999Z</time></trkpt><trkpt lat="40.52452648712176" lon="8.685854131865142"><ele>337.0</ele><time>2026-05-04T14:37:59.999Z</time></trkpt><trkpt lat="40.5244381943121" lon="8.685588607616713"><ele>337.0</ele><time>2026-05-04T14:38:00.999Z</time></trkpt><trkpt lat="40.52435553647076" lon="8.685335254386498"><ele>337.0</ele><time>2026-05-04T14:38:01.999Z</time></trkpt><trkpt lat="40.52429589316906" lon="8.685107573054133"><ele>337.0</ele><time>2026-05-04T14:38:02.999Z</time></trkpt><trkpt lat="40.52428077515017" lon="8.684859455484949"><ele>336.66666666666663</ele><time>2026-05-04T14:38:03.999Z</time></trkpt><trkpt lat="40.52429789285097" lon="8.684622436845727"><ele>336.3333333333333</ele><time>2026-05-04T14:38:04.999Z</time></trkpt><trkpt lat="40.524331242853464" lon="8.684380036002448"><ele>336.0</ele><time>2026-05-04T14:38:05.999Z</time></trkpt><trkpt lat="40.524407561062475" lon="8.684165659465647"><ele>335.5</ele><time>2026-05-04T14:38:06.999Z</time></trkpt><trkpt lat="40.52456561210673" lon="8.683946034938485"><ele>335.0</ele><time>2026-05-04T14:38:07.999Z</time></trkpt><trkpt lat="40.524756863945726" lon="8.683775112823037"><ele>335.0</ele><time>2026-05-04T14:38:08.999Z</time></trkpt><trkpt lat="40.524997469983035" lon="8.68365439458895"><ele>335.0</ele><time>2026-05-04T14:38:09.999Z</time></trkpt><trkpt lat="40.52527021490311" lon="8.68358876318177"><ele>337.0</ele><time>2026-05-04T14:38:10.999Z</time></trkpt><trkpt lat="40.525589499488056" lon="8.683530587295618"><ele>339.0</ele><time>2026-05-04T14:38:11.999Z</time></trkpt><trkpt lat="40.52595417935714" lon="8.683433328522328"><ele>337.5</ele><time>2026-05-04T14:38:12.999Z</time></trkpt><trkpt lat="40.52628293208493" lon="8.683328954693232"><ele>336.0</ele><time>2026-05-04T14:38:13.999Z</time></trkpt><trkpt lat="40.526512034166885" lon="8.683258159263318"><ele>336.0</ele><time>2026-05-04T14:38:14.999Z</time></trkpt><trkpt lat="40.526704674158" lon="8.683188497471198"><ele>336.0</ele><time>2026-05-04T14:38:15.999Z</time></trkpt><trkpt lat="40.52689227958898" lon="8.68307004249093"><ele>336.0</ele><time>2026-05-04T14:38:16.999Z</time></trkpt><trkpt lat="40.5270737133877" lon="8.6828748368645"><ele>335.5</ele><time>2026-05-04T14:38:17.999Z</time></trkpt><trkpt lat="40.527242092507564" lon="8.682611559218973"><ele>335.0</ele><time>2026-05-04T14:38:18.999Z</time></trkpt><trkpt lat="40.527397499109135" lon="8.682283966250418"><ele>335.0</ele><time>2026-05-04T14:38:19.999Z</time></trkpt><trkpt lat="40.52752390922822" lon="8.682007112057985"><ele>335.0</ele><time>2026-05-04T14:38:20.999Z</time></trkpt><trkpt lat="40.52767136528848" lon="8.681812640399533"><ele>335.5</ele><time>2026-05-04T14:38:21.999Z</time></trkpt><trkpt lat="40.52787448172126" lon="8.681672292898341"><ele>336.0</ele><time>2026-05-04T14:38:22.999Z</time></trkpt><trkpt lat="40.528090612382684" lon="8.681587456175476"><ele>336.3333333333333</ele><time>2026-05-04T14:38:23.999Z</time></trkpt><trkpt lat="40.52827786106008" lon="8.681542085291204"><ele>336.66666666666663</ele><time>2026-05-04T14:38:24.999Z</time></trkpt><trkpt lat="40.528445199738734" lon="8.681498946461437"><ele>337.0</ele><time>2026-05-04T14:38:25.999Z</time></trkpt><trkpt lat="40.528625540433254" lon="8.681439730338825"><ele>336.66666666666663</ele><time>2026-05-04T14:38:26.999Z</time></trkpt><trkpt lat="40.52881052327774" lon="8.68137898294137"><ele>336.3333333333333</ele><time>2026-05-04T14:38:27.999Z</time></trkpt><trkpt lat="40.52899033471343" lon="8.681320792775985"><ele>336.0</ele><time>2026-05-04T14:38:29Z</time></trkpt><trkpt lat="40.52915609431035" lon="8.681259038795407"><ele>336.0</ele><time>2026-05-04T14:38:30Z</time></trkpt><trkpt lat="40.5293009691386" lon="8.681205656263604"><ele>336.0</ele><time>2026-05-04T14:38:31Z</time></trkpt><trkpt lat="40.529428553312826" lon="8.681141552460165"><ele>336.0</ele><time>2026-05-04T14:38:32Z</time></trkpt><trkpt lat="40.52956051592412" lon="8.681046972880859"><ele>336.0</ele><time>2026-05-04T14:38:33Z</time></trkpt><trkpt lat="40.52969295627707" lon="8.680913259788163"><ele>335.6666666666667</ele><time>2026-05-04T14:38:34Z</time></trkpt><trkpt lat="40.52981329715976" lon="8.680753206521292"><ele>335.33333333333337</ele><time>2026-05-04T14:38:35Z</time></trkpt><trkpt lat="40.52991854126972" lon="8.680597624073423"><ele>335.0</ele><time>2026-05-04T14:38:36Z</time></trkpt><trkpt lat="40.5300162178884" lon="8.68047682688465"><ele>335.0</ele><time>2026-05-04T14:38:37Z</time></trkpt><trkpt lat="40.53012421475973" lon="8.68035151939906"><ele>335.0</ele><time>2026-05-04T14:38:38Z</time></trkpt><trkpt lat="40.53024634835202" lon="8.68022688952506"><ele>335.0</ele><time>2026-05-04T14:38:39Z</time></trkpt><trkpt lat="40.53038672219359" lon="8.68014323128645"><ele>337.0</ele><time>2026-05-04T14:38:40Z</time></trkpt><trkpt lat="40.530547503897445" lon="8.680078861938648"><ele>339.0</ele><time>2026-05-04T14:38:41Z</time></trkpt><trkpt lat="40.53072261204437" lon="8.680031036741065"><ele>341.0</ele><time>2026-05-04T14:38:42Z</time></trkpt><trkpt lat="40.53089493203178" lon="8.680020355253697"><ele>341.0</ele><time>2026-05-04T14:38:43Z</time></trkpt><trkpt lat="40.53106501628242" lon="8.680019510921534"><ele>341.0</ele><time>2026-05-04T14:38:44Z</time></trkpt><trkpt lat="40.53123277832219" lon="8.680021977887655"><ele>341.0</ele><time>2026-05-04T14:38:45Z</time></trkpt><trkpt lat="40.53139867982339" lon="8.680010520622757"><ele>340.0</ele><time>2026-05-04T14:38:46Z</time></trkpt><trkpt lat="40.53156016289576" lon="8.679964844755284"><ele>339.0</ele><time>2026-05-04T14:38:47Z</time></trkpt><trkpt lat="40.53171702635236" lon="8.679885171440663"><ele>338.0</ele><time>2026-05-04T14:38:48Z</time></trkpt><trkpt lat="40.53186419634906" lon="8.67976507920285"><ele>338.0</ele><time>2026-05-04T14:38:49Z</time></trkpt><trkpt lat="40.53199780297362" lon="8.679616069578833"><ele>338.0</ele><time>2026-05-04T14:38:50Z</time></trkpt><trkpt lat="40.532115175122456" lon="8.679448830154271"><ele>338.0</ele><time>2026-05-04T14:38:51Z</time></trkpt><trkpt lat="40.532243641804385" lon="8.679301443487411"><ele>336.75</ele><time>2026-05-04T14:38:52Z</time></trkpt><trkpt lat="40.53236770817783" lon="8.679164131886658"><ele>335.5</ele><time>2026-05-04T14:38:53Z</time></trkpt><trkpt lat="40.53248840157887" lon="8.67904161001711"><ele>334.25</ele><time>2026-05-04T14:38:54Z</time></trkpt><trkpt lat="40.53259328626432" lon="8.678930502528848"><ele>333.0</ele><time>2026-05-04T14:38:55Z</time></trkpt><trkpt lat="40.53270387969738" lon="8.678816771767975"><ele>333.0</ele><time>2026-05-04T14:38:56Z</time></trkpt><trkpt lat="40.532818581232156" lon="8.678697569501075"><ele>333.0</ele><time>2026-05-04T14:38:57Z</time></trkpt><trkpt lat="40.53293890658935" lon="8.678558274713707"><ele>333.0</ele><time>2026-05-04T14:38:58Z</time></trkpt><trkpt lat="40.53302622897944" lon="8.678407853183868"><ele>333.25</ele><time>2026-05-04T14:38:59Z</time></trkpt><trkpt lat="40.533075866328126" lon="8.67824353341984"><ele>333.5</ele><time>2026-05-04T14:39:00Z</time></trkpt><trkpt lat="40.5330930064952" lon="8.6780499473245"><ele>333.75</ele><time>2026-05-04T14:39:01Z</time></trkpt><trkpt lat="40.533070806741286" lon="8.677843517798266"><ele>334.0</ele><time>2026-05-04T14:39:02Z</time></trkpt><trkpt lat="40.532982830682506" lon="8.677607357245419"><ele>342.5</ele><time>2026-05-04T14:39:03Z</time></trkpt><trkpt lat="40.53285247661698" lon="8.677354229008866"><ele>351.0</ele><time>2026-05-04T14:39:04Z</time></trkpt><trkpt lat="40.532725933438876" lon="8.677100247905145"><ele>349.3333333333333</ele><time>2026-05-04T14:39:05Z</time></trkpt><trkpt lat="40.5326828450819" lon="8.67683151845509"><ele>347.66666666666663</ele><time>2026-05-04T14:39:06Z</time></trkpt><trkpt lat="40.53267965904172" lon="8.676568185854935"><ele>346.0</ele><time>2026-05-04T14:39:07Z</time></trkpt><trkpt lat="40.53268316300506" lon="8.676294832250225"><ele>344.66666666666663</ele><time>2026-05-04T14:39:08Z</time></trkpt><trkpt lat="40.532678776955834" lon="8.676033254528678"><ele>343.3333333333333</ele><time>2026-05-04T14:39:09Z</time></trkpt><trkpt lat="40.532685147794716" lon="8.675787503139874"><ele>342.0</ele><time>2026-05-04T14:39:10Z</time></trkpt><trkpt lat="40.53268659365954" lon="8.675555687358532"><ele>342.0</ele><time>2026-05-04T14:39:10.999Z</time></trkpt><trkpt lat="40.5326900361075" lon="8.675326722475129"><ele>342.0</ele><time>2026-05-04T14:39:11.999Z</time></trkpt><trkpt lat="40.53269788233712" lon="8.67510975072842"><ele>342.0</ele><time>2026-05-04T14:39:12.999Z</time></trkpt><trkpt lat="40.53271826872779" lon="8.674881842892322"><ele>341.0</ele><time>2026-05-04T14:39:13.999Z</time></trkpt><trkpt lat="40.53277844537903" lon="8.67466749464311"><ele>340.0</ele><time>2026-05-04T14:39:14.999Z</time></trkpt><trkpt lat="40.53285463847992" lon="8.67446234459288"><ele>339.0</ele><time>2026-05-04T14:39:15.999Z</time></trkpt><trkpt lat="40.53295325965837" lon="8.674260394188327"><ele>338.6666666666667</ele><time>2026-05-04T14:39:16.999Z</time></trkpt><trkpt lat="40.533092059716616" lon="8.674067121330074"><ele>338.33333333333337</ele><time>2026-05-04T14:39:17.999Z</time></trkpt><trkpt lat="40.533263571211315" lon="8.673886912790296"><ele>338.0</ele><time>2026-05-04T14:39:18.999Z</time></trkpt><trkpt lat="40.53342895431001" lon="8.673698322860922"><ele>339.0</ele><time>2026-05-04T14:39:19.999Z</time></trkpt><trkpt lat="40.53360077348742" lon="8.673532724281628"><ele>340.0</ele><time>2026-05-04T14:39:20.999Z</time></trkpt><trkpt lat="40.533766773639826" lon="8.673362892224027"><ele>341.0</ele><time>2026-05-04T14:39:21.999Z</time></trkpt><trkpt lat="40.53395694372404" lon="8.673167957596473"><ele>342.33333333333337</ele><time>2026-05-04T14:39:22.999Z</time></trkpt><trkpt lat="40.5341468563354" lon="8.672972249990876"><ele>343.6666666666667</ele><time>2026-05-04T14:39:23.999Z</time></trkpt><trkpt lat="40.53430727162922" lon="8.67281176261301"><ele>345.0</ele><time>2026-05-04T14:39:24.999Z</time></trkpt><trkpt lat="40.53446505623666" lon="8.672653615230365"><ele>346.6666666666667</ele><time>2026-05-04T14:39:25.999Z</time></trkpt><trkpt lat="40.53463304802386" lon="8.672481576035413"><ele>348.33333333333337</ele><time>2026-05-04T14:39:26.999Z</time></trkpt><trkpt lat="40.534805048391256" lon="8.672304672134159"><ele>350.0</ele><time>2026-05-04T14:39:27.999Z</time></trkpt><trkpt lat="40.53497577424937" lon="8.672130950500346"><ele>350.0</ele><time>2026-05-04T14:39:28.999Z</time></trkpt><trkpt lat="40.5351340558646" lon="8.671968955620086"><ele>350.0</ele><time>2026-05-04T14:39:29.999Z</time></trkpt><trkpt lat="40.535288463259384" lon="8.67181213454557"><ele>350.0</ele><time>2026-05-04T14:39:30.999Z</time></trkpt><trkpt lat="40.535446819287706" lon="8.671653874452302"><ele>351.0</ele><time>2026-05-04T14:39:31.999Z</time></trkpt><trkpt lat="40.5356129822995" lon="8.671483340759673"><ele>352.0</ele><time>2026-05-04T14:39:32.999Z</time></trkpt><trkpt lat="40.53578148191213" lon="8.671308415378652"><ele>353.0</ele><time>2026-05-04T14:39:33.999Z</time></trkpt><trkpt lat="40.53594412824022" lon="8.671140916594753"><ele>355.33333333333337</ele><time>2026-05-04T14:39:34.999Z</time></trkpt><trkpt lat="40.536109194517664" lon="8.670972893023965"><ele>357.6666666666667</ele><time>2026-05-04T14:39:35.999Z</time></trkpt><trkpt lat="40.53626799388664" lon="8.670807657870878"><ele>360.0</ele><time>2026-05-04T14:39:36.999Z</time></trkpt><trkpt lat="40.5364243512336" lon="8.67063855987014"><ele>360.0</ele><time>2026-05-04T14:39:37.999Z</time></trkpt><trkpt lat="40.53657497485206" lon="8.670468164257832"><ele>360.0</ele><time>2026-05-04T14:39:39.001Z</time></trkpt><trkpt lat="40.53670266921613" lon="8.670300091806403"><ele>360.0</ele><time>2026-05-04T14:39:40.001Z</time></trkpt><trkpt lat="40.53681522564007" lon="8.670129625145462"><ele>359.3333333333333</ele><time>2026-05-04T14:39:41.001Z</time></trkpt><trkpt lat="40.5369239047412" lon="8.66995888651754"><ele>358.66666666666663</ele><time>2026-05-04T14:39:42.001Z</time></trkpt><trkpt lat="40.53703057974457" lon="8.669784554430091"><ele>358.0</ele><time>2026-05-04T14:39:43.001Z</time></trkpt><trkpt lat="40.537135373335495" lon="8.66958176859647"><ele>360.66666666666663</ele><time>2026-05-04T14:39:44.001Z</time></trkpt><trkpt lat="40.53724188568797" lon="8.669363280960958"><ele>363.3333333333333</ele><time>2026-05-04T14:39:45.001Z</time></trkpt><trkpt lat="40.537363458841604" lon="8.669110698782951"><ele>366.0</ele><time>2026-05-04T14:39:46.001Z</time></trkpt><trkpt lat="40.53751144841839" lon="8.668824404153028"><ele>377.0</ele><time>2026-05-04T14:39:47.001Z</time></trkpt><trkpt lat="40.53767968339515" lon="8.668585617931686"><ele>388.0</ele><time>2026-05-04T14:39:48.001Z</time></trkpt><trkpt lat="40.5378688029735" lon="8.668437898601846"><ele>378.0</ele><time>2026-05-04T14:39:49.001Z</time></trkpt><trkpt lat="40.53808246923162" lon="8.668305778393899"><ele>368.0</ele><time>2026-05-04T14:39:50.001Z</time></trkpt><trkpt lat="40.538335072261056" lon="8.66821536842017"><ele>368.0</ele><time>2026-05-04T14:39:51.001Z</time></trkpt><trkpt lat="40.538569260390425" lon="8.668129963050403"><ele>368.0</ele><time>2026-05-04T14:39:52.001Z</time></trkpt><trkpt lat="40.538780892154314" lon="8.66806965227421"><ele>366.6666666666667</ele><time>2026-05-04T14:39:53.001Z</time></trkpt><trkpt lat="40.53897300666788" lon="8.66800715111941"><ele>365.3333333333333</ele><time>2026-05-04T14:39:54.001Z</time></trkpt><trkpt lat="40.53916303400829" lon="8.667944309015967"><ele>364.0</ele><time>2026-05-04T14:39:55.001Z</time></trkpt><trkpt lat="40.53935553357371" lon="8.667884293275067"><ele>364.66666666666663</ele><time>2026-05-04T14:39:56.001Z</time></trkpt><trkpt lat="40.5395589165193" lon="8.667811743985348"><ele>365.3333333333333</ele><time>2026-05-04T14:39:57.001Z</time></trkpt><trkpt lat="40.53975610726878" lon="8.667712050905958"><ele>366.0</ele><time>2026-05-04T14:39:58Z</time></trkpt><trkpt lat="40.53995988438799" lon="8.66757261004389"><ele>367.5</ele><time>2026-05-04T14:39:59Z</time></trkpt><trkpt lat="40.5401611669428" lon="8.667393898499505"><ele>369.0</ele><time>2026-05-04T14:40:00Z</time></trkpt><trkpt lat="40.54035124493468" lon="8.66718554699267"><ele>367.0</ele><time>2026-05-04T14:40:01Z</time></trkpt><trkpt lat="40.540547604973504" lon="8.66691735780129"><ele>365.0</ele><time>2026-05-04T14:40:02Z</time></trkpt><trkpt lat="40.54074626974627" lon="8.666595791381834"><ele>365.0</ele><time>2026-05-04T14:40:03Z</time></trkpt><trkpt lat="40.54098710967774" lon="8.666276465673844"><ele>365.0</ele><time>2026-05-04T14:40:04Z</time></trkpt><trkpt lat="40.5412123136408" lon="8.665954162054984"><ele>361.5</ele><time>2026-05-04T14:40:05Z</time></trkpt><trkpt lat="40.54143094456217" lon="8.665613573690472"><ele>358.0</ele><time>2026-05-04T14:40:06Z</time></trkpt><trkpt lat="40.54164516168803" lon="8.665334139832447"><ele>360.5</ele><time>2026-05-04T14:40:07Z</time></trkpt><trkpt lat="40.54184485742096" lon="8.66505911499788"><ele>363.0</ele><time>2026-05-04T14:40:08Z</time></trkpt><trkpt lat="40.5420430999433" lon="8.664772659179096"><ele>362.5</ele><time>2026-05-04T14:40:09Z</time></trkpt><trkpt lat="40.54224370190173" lon="8.664485988715661"><ele>362.0</ele><time>2026-05-04T14:40:10Z</time></trkpt><trkpt lat="40.54244753506488" lon="8.664196977121273"><ele>365.5</ele><time>2026-05-04T14:40:11Z</time></trkpt><trkpt lat="40.54264309784547" lon="8.66391745135975"><ele>369.0</ele><time>2026-05-04T14:40:12Z</time></trkpt><trkpt lat="40.542819887715865" lon="8.663665474215966"><ele>367.0</ele><time>2026-05-04T14:40:13Z</time></trkpt><trkpt lat="40.54298543773582" lon="8.663430348246779"><ele>365.0</ele><time>2026-05-04T14:40:14Z</time></trkpt><trkpt lat="40.543163982154795" lon="8.663205827238064"><ele>365.0</ele><time>2026-05-04T14:40:15Z</time></trkpt><trkpt lat="40.54336626990842" lon="8.663005749283442"><ele>365.0</ele><time>2026-05-04T14:40:16Z</time></trkpt><trkpt lat="40.54360928910988" lon="8.66282672150199"><ele>365.0</ele><time>2026-05-04T14:40:17Z</time></trkpt><trkpt lat="40.543853025744454" lon="8.662715873435198"><ele>365.0</ele><time>2026-05-04T14:40:18Z</time></trkpt><trkpt lat="40.544101817276065" lon="8.662628411297757"><ele>365.0</ele><time>2026-05-04T14:40:19Z</time></trkpt><trkpt lat="40.54435529835223" lon="8.662564441908307"><ele>365.0</ele><time>2026-05-04T14:40:20Z</time></trkpt><trkpt lat="40.54460551952418" lon="8.662497055378427"><ele>362.33333333333337</ele><time>2026-05-04T14:40:21Z</time></trkpt><trkpt lat="40.54482196712777" lon="8.662452790469276"><ele>359.6666666666667</ele><time>2026-05-04T14:40:22Z</time></trkpt><trkpt lat="40.545019661999724" lon="8.662409343422278"><ele>357.0</ele><time>2026-05-04T14:40:23Z</time></trkpt><trkpt lat="40.54519084563163" lon="8.662358401536368"><ele>357.0</ele><time>2026-05-04T14:40:24Z</time></trkpt><trkpt lat="40.545351644013095" lon="8.662280529546432"><ele>357.0</ele><time>2026-05-04T14:40:25Z</time></trkpt><trkpt lat="40.5454935961837" lon="8.662165431086663"><ele>357.0</ele><time>2026-05-04T14:40:26Z</time></trkpt><trkpt lat="40.545619447571106" lon="8.662006594909737"><ele>357.0</ele><time>2026-05-04T14:40:27Z</time></trkpt><trkpt lat="40.5457305974478" lon="8.661805589271085"><ele>357.0</ele><time>2026-05-04T14:40:28Z</time></trkpt><trkpt lat="40.545798962701696" lon="8.661591023213289"><ele>357.0</ele><time>2026-05-04T14:40:29Z</time></trkpt><trkpt lat="40.54583466740124" lon="8.661343386385036"><ele>356.0</ele><time>2026-05-04T14:40:30Z</time></trkpt><trkpt lat="40.545837134487996" lon="8.66107070911022"><ele>355.0</ele><time>2026-05-04T14:40:31Z</time></trkpt><trkpt lat="40.54580940684212" lon="8.660775575568648"><ele>354.0</ele><time>2026-05-04T14:40:32Z</time></trkpt><trkpt lat="40.54578003788693" lon="8.660495152667204"><ele>353.6666666666667</ele><time>2026-05-04T14:40:33Z</time></trkpt><trkpt lat="40.54581116854127" lon="8.660243379413588"><ele>353.33333333333337</ele><time>2026-05-04T14:40:34Z</time></trkpt><trkpt lat="40.54586219900109" lon="8.659986960469565"><ele>353.0</ele><time>2026-05-04T14:40:35Z</time></trkpt><trkpt lat="40.545925045428845" lon="8.659701124493438"><ele>355.0</ele><time>2026-05-04T14:40:36Z</time></trkpt><trkpt lat="40.546011986989036" lon="8.659414908738132"><ele>357.0</ele><time>2026-05-04T14:40:37Z</time></trkpt><trkpt lat="40.54609305168535" lon="8.659165028544685"><ele>359.0</ele><time>2026-05-04T14:40:38Z</time></trkpt><trkpt lat="40.54618243417552" lon="8.65894844307455"><ele>358.33333333333337</ele><time>2026-05-04T14:40:39Z</time></trkpt><trkpt lat="40.54629620566474" lon="8.658755929699552"><ele>357.6666666666667</ele><time>2026-05-04T14:40:40Z</time></trkpt><trkpt lat="40.54644708359522" lon="8.658579241492971"><ele>357.0</ele><time>2026-05-04T14:40:41Z</time></trkpt><trkpt lat="40.54661118142778" lon="8.658399390598532"><ele>357.0</ele><time>2026-05-04T14:40:42Z</time></trkpt><trkpt lat="40.54684383103489" lon="8.658265704747494"><ele>357.0</ele><time>2026-05-04T14:40:43Z</time></trkpt><trkpt lat="40.54704982856514" lon="8.658135026432745"><ele>354.6666666666667</ele><time>2026-05-04T14:40:44Z</time></trkpt><trkpt lat="40.547240357409876" lon="8.657988750294603"><ele>352.33333333333337</ele><time>2026-05-04T14:40:45Z</time></trkpt><trkpt lat="40.547402419697306" lon="8.657819041380902"><ele>350.0</ele><time>2026-05-04T14:40:46Z</time></trkpt><trkpt lat="40.547546998963774" lon="8.657607054563591"><ele>350.0</ele><time>2026-05-04T14:40:47Z</time></trkpt><trkpt lat="40.54767537012536" lon="8.657381330855051"><ele>350.0</ele><time>2026-05-04T14:40:48Z</time></trkpt><trkpt lat="40.547782004665706" lon="8.657163488807967"><ele>350.0</ele><time>2026-05-04T14:40:49Z</time></trkpt><trkpt lat="40.547872906260444" lon="8.656921720452038"><ele>348.33333333333337</ele><time>2026-05-04T14:40:50Z</time></trkpt><trkpt lat="40.547933658562556" lon="8.65665451512812"><ele>346.6666666666667</ele><time>2026-05-04T14:40:51Z</time></trkpt><trkpt lat="40.547981072716" lon="8.656358092800186"><ele>345.0</ele><time>2026-05-04T14:40:52Z</time></trkpt><trkpt lat="40.54800252538081" lon="8.656047255264673"><ele>340.5</ele><time>2026-05-04T14:40:53Z</time></trkpt><trkpt lat="40.54800250136188" lon="8.655723236421233"><ele>336.0</ele><time>2026-05-04T14:40:54Z</time></trkpt><trkpt lat="40.547983035699616" lon="8.655381900609605"><ele>336.0</ele><time>2026-05-04T14:40:55Z</time></trkpt><trkpt lat="40.54796418658501" lon="8.655052631986436"><ele>336.0</ele><time>2026-05-04T14:40:56Z</time></trkpt><trkpt lat="40.547948623766416" lon="8.654759959826373"><ele>336.0</ele><time>2026-05-04T14:40:57Z</time></trkpt><trkpt lat="40.54793688978719" lon="8.65450135748592"><ele>336.0</ele><time>2026-05-04T14:40:58Z</time></trkpt><trkpt lat="40.54793649378568" lon="8.65430221969522"><ele>336.0</ele><time>2026-05-04T14:40:59Z</time></trkpt><trkpt lat="40.54794410549066" lon="8.654118896077607"><ele>337.0</ele><time>2026-05-04T14:41:00Z</time></trkpt><trkpt lat="40.547981109802684" lon="8.653933915634614"><ele>338.0</ele><time>2026-05-04T14:41:01Z</time></trkpt><trkpt lat="40.548045226939735" lon="8.653756501184985"><ele>339.0</ele><time>2026-05-04T14:41:02Z</time></trkpt><trkpt lat="40.54816641670299" lon="8.65362182959541"><ele>340.0</ele><time>2026-05-04T14:41:03Z</time></trkpt><trkpt lat="40.54829257554784" lon="8.653498005785838"><ele>341.0</ele><time>2026-05-04T14:41:04Z</time></trkpt><trkpt lat="40.54843337261452" lon="8.65342248999767"><ele>342.0</ele><time>2026-05-04T14:41:05Z</time></trkpt><trkpt lat="40.54858756631433" lon="8.653386874847067"><ele>341.6666666666667</ele><time>2026-05-04T14:41:06Z</time></trkpt><trkpt lat="40.54874811449252" lon="8.653400539019337"><ele>341.33333333333337</ele><time>2026-05-04T14:41:07Z</time></trkpt><trkpt lat="40.54889589470563" lon="8.65343948833732"><ele>341.0</ele><time>2026-05-04T14:41:08Z</time></trkpt><trkpt lat="40.5490620767889" lon="8.653533015133018"><ele>341.0</ele><time>2026-05-04T14:41:09Z</time></trkpt><trkpt lat="40.54919373346483" lon="8.653696729650125"><ele>341.0</ele><time>2026-05-04T14:41:10Z</time></trkpt><trkpt lat="40.549289764189076" lon="8.653903823935362"><ele>341.0</ele><time>2026-05-04T14:41:11Z</time></trkpt><trkpt lat="40.54935951367626" lon="8.654153991278308"><ele>341.0</ele><time>2026-05-04T14:41:12Z</time></trkpt><trkpt lat="40.549393475392264" lon="8.654435448358544"><ele>341.0</ele><time>2026-05-04T14:41:13Z</time></trkpt><trkpt lat="40.549413406283996" lon="8.654764574755673"><ele>339.5</ele><time>2026-05-04T14:41:14Z</time></trkpt><trkpt lat="40.54945089293526" lon="8.655076337893057"><ele>338.0</ele><time>2026-05-04T14:41:15Z</time></trkpt><trkpt lat="40.54952965770746" lon="8.655368386272421"><ele>341.0</ele><time>2026-05-04T14:41:16Z</time></trkpt><trkpt lat="40.54965845910795" lon="8.655662072447818"><ele>344.0</ele><time>2026-05-04T14:41:17Z</time></trkpt><trkpt lat="40.54981960525468" lon="8.655977101352953"><ele>341.0</ele><time>2026-05-04T14:41:18Z</time></trkpt><trkpt lat="40.55000993027964" lon="8.656327143662187"><ele>338.0</ele><time>2026-05-04T14:41:19Z</time></trkpt><trkpt lat="40.55022307946779" lon="8.656732400225131"><ele>338.5</ele><time>2026-05-04T14:41:20Z</time></trkpt><trkpt lat="40.550430868569514" lon="8.657124655445864"><ele>339.0</ele><time>2026-05-04T14:41:20.999Z</time></trkpt><trkpt lat="40.55059647815417" lon="8.657445569209127"><ele>339.0</ele><time>2026-05-04T14:41:21.999Z</time></trkpt><trkpt lat="40.55073711804861" lon="8.657721613718476"><ele>339.0</ele><time>2026-05-04T14:41:22.999Z</time></trkpt><trkpt lat="40.55085920180213" lon="8.657971501435133"><ele>339.3333333333333</ele><time>2026-05-04T14:41:23.999Z</time></trkpt><trkpt lat="40.55097706410247" lon="8.658204201945697"><ele>339.66666666666663</ele><time>2026-05-04T14:41:24.999Z</time></trkpt><trkpt lat="40.55109133661136" lon="8.658404309038458"><ele>340.0</ele><time>2026-05-04T14:41:25.999Z</time></trkpt><trkpt lat="40.5512094566594" lon="8.658561818507826"><ele>342.0</ele><time>2026-05-04T14:41:26.999Z</time></trkpt><trkpt lat="40.55135980129556" lon="8.658683456390786"><ele>344.0</ele><time>2026-05-04T14:41:27.999Z</time></trkpt><trkpt lat="40.551531571996435" lon="8.65875077067176"><ele>346.0</ele><time>2026-05-04T14:41:28.999Z</time></trkpt><trkpt lat="40.55171932003192" lon="8.658784925658889"><ele>346.0</ele><time>2026-05-04T14:41:29.999Z</time></trkpt><trkpt lat="40.55191577185099" lon="8.658777549597291"><ele>346.0</ele><time>2026-05-04T14:41:30.999Z</time></trkpt><trkpt lat="40.55211278356273" lon="8.658714108484833"><ele>346.0</ele><time>2026-05-04T14:41:31.999Z</time></trkpt><trkpt lat="40.552286465114975" lon="8.658591973356412"><ele>351.66666666666663</ele><time>2026-05-04T14:41:32.999Z</time></trkpt><trkpt lat="40.552443468680316" lon="8.658416467687099"><ele>357.3333333333333</ele><time>2026-05-04T14:41:33.999Z</time></trkpt><trkpt lat="40.55258364860492" lon="8.658213609586284"><ele>363.0</ele><time>2026-05-04T14:41:34.999Z</time></trkpt><trkpt lat="40.5526835723711" lon="8.657990023641691"><ele>361.5</ele><time>2026-05-04T14:41:35.999Z</time></trkpt><trkpt lat="40.552759853527" lon="8.657720183505804"><ele>360.0</ele><time>2026-05-04T14:41:36.999Z</time></trkpt><trkpt lat="40.55282762091699" lon="8.657399595680205"><ele>369.5</ele><time>2026-05-04T14:41:37.999Z</time></trkpt><trkpt lat="40.55290258467217" lon="8.657027567418783"><ele>379.0</ele><time>2026-05-04T14:41:38.999Z</time></trkpt><trkpt lat="40.552966448861426" lon="8.656722684291177"><ele>379.0</ele><time>2026-05-04T14:41:39.999Z</time></trkpt><trkpt lat="40.553015185542115" lon="8.65648776560506"><ele>379.0</ele><time>2026-05-04T14:41:40.999Z</time></trkpt><trkpt lat="40.55303181530302" lon="8.656314792758591"><ele>379.0</ele><time>2026-05-04T14:41:41.999Z</time></trkpt><trkpt lat="40.55300548750241" lon="8.656147277115286"><ele>379.0</ele><time>2026-05-04T14:41:42.999Z</time></trkpt><trkpt lat="40.552934882409595" lon="8.655969601017583"><ele>374.0</ele><time>2026-05-04T14:41:44.001Z</time></trkpt><trkpt lat="40.552818481867206" lon="8.655778939446314"><ele>369.0</ele><time>2026-05-04T14:41:45.001Z</time></trkpt><trkpt lat="40.5527366050573" lon="8.655612382980156"><ele>364.0</ele><time>2026-05-04T14:41:46.001Z</time></trkpt><trkpt lat="40.552733177585665" lon="8.655444309376483"><ele>365.3333333333333</ele><time>2026-05-04T14:41:47.001Z</time></trkpt><trkpt lat="40.55279756177587" lon="8.655248350600118"><ele>366.6666666666667</ele><time>2026-05-04T14:41:48.001Z</time></trkpt><trkpt lat="40.55294915685474" lon="8.655051963323782"><ele>368.0</ele><time>2026-05-04T14:41:49.001Z</time></trkpt><trkpt lat="40.553065790054184" lon="8.654767340936798"><ele>374.5</ele><time>2026-05-04T14:41:50.001Z</time></trkpt><trkpt lat="40.553165854466364" lon="8.654425262860018"><ele>381.0</ele><time>2026-05-04T14:41:51.001Z</time></trkpt><trkpt lat="40.55331347273736" lon="8.654185641241556"><ele>381.0</ele><time>2026-05-04T14:41:52.001Z</time></trkpt><trkpt lat="40.5534758419474" lon="8.654008954604365"><ele>381.0</ele><time>2026-05-04T14:41:53.001Z</time></trkpt><trkpt lat="40.553675486904815" lon="8.653789864511248"><ele>389.5</ele><time>2026-05-04T14:41:54.001Z</time></trkpt><trkpt lat="40.55389122916153" lon="8.653562422004233"><ele>398.0</ele><time>2026-05-04T14:41:55.001Z</time></trkpt><trkpt lat="40.55405665008541" lon="8.653392240307083"><ele>398.0</ele><time>2026-05-04T14:41:56.001Z</time></trkpt><trkpt lat="40.55417619039289" lon="8.653183204345428"><ele>398.0</ele><time>2026-05-04T14:41:57.001Z</time></trkpt><trkpt lat="40.554271850186026" lon="8.652870372758253"><ele>395.5</ele><time>2026-05-04T14:41:58.001Z</time></trkpt><trkpt lat="40.5543895294439" lon="8.652538810566176"><ele>393.0</ele><time>2026-05-04T14:41:59.001Z</time></trkpt><trkpt lat="40.55451858819282" lon="8.652256705114127"><ele>399.0</ele><time>2026-05-04T14:42:00.001Z</time></trkpt><trkpt lat="40.554688437750634" lon="8.652044029451162"><ele>405.0</ele><time>2026-05-04T14:42:01.001Z</time></trkpt><trkpt lat="40.55488582434847" lon="8.651824093127983"><ele>405.0</ele><time>2026-05-04T14:42:02.001Z</time></trkpt><trkpt lat="40.55508615245933" lon="8.651615340175027"><ele>405.0</ele><time>2026-05-04T14:42:03.001Z</time></trkpt><trkpt lat="40.55531253405573" lon="8.651509294635437"><ele>414.0</ele><time>2026-05-04T14:42:04.001Z</time></trkpt><trkpt lat="40.55555533074562" lon="8.651431813288816"><ele>423.0</ele><time>2026-05-04T14:42:05Z</time></trkpt><trkpt lat="40.55579155566763" lon="8.651261856612285"><ele>425.0</ele><time>2026-05-04T14:42:06Z</time></trkpt><trkpt lat="40.556036295085796" lon="8.651043800155035"><ele>427.0</ele><time>2026-05-04T14:42:07Z</time></trkpt><trkpt lat="40.55629130800873" lon="8.650831805107693"><ele>427.0</ele><time>2026-05-04T14:42:08Z</time></trkpt><trkpt lat="40.5565419275659" lon="8.650672468358534"><ele>427.0</ele><time>2026-05-04T14:42:09Z</time></trkpt><trkpt lat="40.55677731360943" lon="8.650472864322035"><ele>422.5</ele><time>2026-05-04T14:42:10Z</time></trkpt><trkpt lat="40.55701498815638" lon="8.650208483571411"><ele>418.0</ele><time>2026-05-04T14:42:11Z</time></trkpt><trkpt lat="40.55724174041499" lon="8.649959395838312"><ele>427.5</ele><time>2026-05-04T14:42:12Z</time></trkpt><trkpt lat="40.55743257509991" lon="8.649753765806025"><ele>437.0</ele><time>2026-05-04T14:42:13Z</time></trkpt><trkpt lat="40.55760376763116" lon="8.649575000916787"><ele>440.3333333333333</ele><time>2026-05-04T14:42:14Z</time></trkpt><trkpt lat="40.55776370030245" lon="8.649395095902682"><ele>443.66666666666663</ele><time>2026-05-04T14:42:15Z</time></trkpt><trkpt lat="40.55790628754931" lon="8.64915943896895"><ele>447.0</ele><time>2026-05-04T14:42:16Z</time></trkpt><trkpt lat="40.558045620218046" lon="8.648901703360202"><ele>447.0</ele><time>2026-05-04T14:42:17Z</time></trkpt><trkpt lat="40.5582491990583" lon="8.648707759646383"><ele>447.0</ele><time>2026-05-04T14:42:18Z</time></trkpt><trkpt lat="40.55846615624175" lon="8.64848105749239"><ele>449.0</ele><time>2026-05-04T14:42:19Z</time></trkpt><trkpt lat="40.55870025468713" lon="8.64829632155815"><ele>451.0</ele><time>2026-05-04T14:42:20Z</time></trkpt><trkpt lat="40.55890105654868" lon="8.648163962805159"><ele>451.0</ele><time>2026-05-04T14:42:21Z</time></trkpt><trkpt lat="40.5591050656284" lon="8.648113129121837"><ele>451.0</ele><time>2026-05-04T14:42:22Z</time></trkpt><trkpt lat="40.559311513821285" lon="8.64805265547396"><ele>451.0</ele><time>2026-05-04T14:42:23Z</time></trkpt><trkpt lat="40.55951388532179" lon="8.648029037048092"><ele>454.33333333333337</ele><time>2026-05-04T14:42:24Z</time></trkpt><trkpt lat="40.55968039461957" lon="8.648008574621386"><ele>457.66666666666663</ele><time>2026-05-04T14:42:25Z</time></trkpt><trkpt lat="40.55982563502278" lon="8.647963574512131"><ele>461.0</ele><time>2026-05-04T14:42:26Z</time></trkpt><trkpt lat="40.55994659405096" lon="8.64788145120437"><ele>457.66666666666663</ele><time>2026-05-04T14:42:27Z</time></trkpt><trkpt lat="40.560050637599765" lon="8.647748471509646"><ele>454.33333333333337</ele><time>2026-05-04T14:42:28Z</time></trkpt><trkpt lat="40.56012073050374" lon="8.64755335654965"><ele>451.0</ele><time>2026-05-04T14:42:29Z</time></trkpt><trkpt lat="40.56014969437089" lon="8.647326250130622"><ele>451.0</ele><time>2026-05-04T14:42:30Z</time></trkpt><trkpt lat="40.56011108806414" lon="8.64706121922376"><ele>451.0</ele><time>2026-05-04T14:42:31Z</time></trkpt><trkpt lat="40.56006746112175" lon="8.646785438693454"><ele>451.0</ele><time>2026-05-04T14:42:32Z</time></trkpt><trkpt lat="40.56004391789794" lon="8.646572559108456"><ele>451.75</ele><time>2026-05-04T14:42:33Z</time></trkpt><trkpt lat="40.56006020130914" lon="8.646395898416772"><ele>452.5</ele><time>2026-05-04T14:42:34Z</time></trkpt><trkpt lat="40.56010994879715" lon="8.646233645214556"><ele>453.25</ele><time>2026-05-04T14:42:35Z</time></trkpt><trkpt lat="40.56024113965582" lon="8.646130249747412"><ele>454.0</ele><time>2026-05-04T14:42:36Z</time></trkpt><trkpt lat="40.56041364746815" lon="8.645987730099984"><ele>458.0</ele><time>2026-05-04T14:42:37Z</time></trkpt><trkpt lat="40.56059047816881" lon="8.645833530767268"><ele>462.0</ele><time>2026-05-04T14:42:38Z</time></trkpt><trkpt lat="40.560767652674954" lon="8.645789345672396"><ele>466.0</ele><time>2026-05-04T14:42:39Z</time></trkpt><trkpt lat="40.56091871680446" lon="8.645694256999366"><ele>466.0</ele><time>2026-05-04T14:42:40Z</time></trkpt><trkpt lat="40.56105246782895" lon="8.645538606288627"><ele>466.0</ele><time>2026-05-04T14:42:41Z</time></trkpt><trkpt lat="40.56114894007256" lon="8.645317770448711"><ele>466.0</ele><time>2026-05-04T14:42:42Z</time></trkpt><trkpt lat="40.56120865307398" lon="8.645011972589385"><ele>474.0</ele><time>2026-05-04T14:42:43Z</time></trkpt><trkpt lat="40.56127912309895" lon="8.644700176788263"><ele>482.0</ele><time>2026-05-04T14:42:44Z</time></trkpt><trkpt lat="40.5613522237311" lon="8.644367162484867"><ele>481.0</ele><time>2026-05-04T14:42:45Z</time></trkpt><trkpt lat="40.56118288874714" lon="8.643904822957227"><ele>480.0</ele><time>2026-05-04T14:42:46Z</time></trkpt><trkpt lat="40.56114793953152" lon="8.643557719008896"><ele>480.0</ele><time>2026-05-04T14:42:47Z</time></trkpt><trkpt lat="40.561124193180746" lon="8.643288766840767"><ele>480.0</ele><time>2026-05-04T14:42:48Z</time></trkpt><trkpt lat="40.561101778383794" lon="8.643058169251686"><ele>480.0</ele><time>2026-05-04T14:42:49Z</time></trkpt><trkpt lat="40.56109346559253" lon="8.642858582793512"><ele>480.75</ele><time>2026-05-04T14:42:50Z</time></trkpt><trkpt lat="40.56113015249886" lon="8.642703294486017"><ele>481.5</ele><time>2026-05-04T14:42:51Z</time></trkpt><trkpt lat="40.56122140540626" lon="8.642576849610451"><ele>482.25</ele><time>2026-05-04T14:42:52Z</time></trkpt><trkpt lat="40.561367642448694" lon="8.642500949894472"><ele>483.0</ele><time>2026-05-04T14:42:53Z</time></trkpt><trkpt lat="40.56154716119911" lon="8.642462623818096"><ele>489.0</ele><time>2026-05-04T14:42:54Z</time></trkpt><trkpt lat="40.56177191308841" lon="8.642445545983964"><ele>495.0</ele><time>2026-05-04T14:42:55Z</time></trkpt><trkpt lat="40.561999754489214" lon="8.64238254444036"><ele>499.0</ele><time>2026-05-04T14:42:56Z</time></trkpt><trkpt lat="40.562244596145796" lon="8.642288644865829"><ele>503.0</ele><time>2026-05-04T14:42:57Z</time></trkpt><trkpt lat="40.56242881239887" lon="8.642212767661142"><ele>507.0</ele><time>2026-05-04T14:42:58Z</time></trkpt><trkpt lat="40.562594857036466" lon="8.642141845837113"><ele>507.0</ele><time>2026-05-04T14:42:59Z</time></trkpt><trkpt lat="40.56272937685196" lon="8.642065858822754"><ele>507.0</ele><time>2026-05-04T14:43:00Z</time></trkpt><trkpt lat="40.562852464944825" lon="8.6419487980119"><ele>507.0</ele><time>2026-05-04T14:43:01Z</time></trkpt><trkpt lat="40.562934283426216" lon="8.641790811194435"><ele>507.0</ele><time>2026-05-04T14:43:02Z</time></trkpt><trkpt lat="40.56297327586702" lon="8.641608311300226"><ele>508.20000000000005</ele><time>2026-05-04T14:43:03Z</time></trkpt><trkpt lat="40.56296276764513" lon="8.641454004572052"><ele>509.40000000000003</ele><time>2026-05-04T14:43:04Z</time></trkpt><trkpt lat="40.56296082893413" lon="8.641331680259135"><ele>510.59999999999997</ele><time>2026-05-04T14:43:05Z</time></trkpt><trkpt lat="40.56300908685414" lon="8.64126726435466"><ele>511.79999999999995</ele><time>2026-05-04T14:43:06Z</time></trkpt><trkpt lat="40.563095220852055" lon="8.641258462416909"><ele>513.0</ele><time>2026-05-04T14:43:07Z</time></trkpt><trkpt lat="40.56318078803913" lon="8.64132166596695"><ele>513.0</ele><time>2026-05-04T14:43:08Z</time></trkpt><trkpt lat="40.56324382444095" lon="8.641464422843885"><ele>513.0</ele><time>2026-05-04T14:43:09Z</time></trkpt><trkpt lat="40.56330106675455" lon="8.641661868433435"><ele>513.0</ele><time>2026-05-04T14:43:10Z</time></trkpt><trkpt lat="40.563383571081694" lon="8.641839829724377"><ele>513.0</ele><time>2026-05-04T14:43:11Z</time></trkpt><trkpt lat="40.56350486217212" lon="8.641952800036263"><ele>515.0</ele><time>2026-05-04T14:43:12Z</time></trkpt><trkpt lat="40.563657735551914" lon="8.641980347060683"><ele>517.0</ele><time>2026-05-04T14:43:13Z</time></trkpt><trkpt lat="40.563854055242984" lon="8.641960746088914"><ele>519.0</ele><time>2026-05-04T14:43:14Z</time></trkpt><trkpt lat="40.564075156569935" lon="8.641942353134546"><ele>521.0</ele><time>2026-05-04T14:43:15Z</time></trkpt><trkpt lat="40.564335718500686" lon="8.64193163869869"><ele>523.0</ele><time>2026-05-04T14:43:16Z</time></trkpt><trkpt lat="40.564594062731835" lon="8.641925931942703"><ele>524.0</ele><time>2026-05-04T14:43:17Z</time></trkpt><trkpt lat="40.5648034159707" lon="8.641922447696002"><ele>525.0</ele><time>2026-05-04T14:43:18Z</time></trkpt><trkpt lat="40.56502066299198" lon="8.641916432355854"><ele>526.0</ele><time>2026-05-04T14:43:19Z</time></trkpt><trkpt lat="40.565237446563394" lon="8.641908782338666"><ele>527.5</ele><time>2026-05-04T14:43:20Z</time></trkpt><trkpt lat="40.56546352656561" lon="8.64190081272397"><ele>529.0</ele><time>2026-05-04T14:43:21Z</time></trkpt><trkpt lat="40.56569343664655" lon="8.641893168866678"><ele>529.0</ele><time>2026-05-04T14:43:22Z</time></trkpt><trkpt lat="40.56593472921645" lon="8.641885973114967"><ele>529.0</ele><time>2026-05-04T14:43:22.999Z</time></trkpt><trkpt lat="40.56616296278253" lon="8.641879295111622"><ele>530.0</ele><time>2026-05-04T14:43:23.999Z</time></trkpt><trkpt lat="40.56636500425969" lon="8.641870167735656"><ele>531.0</ele><time>2026-05-04T14:43:24.999Z</time></trkpt><trkpt lat="40.56654777806674" lon="8.641837262780495"><ele>532.0</ele><time>2026-05-04T14:43:25.999Z</time></trkpt><trkpt lat="40.56675373671557" lon="8.641759711168046"><ele>532.0</ele><time>2026-05-04T14:43:26.999Z</time></trkpt><trkpt lat="40.5669553353883" lon="8.641610374087183"><ele>532.0</ele><time>2026-05-04T14:43:27.999Z</time></trkpt><trkpt lat="40.56716614267849" lon="8.641407703168621"><ele>533.5</ele><time>2026-05-04T14:43:28.999Z</time></trkpt><trkpt lat="40.56739711570499" lon="8.641164155807923"><ele>535.0</ele><time>2026-05-04T14:43:29.999Z</time></trkpt><trkpt lat="40.567659670770034" lon="8.640889379989456"><ele>533.0</ele><time>2026-05-04T14:43:30.999Z</time></trkpt><trkpt lat="40.56791939966912" lon="8.640622343261237"><ele>531.0</ele><time>2026-05-04T14:43:31.999Z</time></trkpt><trkpt lat="40.568139270874525" lon="8.640410966849954"><ele>534.5</ele><time>2026-05-04T14:43:32.999Z</time></trkpt><trkpt lat="40.568331123048274" lon="8.640217646194113"><ele>538.0</ele><time>2026-05-04T14:43:33.999Z</time></trkpt><trkpt lat="40.56850897643348" lon="8.640045859905054"><ele>538.0</ele><time>2026-05-04T14:43:34.999Z</time></trkpt><trkpt lat="40.56868168116115" lon="8.639886571788484"><ele>538.0</ele><time>2026-05-04T14:43:35.999Z</time></trkpt><trkpt lat="40.56883889603192" lon="8.63973137209958"><ele>538.0</ele><time>2026-05-04T14:43:36.999Z</time></trkpt><trkpt lat="40.568965196927074" lon="8.639575310889992"><ele>538.0</ele><time>2026-05-04T14:43:37.999Z</time></trkpt><trkpt lat="40.56907144336295" lon="8.639379280711859"><ele>538.0</ele><time>2026-05-04T14:43:38.999Z</time></trkpt><trkpt lat="40.569158977877294" lon="8.639124428302907"><ele>538.0</ele><time>2026-05-04T14:43:39.999Z</time></trkpt><trkpt lat="40.56923108334324" lon="8.638801986705198"><ele>540.5</ele><time>2026-05-04T14:43:40.999Z</time></trkpt><trkpt lat="40.56929935444199" lon="8.63848235338164"><ele>543.0</ele><time>2026-05-04T14:43:41.999Z</time></trkpt><trkpt lat="40.56935246478924" lon="8.638231879124865"><ele>543.0</ele><time>2026-05-04T14:43:42.999Z</time></trkpt><trkpt lat="40.569373009872585" lon="8.638027368787474"><ele>543.0</ele><time>2026-05-04T14:43:43.999Z</time></trkpt><trkpt lat="40.56935606026401" lon="8.637826395970503"><ele>543.0</ele><time>2026-05-04T14:43:44.999Z</time></trkpt><trkpt lat="40.569307763559365" lon="8.637609908407397"><ele>544.25</ele><time>2026-05-04T14:43:45.999Z</time></trkpt><trkpt lat="40.56930558324814" lon="8.637427055463718"><ele>545.5</ele><time>2026-05-04T14:43:46.999Z</time></trkpt><trkpt lat="40.5693582286206" lon="8.637278696936892"><ele>546.75</ele><time>2026-05-04T14:43:47.999Z</time></trkpt><trkpt lat="40.56947218940962" lon="8.6371493029947"><ele>548.0</ele><time>2026-05-04T14:43:49.001Z</time></trkpt><trkpt lat="40.56956744425923" lon="8.636986434151485"><ele>548.6666666666666</ele><time>2026-05-04T14:43:50.001Z</time></trkpt><trkpt lat="40.56960965269146" lon="8.63681165390944"><ele>549.3333333333334</ele><time>2026-05-04T14:43:51.001Z</time></trkpt><trkpt lat="40.569585319673756" lon="8.636623048906417"><ele>550.0</ele><time>2026-05-04T14:43:52.001Z</time></trkpt><trkpt lat="40.5694936829801" lon="8.636439537884332"><ele>550.0</ele><time>2026-05-04T14:43:53.001Z</time></trkpt><trkpt lat="40.5693689024492" lon="8.636260920830775"><ele>550.0</ele><time>2026-05-04T14:43:54.001Z</time></trkpt><trkpt lat="40.569313617074705" lon="8.636080980246511"><ele>550.0</ele><time>2026-05-04T14:43:55.001Z</time></trkpt><trkpt lat="40.569286875900644" lon="8.635934898176407"><ele>550.0</ele><time>2026-05-04T14:43:56.001Z</time></trkpt><trkpt lat="40.569361746320645" lon="8.635799832696744"><ele>550.6666666666667</ele><time>2026-05-04T14:43:57.001Z</time></trkpt><trkpt lat="40.56947609384122" lon="8.635684779227333"><ele>551.3333333333334</ele><time>2026-05-04T14:43:58.001Z</time></trkpt><trkpt lat="40.56956770556332" lon="8.635524104226668"><ele>552.0</ele><time>2026-05-04T14:43:59.001Z</time></trkpt><trkpt lat="40.56960141184134" lon="8.635317504013754"><ele>546.0</ele><time>2026-05-04T14:44:00.001Z</time></trkpt><trkpt lat="40.56961704638425" lon="8.635046803699156"><ele>540.0</ele><time>2026-05-04T14:44:01.001Z</time></trkpt><trkpt lat="40.569693936768395" lon="8.634787672118756"><ele>534.0</ele><time>2026-05-04T14:44:02.001Z</time></trkpt><trkpt lat="40.56974539312072" lon="8.634538639853492"><ele>535.6666666666666</ele><time>2026-05-04T14:44:03.001Z</time></trkpt><trkpt lat="40.5697584535292" lon="8.634283200026484"><ele>537.3333333333333</ele><time>2026-05-04T14:44:04.001Z</time></trkpt><trkpt lat="40.56974062012515" lon="8.633975331095131"><ele>539.0</ele><time>2026-05-04T14:44:05Z</time></trkpt><trkpt lat="40.569822232480846" lon="8.633668614297127"><ele>542.0</ele><time>2026-05-04T14:44:06Z</time></trkpt><trkpt lat="40.56992078860948" lon="8.633359450719766"><ele>545.0</ele><time>2026-05-04T14:44:07Z</time></trkpt><trkpt lat="40.57001043190394" lon="8.633024412983264"><ele>549.5</ele><time>2026-05-04T14:44:08Z</time></trkpt><trkpt lat="40.57011097276224" lon="8.63272982854455"><ele>554.0</ele><time>2026-05-04T14:44:09Z</time></trkpt><trkpt lat="40.57019217456282" lon="8.632465756806601"><ele>554.0</ele><time>2026-05-04T14:44:10Z</time></trkpt><trkpt lat="40.57026447424258" lon="8.632262635749866"><ele>554.0</ele><time>2026-05-04T14:44:11Z</time></trkpt><trkpt lat="40.57037502343734" lon="8.632103966737066"><ele>554.0</ele><time>2026-05-04T14:44:12Z</time></trkpt><trkpt lat="40.57051692475322" lon="8.631976876649288"><ele>553.0</ele><time>2026-05-04T14:44:13Z</time></trkpt><trkpt lat="40.57070045183746" lon="8.631830466919592"><ele>552.0</ele><time>2026-05-04T14:44:14Z</time></trkpt><trkpt lat="40.57090572722405" lon="8.631666595752552"><ele>552.0</ele><time>2026-05-04T14:44:15Z</time></trkpt><trkpt lat="40.57114123301259" lon="8.631535501678623"><ele>552.0</ele><time>2026-05-04T14:44:16Z</time></trkpt><trkpt lat="40.571364728322735" lon="8.631420729289838"><ele>550.0</ele><time>2026-05-04T14:44:17Z</time></trkpt><trkpt lat="40.57158545285911" lon="8.631299945986452"><ele>548.0</ele><time>2026-05-04T14:44:18Z</time></trkpt><trkpt lat="40.57175605717188" lon="8.631168306746344"><ele>546.0</ele><time>2026-05-04T14:44:19Z</time></trkpt><trkpt lat="40.57190497294703" lon="8.63099495807615"><ele>545.5</ele><time>2026-05-04T14:44:20Z</time></trkpt><trkpt lat="40.57204097627855" lon="8.630734136094807"><ele>545.0</ele><time>2026-05-04T14:44:21Z</time></trkpt><trkpt lat="40.572150767647194" lon="8.630456516049499"><ele>545.0</ele><time>2026-05-04T14:44:22Z</time></trkpt><trkpt lat="40.57223321818527" lon="8.630179578795936"><ele>545.0</ele><time>2026-05-04T14:44:23Z</time></trkpt><trkpt lat="40.572335326204424" lon="8.629882828307668"><ele>545.0</ele><time>2026-05-04T14:44:24Z</time></trkpt><trkpt lat="40.57244291406537" lon="8.629584215886954"><ele>545.0</ele><time>2026-05-04T14:44:25Z</time></trkpt><trkpt lat="40.57255939391094" lon="8.629264837610156"><ele>544.5</ele><time>2026-05-04T14:44:26Z</time></trkpt><trkpt lat="40.572663310642916" lon="8.628956456082046"><ele>544.0</ele><time>2026-05-04T14:44:27Z</time></trkpt><trkpt lat="40.57277177522968" lon="8.628621308298513"><ele>543.0</ele><time>2026-05-04T14:44:28Z</time></trkpt><trkpt lat="40.572866829249186" lon="8.628325034930317"><ele>542.0</ele><time>2026-05-04T14:44:29Z</time></trkpt><trkpt lat="40.57296638748958" lon="8.62800347738344"><ele>542.0</ele><time>2026-05-04T14:44:30Z</time></trkpt><trkpt lat="40.57306492125746" lon="8.627678401075766"><ele>542.0</ele><time>2026-05-04T14:44:31Z</time></trkpt><trkpt lat="40.57316503217069" lon="8.62736075611025"><ele>542.0</ele><time>2026-05-04T14:44:32Z</time></trkpt><trkpt lat="40.573268153584955" lon="8.627042046615808"><ele>542.0</ele><time>2026-05-04T14:44:33Z</time></trkpt><trkpt lat="40.57336151044336" lon="8.626753527274287"><ele>542.0</ele><time>2026-05-04T14:44:34Z</time></trkpt><trkpt lat="40.57345606824799" lon="8.626455758537103"><ele>542.0</ele><time>2026-05-04T14:44:35Z</time></trkpt><trkpt lat="40.57355038899809" lon="8.626135871707936"><ele>541.5</ele><time>2026-05-04T14:44:36Z</time></trkpt><trkpt lat="40.57364689201689" lon="8.625828161111471"><ele>541.0</ele><time>2026-05-04T14:44:37Z</time></trkpt><trkpt lat="40.5737393146912" lon="8.625541187339417"><ele>540.0</ele><time>2026-05-04T14:44:38Z</time></trkpt><trkpt lat="40.57383410289524" lon="8.625232646085818"><ele>539.0</ele><time>2026-05-04T14:44:39Z</time></trkpt><trkpt lat="40.573931198518046" lon="8.624933060077614"><ele>539.0</ele><time>2026-05-04T14:44:40Z</time></trkpt><trkpt lat="40.574026847535734" lon="8.624632445885599"><ele>539.0</ele><time>2026-05-04T14:44:41Z</time></trkpt><trkpt lat="40.57412082340887" lon="8.624325311975074"><ele>538.0</ele><time>2026-05-04T14:44:42Z</time></trkpt><trkpt lat="40.574216021338586" lon="8.624018204363017"><ele>537.0</ele><time>2026-05-04T14:44:43Z</time></trkpt><trkpt lat="40.574315920964324" lon="8.623710386888447"><ele>537.0</ele><time>2026-05-04T14:44:44Z</time></trkpt><trkpt lat="40.574415792976644" lon="8.623405334532421"><ele>537.0</ele><time>2026-05-04T14:44:45Z</time></trkpt><trkpt lat="40.57451119825749" lon="8.623083650580373"><ele>536.5</ele><time>2026-05-04T14:44:46Z</time></trkpt><trkpt lat="40.57461102431325" lon="8.622757597525293"><ele>536.0</ele><time>2026-05-04T14:44:47Z</time></trkpt><trkpt lat="40.57471191207712" lon="8.622414775802236"><ele>536.0</ele><time>2026-05-04T14:44:48Z</time></trkpt><trkpt lat="40.57480509943265" lon="8.622139117527604"><ele>536.0</ele><time>2026-05-04T14:44:49Z</time></trkpt><trkpt lat="40.5748966629886" lon="8.621854161025224"><ele>538.3333333333333</ele><time>2026-05-04T14:44:50Z</time></trkpt><trkpt lat="40.57497430037008" lon="8.621582226638742"><ele>540.6666666666666</ele><time>2026-05-04T14:44:51Z</time></trkpt><trkpt lat="40.57505311309241" lon="8.621349552806906"><ele>543.0</ele><time>2026-05-04T14:44:52Z</time></trkpt><trkpt lat="40.57512878171235" lon="8.62110323243375"><ele>544.6666666666666</ele><time>2026-05-04T14:44:53Z</time></trkpt><trkpt lat="40.57520139770335" lon="8.620874700133252"><ele>546.3333333333333</ele><time>2026-05-04T14:44:54Z</time></trkpt><trkpt lat="40.57527726628654" lon="8.620637274745862"><ele>548.0</ele><time>2026-05-04T14:44:55Z</time></trkpt><trkpt lat="40.575349484058144" lon="8.620414073977756"><ele>548.3333333333333</ele><time>2026-05-04T14:44:56Z</time></trkpt><trkpt lat="40.57540353360319" lon="8.620192869059483"><ele>548.6666666666666</ele><time>2026-05-04T14:44:57Z</time></trkpt><trkpt lat="40.5754748570858" lon="8.619978323455152"><ele>549.0</ele><time>2026-05-04T14:44:58Z</time></trkpt><trkpt lat="40.57555141838519" lon="8.619751821555274"><ele>549.0</ele><time>2026-05-04T14:44:59Z</time></trkpt><trkpt lat="40.575626737164136" lon="8.619514588294892"><ele>549.0</ele><time>2026-05-04T14:45:00Z</time></trkpt><trkpt lat="40.57570171497281" lon="8.619272598664306"><ele>549.0</ele><time>2026-05-04T14:45:01Z</time></trkpt><trkpt lat="40.575773923475566" lon="8.619042028729893"><ele>550.3333333333334</ele><time>2026-05-04T14:45:02Z</time></trkpt><trkpt lat="40.57583962177078" lon="8.61883476001727"><ele>551.6666666666667</ele><time>2026-05-04T14:45:03Z</time></trkpt><trkpt lat="40.57589576721255" lon="8.618646738027975"><ele>553.0</ele><time>2026-05-04T14:45:04Z</time></trkpt><trkpt lat="40.57595075421376" lon="8.618472861697263"><ele>553.0</ele><time>2026-05-04T14:45:05Z</time></trkpt><trkpt lat="40.576010557121386" lon="8.618289713029702"><ele>553.0</ele><time>2026-05-04T14:45:06Z</time></trkpt><trkpt lat="40.57606404929745" lon="8.618118263112319"><ele>553.0</ele><time>2026-05-04T14:45:07Z</time></trkpt><trkpt lat="40.57611761214722" lon="8.61794919842735"><ele>553.0</ele><time>2026-05-04T14:45:08Z</time></trkpt><trkpt lat="40.5761696924608" lon="8.617783377235837"><ele>554.25</ele><time>2026-05-04T14:45:09Z</time></trkpt><trkpt lat="40.57622436512897" lon="8.617609194718312"><ele>555.5</ele><time>2026-05-04T14:45:10Z</time></trkpt><trkpt lat="40.576273334284146" lon="8.617441584522805"><ele>556.75</ele><time>2026-05-04T14:45:11Z</time></trkpt><trkpt lat="40.57632127142695" lon="8.617283197412679"><ele>558.0</ele><time>2026-05-04T14:45:12Z</time></trkpt><trkpt lat="40.57636781143672" lon="8.617125648496277"><ele>557.5</ele><time>2026-05-04T14:45:13Z</time></trkpt><trkpt lat="40.5764111763856" lon="8.616957815444426"><ele>557.0</ele><time>2026-05-04T14:45:14Z</time></trkpt><trkpt lat="40.57643606505733" lon="8.616817976248996"><ele>556.5</ele><time>2026-05-04T14:45:15Z</time></trkpt><trkpt lat="40.57643919480656" lon="8.616646443905307"><ele>556.0</ele><time>2026-05-04T14:45:16Z</time></trkpt><trkpt lat="40.5764221963281" lon="8.61644437633339"><ele>556.0</ele><time>2026-05-04T14:45:17Z</time></trkpt><trkpt lat="40.57640786428962" lon="8.616221298483044"><ele>556.0</ele><time>2026-05-04T14:45:18Z</time></trkpt><trkpt lat="40.57638469661971" lon="8.616031417265186"><ele>556.0</ele><time>2026-05-04T14:45:19Z</time></trkpt><trkpt lat="40.57632328681087" lon="8.615880928969254"><ele>556.0</ele><time>2026-05-04T14:45:20Z</time></trkpt><trkpt lat="40.57621209960862" lon="8.615722169116182"><ele>555.6666666666667</ele><time>2026-05-04T14:45:20.999Z</time></trkpt><trkpt lat="40.57607782042211" lon="8.615574897112161"><ele>555.3333333333334</ele><time>2026-05-04T14:45:21.999Z</time></trkpt><trkpt lat="40.575911259407285" lon="8.615411810367172"><ele>555.0</ele><time>2026-05-04T14:45:22.999Z</time></trkpt><trkpt lat="40.57573881388753" lon="8.615229526894828"><ele>551.5</ele><time>2026-05-04T14:45:23.999Z</time></trkpt><trkpt lat="40.575562501941235" lon="8.615028793753181"><ele>548.0</ele><time>2026-05-04T14:45:24.999Z</time></trkpt><trkpt lat="40.57539765453184" lon="8.614843288542676"><ele>549.0</ele><time>2026-05-04T14:45:25.999Z</time></trkpt><trkpt lat="40.575248588332414" lon="8.61467128701019"><ele>550.0</ele><time>2026-05-04T14:45:26.999Z</time></trkpt><trkpt lat="40.57509386002926" lon="8.614502464721635"><ele>551.0</ele><time>2026-05-04T14:45:27.999Z</time></trkpt><trkpt lat="40.57495412308546" lon="8.614339898241008"><ele>548.3333333333333</ele><time>2026-05-04T14:45:28.999Z</time></trkpt><trkpt lat="40.57483077831084" lon="8.614176500280172"><ele>545.6666666666666</ele><time>2026-05-04T14:45:29.999Z</time></trkpt><trkpt lat="40.57473280797212" lon="8.614001541573321"><ele>543.0</ele><time>2026-05-04T14:45:30.999Z</time></trkpt><trkpt lat="40.57465813191225" lon="8.61379169912411"><ele>542.6666666666666</ele><time>2026-05-04T14:45:31.999Z</time></trkpt><trkpt lat="40.57461282046016" lon="8.613580631964556"><ele>542.3333333333333</ele><time>2026-05-04T14:45:32.999Z</time></trkpt><trkpt lat="40.574551016167945" lon="8.613416869202021"><ele>542.0</ele><time>2026-05-04T14:45:33.999Z</time></trkpt><trkpt lat="40.57441255653481" lon="8.61328097695034"><ele>542.0</ele><time>2026-05-04T14:45:34.999Z</time></trkpt><trkpt lat="40.57422652287071" lon="8.613161479389703"><ele>542.0</ele><time>2026-05-04T14:45:35.999Z</time></trkpt><trkpt lat="40.57405294546478" lon="8.61299853548026"><ele>542.0</ele><time>2026-05-04T14:45:36.999Z</time></trkpt><trkpt lat="40.57390488437099" lon="8.612765918897603"><ele>540.6666666666666</ele><time>2026-05-04T14:45:37.999Z</time></trkpt><trkpt lat="40.57379230307516" lon="8.612518877691722"><ele>539.3333333333334</ele><time>2026-05-04T14:45:38.999Z</time></trkpt><trkpt lat="40.573706657097674" lon="8.612292130513797"><ele>538.0</ele><time>2026-05-04T14:45:39.999Z</time></trkpt><trkpt lat="40.5736474788585" lon="8.612063863812011"><ele>537.3333333333334</ele><time>2026-05-04T14:45:40.999Z</time></trkpt><trkpt lat="40.57364139560266" lon="8.611839585453916"><ele>536.6666666666666</ele><time>2026-05-04T14:45:41.999Z</time></trkpt><trkpt lat="40.57368070707939" lon="8.611610368986177"><ele>536.0</ele><time>2026-05-04T14:45:42.999Z</time></trkpt><trkpt lat="40.57375582801453" lon="8.611390962985743"><ele>536.0</ele><time>2026-05-04T14:45:43.999Z</time></trkpt><trkpt lat="40.573872454310695" lon="8.611204093861607"><ele>536.0</ele><time>2026-05-04T14:45:44.999Z</time></trkpt><trkpt lat="40.573989107523325" lon="8.611034505963445"><ele>536.0</ele><time>2026-05-04T14:45:45.999Z</time></trkpt><trkpt lat="40.57407050929576" lon="8.6108297899648"><ele>534.0</ele><time>2026-05-04T14:45:46.999Z</time></trkpt><trkpt lat="40.57409091200362" lon="8.610570224855778"><ele>532.0</ele><time>2026-05-04T14:45:47.999Z</time></trkpt><trkpt lat="40.57405350622388" lon="8.610274639919714"><ele>530.0</ele><time>2026-05-04T14:45:48.999Z</time></trkpt><trkpt lat="40.57398751313813" lon="8.609975923890488"><ele>530.5</ele><time>2026-05-04T14:45:49.999Z</time></trkpt><trkpt lat="40.573918140828525" lon="8.609609868799073"><ele>531.0</ele><time>2026-05-04T14:45:50.999Z</time></trkpt><trkpt lat="40.57385026918634" lon="8.60920536605493"><ele>531.0</ele><time>2026-05-04T14:45:51.999Z</time></trkpt><trkpt lat="40.57379068254132" lon="8.608783375752486"><ele>531.0</ele><time>2026-05-04T14:45:52.999Z</time></trkpt><trkpt lat="40.573728958266884" lon="8.608372752829126"><ele>528.5</ele><time>2026-05-04T14:45:53.999Z</time></trkpt><trkpt lat="40.573679765638495" lon="8.608022717525449"><ele>526.0</ele><time>2026-05-04T14:45:55Z</time></trkpt><trkpt lat="40.57363243023476" lon="8.607690204760512"><ele>526.0</ele><time>2026-05-04T14:45:56.001Z</time></trkpt><trkpt lat="40.57358554608103" lon="8.607382065595349"><ele>526.0</ele><time>2026-05-04T14:45:57Z</time></trkpt><trkpt lat="40.5735388568701" lon="8.607089292272335"><ele>524.0</ele><time>2026-05-04T14:45:58.001Z</time></trkpt><trkpt lat="40.573492812131924" lon="8.606807616490293"><ele>522.0</ele><time>2026-05-04T14:45:59.001Z</time></trkpt><trkpt lat="40.57341982391869" lon="8.606504253105772"><ele>522.0</ele><time>2026-05-04T14:46:00Z</time></trkpt><trkpt lat="40.57330407312758" lon="8.606199124649814"><ele>522.0</ele><time>2026-05-04T14:46:01Z</time></trkpt><trkpt lat="40.57317159454111" lon="8.605854292784425"><ele>521.0</ele><time>2026-05-04T14:46:02.001Z</time></trkpt><trkpt lat="40.573035691874516" lon="8.605508069552569"><ele>520.0</ele><time>2026-05-04T14:46:03Z</time></trkpt><trkpt lat="40.57289683641495" lon="8.605154673958289"><ele>516.5</ele><time>2026-05-04T14:46:04Z</time></trkpt><trkpt lat="40.57278241365865" lon="8.604850023698688"><ele>513.0</ele><time>2026-05-04T14:46:05Z</time></trkpt><trkpt lat="40.57266184253698" lon="8.604513705734107"><ele>515.5</ele><time>2026-05-04T14:46:06Z</time></trkpt><trkpt lat="40.57254703178549" lon="8.604177113732204"><ele>518.0</ele><time>2026-05-04T14:46:07Z</time></trkpt><trkpt lat="40.5724336445216" lon="8.603836102691215"><ele>517.5</ele><time>2026-05-04T14:46:08Z</time></trkpt><trkpt lat="40.57231990522962" lon="8.603485694896909"><ele>517.0</ele><time>2026-05-04T14:46:09Z</time></trkpt><trkpt lat="40.57221124572315" lon="8.603142355707762"><ele>517.5</ele><time>2026-05-04T14:46:10Z</time></trkpt><trkpt lat="40.57210071420061" lon="8.602794058301678"><ele>518.0</ele><time>2026-05-04T14:46:11Z</time></trkpt><trkpt lat="40.57199290367955" lon="8.602462120121233"><ele>515.5</ele><time>2026-05-04T14:46:12Z</time></trkpt><trkpt lat="40.57189771985683" lon="8.602169590593936"><ele>513.0</ele><time>2026-05-04T14:46:13Z</time></trkpt><trkpt lat="40.571805211001255" lon="8.601879596421105"><ele>511.0</ele><time>2026-05-04T14:46:14Z</time></trkpt><trkpt lat="40.571707911265975" lon="8.601588668986873"><ele>509.0</ele><time>2026-05-04T14:46:15Z</time></trkpt><trkpt lat="40.57161423436897" lon="8.601297716607553"><ele>509.0</ele><time>2026-05-04T14:46:16Z</time></trkpt><trkpt lat="40.57151718427435" lon="8.600999767201031"><ele>509.0</ele><time>2026-05-04T14:46:17Z</time></trkpt><trkpt lat="40.57141989234656" lon="8.600697293330064"><ele>509.0</ele><time>2026-05-04T14:46:18Z</time></trkpt><trkpt lat="40.571317950291565" lon="8.600380174302533"><ele>509.0</ele><time>2026-05-04T14:46:19Z</time></trkpt><trkpt lat="40.57121371830657" lon="8.600059713710698"><ele>506.5</ele><time>2026-05-04T14:46:20Z</time></trkpt><trkpt lat="40.571106217025005" lon="8.59973004941344"><ele>504.0</ele><time>2026-05-04T14:46:21Z</time></trkpt><trkpt lat="40.570996934123706" lon="8.599382563001253"><ele>503.0</ele><time>2026-05-04T14:46:22Z</time></trkpt><trkpt lat="40.570882518631386" lon="8.599032417193634"><ele>502.0</ele><time>2026-05-04T14:46:23Z</time></trkpt><trkpt lat="40.57076920762809" lon="8.59869264164059"><ele>502.0</ele><time>2026-05-04T14:46:24Z</time></trkpt><trkpt lat="40.57066107815346" lon="8.598356534107934"><ele>502.0</ele><time>2026-05-04T14:46:25Z</time></trkpt><trkpt lat="40.57055790259284" lon="8.59800616952926"><ele>502.5</ele><time>2026-05-04T14:46:26Z</time></trkpt><trkpt lat="40.57047103153344" lon="8.597663030602703"><ele>503.0</ele><time>2026-05-04T14:46:27Z</time></trkpt><trkpt lat="40.570392515495044" lon="8.597341983770407"><ele>497.0</ele><time>2026-05-04T14:46:28Z</time></trkpt><trkpt lat="40.57031378896472" lon="8.597031323421856"><ele>491.0</ele><time>2026-05-04T14:46:29Z</time></trkpt><trkpt lat="40.57023297166537" lon="8.59670667359512"><ele>491.0</ele><time>2026-05-04T14:46:30Z</time></trkpt><trkpt lat="40.57015335794399" lon="8.596389929723141"><ele>491.0</ele><time>2026-05-04T14:46:31Z</time></trkpt><trkpt lat="40.57007385825855" lon="8.596078245772143"><ele>491.5</ele><time>2026-05-04T14:46:32Z</time></trkpt><trkpt lat="40.57000075734114" lon="8.595784782162195"><ele>492.0</ele><time>2026-05-04T14:46:33Z</time></trkpt><trkpt lat="40.56993047110714" lon="8.595502761386946"><ele>491.66666666666663</ele><time>2026-05-04T14:46:34Z</time></trkpt><trkpt lat="40.56986195536543" lon="8.595241359623506"><ele>491.3333333333333</ele><time>2026-05-04T14:46:35Z</time></trkpt><trkpt lat="40.56979607355791" lon="8.59499765019108"><ele>491.0</ele><time>2026-05-04T14:46:36Z</time></trkpt><trkpt lat="40.56973354598722" lon="8.59475524005585"><ele>491.0</ele><time>2026-05-04T14:46:37Z</time></trkpt><trkpt lat="40.56967246734914" lon="8.594505919482833"><ele>491.0</ele><time>2026-05-04T14:46:38Z</time></trkpt><trkpt lat="40.5696110931815" lon="8.594250253720071"><ele>491.0</ele><time>2026-05-04T14:46:39Z</time></trkpt><trkpt lat="40.56954457819997" lon="8.593981998110984"><ele>487.0</ele><time>2026-05-04T14:46:40Z</time></trkpt><trkpt lat="40.5694690539689" lon="8.593703317508398"><ele>483.0</ele><time>2026-05-04T14:46:41Z</time></trkpt><trkpt lat="40.569406083598594" lon="8.593411961705304"><ele>483.0</ele><time>2026-05-04T14:46:42Z</time></trkpt><trkpt lat="40.56935143002231" lon="8.593097780033487"><ele>483.0</ele><time>2026-05-04T14:46:43Z</time></trkpt><trkpt lat="40.56930520122845" lon="8.592783643181585"><ele>482.5</ele><time>2026-05-04T14:46:44Z</time></trkpt><trkpt lat="40.56926338118804" lon="8.59247493019999"><ele>482.0</ele><time>2026-05-04T14:46:45Z</time></trkpt><trkpt lat="40.56921804146018" lon="8.592144320486737"><ele>482.0</ele><time>2026-05-04T14:46:46Z</time></trkpt><trkpt lat="40.56917673803576" lon="8.591835917150492"><ele>482.0</ele><time>2026-05-04T14:46:47Z</time></trkpt><trkpt lat="40.56913435653081" lon="8.591526824321218"><ele>482.0</ele><time>2026-05-04T14:46:48Z</time></trkpt><trkpt lat="40.569097252873654" lon="8.59123656925789"><ele>482.0</ele><time>2026-05-04T14:46:49Z</time></trkpt><trkpt lat="40.56905947693928" lon="8.590962826918824"><ele>482.0</ele><time>2026-05-04T14:46:50Z</time></trkpt><trkpt lat="40.56901996993532" lon="8.590685142424503"><ele>482.0</ele><time>2026-05-04T14:46:51Z</time></trkpt><trkpt lat="40.56897795332765" lon="8.590414670211091"><ele>482.0</ele><time>2026-05-04T14:46:52Z</time></trkpt><trkpt lat="40.56895644275502" lon="8.590131006407184"><ele>482.0</ele><time>2026-05-04T14:46:53Z</time></trkpt><trkpt lat="40.56891297623003" lon="8.589851325659888"><ele>481.0</ele><time>2026-05-04T14:46:54Z</time></trkpt><trkpt lat="40.568839870360236" lon="8.589578990569462"><ele>480.0</ele><time>2026-05-04T14:46:55Z</time></trkpt><trkpt lat="40.56877108830769" lon="8.589325762824574"><ele>479.0</ele><time>2026-05-04T14:46:56Z</time></trkpt><trkpt lat="40.568693626192825" lon="8.58908692355839"><ele>476.0</ele><time>2026-05-04T14:46:57Z</time></trkpt><trkpt lat="40.56862716178974" lon="8.588863203340399"><ele>473.0</ele><time>2026-05-04T14:46:58Z</time></trkpt><trkpt lat="40.5685803346071" lon="8.588651328311576"><ele>470.0</ele><time>2026-05-04T14:46:59Z</time></trkpt><trkpt lat="40.568524351689064" lon="8.588466481459195"><ele>469.5</ele><time>2026-05-04T14:47:00Z</time></trkpt><trkpt lat="40.56848218990513" lon="8.588301867239679"><ele>469.0</ele><time>2026-05-04T14:47:01Z</time></trkpt><trkpt lat="40.56846321143698" lon="8.58815053146156"><ele>468.5</ele><time>2026-05-04T14:47:02Z</time></trkpt><trkpt lat="40.56848324455826" lon="8.58800772248712"><ele>468.0</ele><time>2026-05-04T14:47:03Z</time></trkpt><trkpt lat="40.56851992159951" lon="8.587865106176647"><ele>467.5</ele><time>2026-05-04T14:47:04Z</time></trkpt><trkpt lat="40.56863237030078" lon="8.587759784127321"><ele>467.0</ele><time>2026-05-04T14:47:05Z</time></trkpt><trkpt lat="40.56879516049754" lon="8.5877292238898"><ele>466.5</ele><time>2026-05-04T14:47:06Z</time></trkpt><trkpt lat="40.56891870186405" lon="8.587668381436464"><ele>466.0</ele><time>2026-05-04T14:47:07Z</time></trkpt><trkpt lat="40.56904325288388" lon="8.58759166725809"><ele>466.0</ele><time>2026-05-04T14:47:08Z</time></trkpt><trkpt lat="40.569152703442434" lon="8.587487141204676"><ele>466.0</ele><time>2026-05-04T14:47:09Z</time></trkpt><trkpt lat="40.56926146489419" lon="8.587344904824226"><ele>466.0</ele><time>2026-05-04T14:47:10Z</time></trkpt><trkpt lat="40.569338026914586" lon="8.587160900153377"><ele>466.0</ele><time>2026-05-04T14:47:11Z</time></trkpt><trkpt lat="40.569370126753114" lon="8.586948365116585"><ele>463.33333333333337</ele><time>2026-05-04T14:47:12Z</time></trkpt><trkpt lat="40.56935880924475" lon="8.586709111458433"><ele>460.66666666666663</ele><time>2026-05-04T14:47:13Z</time></trkpt><trkpt lat="40.569351707283566" lon="8.586492890953314"><ele>458.0</ele><time>2026-05-04T14:47:14Z</time></trkpt><trkpt lat="40.56931478637703" lon="8.58631253285065"><ele>457.25</ele><time>2026-05-04T14:47:15Z</time></trkpt><trkpt lat="40.569262615905316" lon="8.586097987223598"><ele>456.5</ele><time>2026-05-04T14:47:16Z</time></trkpt><trkpt lat="40.56920077236978" lon="8.585939712804521"><ele>455.75</ele><time>2026-05-04T14:47:17Z</time></trkpt><trkpt lat="40.56917848057669" lon="8.58577598116103"><ele>455.0</ele><time>2026-05-04T14:47:18Z</time></trkpt><trkpt lat="40.569160848590904" lon="8.585614132124425"><ele>455.0</ele><time>2026-05-04T14:47:19Z</time></trkpt><trkpt lat="40.56915993470667" lon="8.585428293854786"><ele>455.0</ele><time>2026-05-04T14:47:20Z</time></trkpt><trkpt lat="40.56918842052991" lon="8.5852506472978"><ele>455.0</ele><time>2026-05-04T14:47:21Z</time></trkpt><trkpt lat="40.56924886722537" lon="8.585097691491285"><ele>455.0</ele><time>2026-05-04T14:47:21.999Z</time></trkpt><trkpt lat="40.569333416670524" lon="8.58498991652813"><ele>454.0</ele><time>2026-05-04T14:47:22.999Z</time></trkpt><trkpt lat="40.56944062764475" lon="8.584898042608508"><ele>453.0</ele><time>2026-05-04T14:47:23.999Z</time></trkpt><trkpt lat="40.56956817884537" lon="8.584864851434023"><ele>452.0</ele><time>2026-05-04T14:47:24.999Z</time></trkpt><trkpt lat="40.569712093745764" lon="8.58483385221348"><ele>451.0</ele><time>2026-05-04T14:47:25.999Z</time></trkpt><trkpt lat="40.56984374282014" lon="8.584795693689111"><ele>451.0</ele><time>2026-05-04T14:47:26.999Z</time></trkpt><trkpt lat="40.56997165638711" lon="8.58472159882053"><ele>451.0</ele><time>2026-05-04T14:47:27.999Z</time></trkpt><trkpt lat="40.570102972430334" lon="8.584603997538894"><ele>451.0</ele><time>2026-05-04T14:47:28.999Z</time></trkpt><trkpt lat="40.570234305671136" lon="8.584460285142665"><ele>448.33333333333337</ele><time>2026-05-04T14:47:29.999Z</time></trkpt><trkpt lat="40.57037938593897" lon="8.584394595378285"><ele>445.66666666666663</ele><time>2026-05-04T14:47:30.999Z</time></trkpt><trkpt lat="40.57053474286307" lon="8.584331886901145"><ele>443.0</ele><time>2026-05-04T14:47:31.999Z</time></trkpt><trkpt lat="40.57068521983207" lon="8.584237445950606"><ele>443.0</ele><time>2026-05-04T14:47:32.999Z</time></trkpt><trkpt lat="40.570835688832084" lon="8.58413113958588"><ele>443.0</ele><time>2026-05-04T14:47:33.999Z</time></trkpt><trkpt lat="40.57098912949985" lon="8.5840362953216"><ele>443.0</ele><time>2026-05-04T14:47:34.999Z</time></trkpt><trkpt lat="40.57114422699034" lon="8.583966651488948"><ele>444.0</ele><time>2026-05-04T14:47:35.999Z</time></trkpt><trkpt lat="40.571320439085284" lon="8.5839097852371"><ele>445.0</ele><time>2026-05-04T14:47:36.999Z</time></trkpt><trkpt lat="40.57151026999264" lon="8.583853775408139"><ele>446.0</ele><time>2026-05-04T14:47:37.999Z</time></trkpt><trkpt lat="40.57170153745322" lon="8.583790165614346"><ele>446.0</ele><time>2026-05-04T14:47:38.999Z</time></trkpt><trkpt lat="40.571909535768896" lon="8.583718885354186"><ele>446.0</ele><time>2026-05-04T14:47:39.999Z</time></trkpt><trkpt lat="40.57213285964944" lon="8.583640323280449"><ele>446.0</ele><time>2026-05-04T14:47:40.999Z</time></trkpt><trkpt lat="40.57235494934142" lon="8.583554603094642"><ele>439.3333333333333</ele><time>2026-05-04T14:47:41.999Z</time></trkpt><trkpt lat="40.57256059614685" lon="8.58348728163577"><ele>432.66666666666663</ele><time>2026-05-04T14:47:42.999Z</time></trkpt><trkpt lat="40.572775893204856" lon="8.5834850784025"><ele>426.0</ele><time>2026-05-04T14:47:43.999Z</time></trkpt><trkpt lat="40.57297896771069" lon="8.583453467306928"><ele>425.66666666666663</ele><time>2026-05-04T14:47:44.999Z</time></trkpt><trkpt lat="40.57318927730814" lon="8.583440813187917"><ele>425.3333333333333</ele><time>2026-05-04T14:47:45.999Z</time></trkpt><trkpt lat="40.573408285809315" lon="8.583388288482306"><ele>425.0</ele><time>2026-05-04T14:47:46.999Z</time></trkpt><trkpt lat="40.573632384951196" lon="8.583303484617625"><ele>426.0</ele><time>2026-05-04T14:47:47.999Z</time></trkpt><trkpt lat="40.57385620293066" lon="8.583207138642267"><ele>427.0</ele><time>2026-05-04T14:47:48.999Z</time></trkpt><trkpt lat="40.57408899642107" lon="8.583107314027796"><ele>427.0</ele><time>2026-05-04T14:47:49.999Z</time></trkpt><trkpt lat="40.57429832975062" lon="8.58302223193698"><ele>427.0</ele><time>2026-05-04T14:47:50.999Z</time></trkpt><trkpt lat="40.574506333039835" lon="8.5829683274287"><ele>427.0</ele><time>2026-05-04T14:47:51.999Z</time></trkpt><trkpt lat="40.57470695237923" lon="8.582942753153683"><ele>426.6666666666667</ele><time>2026-05-04T14:47:52.999Z</time></trkpt><trkpt lat="40.57490068679794" lon="8.58293302412272"><ele>426.33333333333337</ele><time>2026-05-04T14:47:53.999Z</time></trkpt><trkpt lat="40.57507348760726" lon="8.58291919967548"><ele>426.0</ele><time>2026-05-04T14:47:54.999Z</time></trkpt><trkpt lat="40.57523340474277" lon="8.582889851355223"><ele>419.33333333333337</ele><time>2026-05-04T14:47:55.999Z</time></trkpt><trkpt lat="40.575384987411034" lon="8.582807466414037"><ele>412.6666666666667</ele><time>2026-05-04T14:47:56.999Z</time></trkpt><trkpt lat="40.575511916640615" lon="8.582697330540347"><ele>406.0</ele><time>2026-05-04T14:47:57.999Z</time></trkpt><trkpt lat="40.575642863171815" lon="8.582586128690226"><ele>406.0</ele><time>2026-05-04T14:47:58.999Z</time></trkpt><trkpt lat="40.575806701168716" lon="8.582513953580655"><ele>406.0</ele><time>2026-05-04T14:48:00Z</time></trkpt><trkpt lat="40.57598747908144" lon="8.58251177410631"><ele>406.0</ele><time>2026-05-04T14:48:01Z</time></trkpt><trkpt lat="40.57619594332505" lon="8.582556537807346"><ele>404.33333333333337</ele><time>2026-05-04T14:48:02Z</time></trkpt><trkpt lat="40.576410262577035" lon="8.58259741443436"><ele>402.66666666666663</ele><time>2026-05-04T14:48:03Z</time></trkpt><trkpt lat="40.57659420591203" lon="8.582629833568845"><ele>401.0</ele><time>2026-05-04T14:48:04Z</time></trkpt><trkpt lat="40.576757012414205" lon="8.582654427066753"><ele>401.0</ele><time>2026-05-04T14:48:05Z</time></trkpt><trkpt lat="40.57690769895774" lon="8.582664079646007"><ele>401.0</ele><time>2026-05-04T14:48:06Z</time></trkpt><trkpt lat="40.577053181787505" lon="8.582665361622627"><ele>401.0</ele><time>2026-05-04T14:48:07Z</time></trkpt><trkpt lat="40.5772005449889" lon="8.582668492042332"><ele>401.0</ele><time>2026-05-04T14:48:08Z</time></trkpt><trkpt lat="40.5773323122623" lon="8.582668818704793"><ele>399.25</ele><time>2026-05-04T14:48:09Z</time></trkpt><trkpt lat="40.57745949898452" lon="8.582674741133028"><ele>397.5</ele><time>2026-05-04T14:48:10Z</time></trkpt><trkpt lat="40.577580023505256" lon="8.582682731152406"><ele>395.75</ele><time>2026-05-04T14:48:11Z</time></trkpt><trkpt lat="40.57769160182896" lon="8.582687107210557"><ele>394.0</ele><time>2026-05-04T14:48:12Z</time></trkpt><trkpt lat="40.57779342949214" lon="8.582689203826945"><ele>393.83333333333337</ele><time>2026-05-04T14:48:13Z</time></trkpt><trkpt lat="40.57789099936735" lon="8.582686771537311"><ele>393.6666666666667</ele><time>2026-05-04T14:48:14Z</time></trkpt><trkpt lat="40.57798108444858" lon="8.582678481940595"><ele>393.5</ele><time>2026-05-04T14:48:15Z</time></trkpt><trkpt lat="40.57806900911279" lon="8.582672170155034"><ele>393.33333333333337</ele><time>2026-05-04T14:48:16Z</time></trkpt><trkpt lat="40.57815524787235" lon="8.582658460127712"><ele>393.1666666666667</ele><time>2026-05-04T14:48:17Z</time></trkpt><trkpt lat="40.57821963038577" lon="8.582641969065559"><ele>393.0</ele><time>2026-05-04T14:48:18Z</time></trkpt><trkpt lat="40.57829344468368" lon="8.582624301250561"><ele>393.0</ele><time>2026-05-04T14:48:19Z</time></trkpt><trkpt lat="40.57836100412268" lon="8.5826051782863"><ele>393.0</ele><time>2026-05-04T14:48:20Z</time></trkpt><trkpt lat="40.57847601900036" lon="8.582568628035634"><ele>393.0</ele><time>2026-05-04T14:48:22Z</time></trkpt><trkpt lat="40.57855877488313" lon="8.582519347186496"><ele>393.0</ele><time>2026-05-04T14:48:24Z</time></trkpt><trkpt lat="40.57862403650018" lon="8.58251615265137"><ele>393.0</ele><time>2026-05-04T14:48:26Z</time></trkpt><trkpt lat="40.57861916193454" lon="8.582288447645505"><ele>393.0</ele><time>2026-05-04T14:48:28Z</time></trkpt><trkpt lat="40.578576306413325" lon="8.582176783327958"><ele>393.0</ele><time>2026-05-04T14:48:30Z</time></trkpt><trkpt lat="40.57850872548209" lon="8.582062349141012"><ele>393.0</ele><time>2026-05-04T14:48:32Z</time></trkpt><trkpt lat="40.578424973304564" lon="8.582045235857457"><ele>393.0</ele><time>2026-05-04T14:48:33Z</time></trkpt><trkpt lat="40.57832989476338" lon="8.58202064675852"><ele>393.0</ele><time>2026-05-04T14:48:34Z</time></trkpt><trkpt lat="40.57821546102255" lon="8.581995158144611"><ele>393.0</ele><time>2026-05-04T14:48:35Z</time></trkpt><trkpt lat="40.57811151963066" lon="8.581957657251882"><ele>393.0</ele><time>2026-05-04T14:48:36Z</time></trkpt><trkpt lat="40.57800909997118" lon="8.5819074827836"><ele>393.0</ele><time>2026-05-04T14:48:37Z</time></trkpt><trkpt lat="40.577917228424326" lon="8.58182100611171"><ele>393.0</ele><time>2026-05-04T14:48:38Z</time></trkpt><trkpt lat="40.577796846567594" lon="8.58173644572581"><ele>392.5</ele><time>2026-05-04T14:48:39Z</time></trkpt><trkpt lat="40.577672034523" lon="8.581647600346018"><ele>392.0</ele><time>2026-05-04T14:48:40Z</time></trkpt><trkpt lat="40.577556124446545" lon="8.581588960058012"><ele>391.5</ele><time>2026-05-04T14:48:41Z</time></trkpt><trkpt lat="40.57745994152981" lon="8.58151594890627"><ele>391.0</ele><time>2026-05-04T14:48:42Z</time></trkpt><trkpt lat="40.57736829902089" lon="8.581448738771167"><ele>391.0</ele><time>2026-05-04T14:48:43Z</time></trkpt><trkpt lat="40.57727578863781" lon="8.581382179095838"><ele>391.0</ele><time>2026-05-04T14:48:44Z</time></trkpt><trkpt lat="40.57718091670213" lon="8.581316805142123"><ele>391.0</ele><time>2026-05-04T14:48:45Z</time></trkpt><trkpt lat="40.57707954895527" lon="8.581242174507079"><ele>391.0</ele><time>2026-05-04T14:48:46Z</time></trkpt><trkpt lat="40.576971459643275" lon="8.581176235030304"><ele>391.0</ele><time>2026-05-04T14:48:47Z</time></trkpt><trkpt lat="40.57686456135087" lon="8.581087720526147"><ele>391.5</ele><time>2026-05-04T14:48:48Z</time></trkpt><trkpt lat="40.576731553494746" lon="8.581041739556627"><ele>392.0</ele><time>2026-05-04T14:48:49Z</time></trkpt><trkpt lat="40.57659651765132" lon="8.580978866098306"><ele>392.5</ele><time>2026-05-04T14:48:50Z</time></trkpt><trkpt lat="40.576456270704185" lon="8.580919031940605"><ele>393.0</ele><time>2026-05-04T14:48:51Z</time></trkpt><trkpt lat="40.57633527832392" lon="8.58087407334959"><ele>393.0</ele><time>2026-05-04T14:48:52Z</time></trkpt><trkpt lat="40.5762129585749" lon="8.580824354998633"><ele>393.0</ele><time>2026-05-04T14:48:53Z</time></trkpt><trkpt lat="40.57610779038831" lon="8.580789893608435"><ele>393.0</ele><time>2026-05-04T14:48:54Z</time></trkpt><trkpt lat="40.57601323570705" lon="8.580754821763712"><ele>393.0</ele><time>2026-05-04T14:48:55Z</time></trkpt><trkpt lat="40.57592271294147" lon="8.580721073708865"><ele>393.0</ele><time>2026-05-04T14:48:56Z</time></trkpt><trkpt lat="40.57584935181913" lon="8.580689960466717"><ele>393.0</ele><time>2026-05-04T14:48:57Z</time></trkpt><trkpt lat="40.57578629581439" lon="8.580666102172245"><ele>393.0</ele><time>2026-05-04T14:48:58Z</time></trkpt><trkpt lat="40.57568930935495" lon="8.580633958040622"><ele>393.0</ele><time>2026-05-04T14:49:00Z</time></trkpt><trkpt lat="40.575620811166345" lon="8.580618216712653"><ele>393.0</ele><time>2026-05-04T14:49:02Z</time></trkpt><trkpt lat="40.575572961652064" lon="8.580562221741218"><ele>393.0</ele><time>2026-05-04T14:49:05Z</time></trkpt><trkpt lat="40.57560583209221" lon="8.580477960896637"><ele>393.0</ele><time>2026-05-04T14:49:06Z</time></trkpt><trkpt lat="40.57574006006861" lon="8.580401873145528"><ele>393.0</ele><time>2026-05-04T14:49:08Z</time></trkpt><trkpt lat="40.575838400917064" lon="8.580360724270689"><ele>393.0</ele><time>2026-05-04T14:49:09Z</time></trkpt><trkpt lat="40.575933479933084" lon="8.580324416503938"><ele>393.0</ele><time>2026-05-04T14:49:10Z</time></trkpt><trkpt lat="40.576030042242486" lon="8.580281381942417"><ele>393.0</ele><time>2026-05-04T14:49:11Z</time></trkpt><trkpt lat="40.57615423291303" lon="8.580227286307835"><ele>393.0</ele><time>2026-05-04T14:49:12Z</time></trkpt><trkpt lat="40.57626906011947" lon="8.580178841033057"><ele>393.59999999999997</ele><time>2026-05-04T14:49:13Z</time></trkpt><trkpt lat="40.576391234205204" lon="8.580131726045328"><ele>394.2</ele><time>2026-05-04T14:49:14Z</time></trkpt><trkpt lat="40.57650209761754" lon="8.58008496761636"><ele>394.8</ele><time>2026-05-04T14:49:15Z</time></trkpt><trkpt lat="40.57658798556779" lon="8.58004388857746"><ele>395.4</ele><time>2026-05-04T14:49:16Z</time></trkpt><trkpt lat="40.57666784837984" lon="8.58000606776934"><ele>396.0</ele><time>2026-05-04T14:49:16.999Z</time></trkpt><trkpt lat="40.576742087151395" lon="8.579971529391406"><ele>396.0</ele><time>2026-05-04T14:49:17.999Z</time></trkpt><trkpt lat="40.57682607497815" lon="8.57993929475276"><ele>396.0</ele><time>2026-05-04T14:49:18.999Z</time></trkpt><trkpt lat="40.57690296062518" lon="8.579906281072448"><ele>396.0</ele><time>2026-05-04T14:49:19.999Z</time></trkpt><trkpt lat="40.57698706171261" lon="8.579865927021556"><ele>396.0</ele><time>2026-05-04T14:49:20.999Z</time></trkpt><trkpt lat="40.57706783220041" lon="8.57982095035192"><ele>396.0</ele><time>2026-05-04T14:49:21.999Z</time></trkpt><trkpt lat="40.57715574403589" lon="8.579770717228357"><ele>396.0</ele><time>2026-05-04T14:49:22.999Z</time></trkpt><trkpt lat="40.577253335783126" lon="8.57972131584694"><ele>396.0</ele><time>2026-05-04T14:49:23.999Z</time></trkpt><trkpt lat="40.577357027684066" lon="8.57967436993533"><ele>396.0</ele><time>2026-05-04T14:49:24.999Z</time></trkpt><trkpt lat="40.57747030560253" lon="8.579631010033335"><ele>396.0</ele><time>2026-05-04T14:49:25.999Z</time></trkpt><trkpt lat="40.57758803079407" lon="8.579592621800467"><ele>396.0</ele><time>2026-05-04T14:49:26.999Z</time></trkpt><trkpt lat="40.57771809190519" lon="8.579573066024022"><ele>396.0</ele><time>2026-05-04T14:49:27.999Z</time></trkpt><trkpt lat="40.57784736051503" lon="8.579567628186403"><ele>396.0</ele><time>2026-05-04T14:49:28.999Z</time></trkpt><trkpt lat="40.57798194127601" lon="8.579573580313548"><ele>396.0</ele><time>2026-05-04T14:49:29.999Z</time></trkpt><trkpt lat="40.57808951935265" lon="8.5795793344925"><ele>396.0</ele><time>2026-05-04T14:49:30.999Z</time></trkpt><trkpt lat="40.578189665046956" lon="8.579584457615846"><ele>397.1666666666667</ele><time>2026-05-04T14:49:31.999Z</time></trkpt><trkpt lat="40.57827410888312" lon="8.57958233838561"><ele>398.33333333333337</ele><time>2026-05-04T14:49:32.999Z</time></trkpt><trkpt lat="40.57834055871517" lon="8.57957710720278"><ele>399.5</ele><time>2026-05-04T14:49:33.999Z</time></trkpt><trkpt lat="40.57841173268927" lon="8.579574455037198"><ele>400.6666666666667</ele><time>2026-05-04T14:49:34.999Z</time></trkpt><trkpt lat="40.578477537418955" lon="8.579570308839484"><ele>401.83333333333337</ele><time>2026-05-04T14:49:36.999Z</time></trkpt><trkpt lat="40.57854156560531" lon="8.579580014450292"><ele>403.0</ele><time>2026-05-04T14:49:38.999Z</time></trkpt><trkpt lat="40.57857391158703" lon="8.579391081958791"><ele>403.0</ele><time>2026-05-04T14:49:39.999Z</time></trkpt><trkpt lat="40.57860728515359" lon="8.579236001685071"><ele>403.0</ele><time>2026-05-04T14:49:40.999Z</time></trkpt><trkpt lat="40.578616895010065" lon="8.579080262743759"><ele>403.0</ele><time>2026-05-04T14:49:41.999Z</time></trkpt><trkpt lat="40.578570300426435" lon="8.578923172600671"><ele>403.0</ele><time>2026-05-04T14:49:42.999Z</time></trkpt><trkpt lat="40.57848356337705" lon="8.578755368967444"><ele>403.33333333333337</ele><time>2026-05-04T14:49:43.999Z</time></trkpt><trkpt lat="40.578346233594765" lon="8.57855846488175"><ele>403.66666666666663</ele><time>2026-05-04T14:49:44.999Z</time></trkpt><trkpt lat="40.578226657264224" lon="8.57837062388864"><ele>404.0</ele><time>2026-05-04T14:49:45.999Z</time></trkpt><trkpt lat="40.57815418808253" lon="8.57816507116674"><ele>404.0</ele><time>2026-05-04T14:49:46.999Z</time></trkpt><trkpt lat="40.57813309030717" lon="8.57792813520877"><ele>404.0</ele><time>2026-05-04T14:49:47.999Z</time></trkpt><trkpt lat="40.5781346850154" lon="8.57767298123606"><ele>404.0</ele><time>2026-05-04T14:49:48.999Z</time></trkpt><trkpt lat="40.57816183428388" lon="8.577417750575501"><ele>403.3333333333333</ele><time>2026-05-04T14:49:49.999Z</time></trkpt><trkpt lat="40.57818912175971" lon="8.577193876501426"><ele>402.66666666666663</ele><time>2026-05-04T14:49:50.999Z</time></trkpt><trkpt lat="40.57821630516339" lon="8.576989909103613"><ele>402.0</ele><time>2026-05-04T14:49:51.999Z</time></trkpt><trkpt lat="40.57824373080552" lon="8.576806755893752"><ele>401.75</ele><time>2026-05-04T14:49:52.999Z</time></trkpt><trkpt lat="40.578245929373814" lon="8.576638112853821"><ele>401.5</ele><time>2026-05-04T14:49:53.999Z</time></trkpt><trkpt lat="40.57824592937461" lon="8.576429887422245"><ele>401.25</ele><time>2026-05-04T14:49:54.999Z</time></trkpt><trkpt lat="40.57824592937511" lon="8.576234120469122"><ele>401.0</ele><time>2026-05-04T14:49:55.999Z</time></trkpt><trkpt lat="40.57825524710338" lon="8.576022081106206"><ele>400.5</ele><time>2026-05-04T14:49:56.999Z</time></trkpt><trkpt lat="40.578514804496" lon="8.57581658885996"><ele>400.0</ele><time>2026-05-04T14:49:57.999Z</time></trkpt><trkpt lat="40.57860823998827" lon="8.575617312903272"><ele>400.33333333333337</ele><time>2026-05-04T14:49:58.999Z</time></trkpt><trkpt lat="40.57870273846124" lon="8.575428795428962"><ele>400.66666666666663</ele><time>2026-05-04T14:49:59.999Z</time></trkpt><trkpt lat="40.57881029295251" lon="8.575250200543671"><ele>401.0</ele><time>2026-05-04T14:50:00.999Z</time></trkpt><trkpt lat="40.57893514544514" lon="8.575066100573713"><ele>399.5</ele><time>2026-05-04T14:50:01.999Z</time></trkpt><trkpt lat="40.57908620721755" lon="8.574870316734168"><ele>398.0</ele><time>2026-05-04T14:50:02.999Z</time></trkpt><trkpt lat="40.57926205919569" lon="8.574658393003862"><ele>395.5</ele><time>2026-05-04T14:50:03.999Z</time></trkpt><trkpt lat="40.579457802698386" lon="8.574420458798778"><ele>393.0</ele><time>2026-05-04T14:50:05Z</time></trkpt><trkpt lat="40.579685040123074" lon="8.574158542980758"><ele>392.0</ele><time>2026-05-04T14:50:06Z</time></trkpt><trkpt lat="40.579958773915585" lon="8.573848159513927"><ele>391.0</ele><time>2026-05-04T14:50:07Z</time></trkpt><trkpt lat="40.58025909767492" lon="8.573507949131775"><ele>390.0</ele><time>2026-05-04T14:50:08Z</time></trkpt><trkpt lat="40.580593311084705" lon="8.573129839881918"><ele>389.0</ele><time>2026-05-04T14:50:09Z</time></trkpt><trkpt lat="40.58094892013885" lon="8.572734861508009"><ele>392.0</ele><time>2026-05-04T14:50:10Z</time></trkpt><trkpt lat="40.58133084116614" lon="8.572318003659435"><ele>391.0</ele><time>2026-05-04T14:50:11Z</time></trkpt><trkpt lat="40.5817189193142" lon="8.571891208338004"><ele>397.0</ele><time>2026-05-04T14:50:12Z</time></trkpt><trkpt lat="40.58212036047344" lon="8.571434716309918"><ele>391.0</ele><time>2026-05-04T14:50:13Z</time></trkpt><trkpt lat="40.58252455571074" lon="8.570974861850791"><ele>398.0</ele><time>2026-05-04T14:50:14Z</time></trkpt><trkpt lat="40.582955609170114" lon="8.57051562084501"><ele>393.0</ele><time>2026-05-04T14:50:15Z</time></trkpt><trkpt lat="40.58338052853254" lon="8.570060448351345"><ele>393.0</ele><time>2026-05-04T14:50:16Z</time></trkpt><trkpt lat="40.5837796103924" lon="8.569681891667884"><ele>390.0</ele><time>2026-05-04T14:50:17Z</time></trkpt><trkpt lat="40.58417068117525" lon="8.569335897515316"><ele>390.0</ele><time>2026-05-04T14:50:18Z</time></trkpt><trkpt lat="40.584569179196045" lon="8.569000684694148"><ele>387.0</ele><time>2026-05-04T14:50:19Z</time></trkpt><trkpt lat="40.58498713999975" lon="8.568658375603189"><ele>386.0</ele><time>2026-05-04T14:50:20Z</time></trkpt><trkpt lat="40.58536991565282" lon="8.568358653490849"><ele>385.0</ele><time>2026-05-04T14:50:21Z</time></trkpt><trkpt lat="40.5856977757433" lon="8.568095458966404"><ele>385.0</ele><time>2026-05-04T14:50:22Z</time></trkpt><trkpt lat="40.585966400633964" lon="8.56787337927662"><ele>385.0</ele><time>2026-05-04T14:50:23Z</time></trkpt><trkpt lat="40.5862057027005" lon="8.567652838443083"><ele>387.0</ele><time>2026-05-04T14:50:24Z</time></trkpt><trkpt lat="40.58649434463466" lon="8.567377492864638"><ele>389.0</ele><time>2026-05-04T14:50:25Z</time></trkpt><trkpt lat="40.58677586171675" lon="8.56705051873406"><ele>391.5</ele><time>2026-05-04T14:50:26Z</time></trkpt><trkpt lat="40.587059114484425" lon="8.56668629190857"><ele>394.0</ele><time>2026-05-04T14:50:27Z</time></trkpt><trkpt lat="40.5873519466851" lon="8.566295626614632"><ele>395.0</ele><time>2026-05-04T14:50:28Z</time></trkpt><trkpt lat="40.58765273245552" lon="8.565885785407845"><ele>396.0</ele><time>2026-05-04T14:50:29Z</time></trkpt><trkpt lat="40.58791510086175" lon="8.565519734138174"><ele>400.0</ele><time>2026-05-04T14:50:30Z</time></trkpt><trkpt lat="40.588139945958645" lon="8.565182759945378"><ele>404.0</ele><time>2026-05-04T14:50:31Z</time></trkpt><trkpt lat="40.588323938757114" lon="8.564872269699363"><ele>404.0</ele><time>2026-05-04T14:50:32Z</time></trkpt><trkpt lat="40.588480673468595" lon="8.564560005640937"><ele>404.0</ele><time>2026-05-04T14:50:33Z</time></trkpt><trkpt lat="40.588637952083275" lon="8.564202431601574"><ele>405.5</ele><time>2026-05-04T14:50:34Z</time></trkpt><trkpt lat="40.588789723967" lon="8.563797604636573"><ele>407.0</ele><time>2026-05-04T14:50:35Z</time></trkpt><trkpt lat="40.58895966364977" lon="8.563356822478266"><ele>407.0</ele><time>2026-05-04T14:50:36Z</time></trkpt><trkpt lat="40.58914126694211" lon="8.562906497976092"><ele>407.0</ele><time>2026-05-04T14:50:37Z</time></trkpt><trkpt lat="40.589339392447826" lon="8.562454598374032"><ele>402.0</ele><time>2026-05-04T14:50:38Z</time></trkpt><trkpt lat="40.58956210195186" lon="8.561996196108671"><ele>397.0</ele><time>2026-05-04T14:50:39Z</time></trkpt><trkpt lat="40.58980065018734" lon="8.56154908324324"><ele>393.0</ele><time>2026-05-04T14:50:40Z</time></trkpt><trkpt lat="40.590060073892374" lon="8.561098492419088"><ele>389.0</ele><time>2026-05-04T14:50:41Z</time></trkpt><trkpt lat="40.59033822242335" lon="8.560655536680152"><ele>385.0</ele><time>2026-05-04T14:50:42Z</time></trkpt><trkpt lat="40.59061081766032" lon="8.560248029595128"><ele>381.0</ele><time>2026-05-04T14:50:43Z</time></trkpt><trkpt lat="40.59084700508866" lon="8.559900366064774"><ele>381.0</ele><time>2026-05-04T14:50:44Z</time></trkpt><trkpt lat="40.59105954583783" lon="8.559574072502313"><ele>381.0</ele><time>2026-05-04T14:50:45Z</time></trkpt><trkpt lat="40.591285345498314" lon="8.559238259998164"><ele>379.0</ele><time>2026-05-04T14:50:46Z</time></trkpt><trkpt lat="40.591518298175465" lon="8.558875418117651"><ele>377.0</ele><time>2026-05-04T14:50:47Z</time></trkpt><trkpt lat="40.591751505593635" lon="8.55849709495475"><ele>377.0</ele><time>2026-05-04T14:50:48Z</time></trkpt><trkpt lat="40.59198202799689" lon="8.5580941901311"><ele>377.0</ele><time>2026-05-04T14:50:49Z</time></trkpt><trkpt lat="40.59220041307817" lon="8.557674850553003"><ele>379.5</ele><time>2026-05-04T14:50:50Z</time></trkpt><trkpt lat="40.592400372644285" lon="8.557247283005667"><ele>382.0</ele><time>2026-05-04T14:50:51Z</time></trkpt><trkpt lat="40.59258785849684" lon="8.556820906335531"><ele>379.0</ele><time>2026-05-04T14:50:52Z</time></trkpt><trkpt lat="40.592749918610906" lon="8.55641358987555"><ele>376.0</ele><time>2026-05-04T14:50:53Z</time></trkpt><trkpt lat="40.5929088039955" lon="8.555993236248137"><ele>376.0</ele><time>2026-05-04T14:50:54Z</time></trkpt><trkpt lat="40.59304477803809" lon="8.555608785943765"><ele>376.0</ele><time>2026-05-04T14:50:55Z</time></trkpt><trkpt lat="40.59315756569309" lon="8.555274688698757"><ele>373.5</ele><time>2026-05-04T14:50:56Z</time></trkpt><trkpt lat="40.593243328454896" lon="8.555008934269864"><ele>371.0</ele><time>2026-05-04T14:50:57Z</time></trkpt><trkpt lat="40.59334835433103" lon="8.554682684398154"><ele>366.0</ele><time>2026-05-04T14:50:58Z</time></trkpt><trkpt lat="40.59346182889249" lon="8.554381940629762"><ele>361.0</ele><time>2026-05-04T14:50:59Z</time></trkpt><trkpt lat="40.593631568764636" lon="8.554056566895838"><ele>358.5</ele><time>2026-05-04T14:51:00Z</time></trkpt><trkpt lat="40.59384840879112" lon="8.553724677200833"><ele>356.0</ele><time>2026-05-04T14:51:01Z</time></trkpt><trkpt lat="40.59407102103345" lon="8.553423408929351"><ele>356.0</ele><time>2026-05-04T14:51:02Z</time></trkpt><trkpt lat="40.594248210518494" lon="8.553179124957"><ele>356.0</ele><time>2026-05-04T14:51:03Z</time></trkpt><trkpt lat="40.59440192041035" lon="8.552965020434046"><ele>358.0</ele><time>2026-05-04T14:51:04Z</time></trkpt><trkpt lat="40.59453178641988" lon="8.55278770480015"><ele>360.0</ele><time>2026-05-04T14:51:05Z</time></trkpt><trkpt lat="40.59464784026199" lon="8.552619764645666"><ele>362.0</ele><time>2026-05-04T14:51:06Z</time></trkpt><trkpt lat="40.59474057380929" lon="8.552435843453651"><ele>362.0</ele><time>2026-05-04T14:51:07Z</time></trkpt><trkpt lat="40.5947904520269" lon="8.55220216691923"><ele>362.0</ele><time>2026-05-04T14:51:08Z</time></trkpt><trkpt lat="40.59478295026611" lon="8.551890003781308"><ele>362.0</ele><time>2026-05-04T14:51:09Z</time></trkpt><trkpt lat="40.594764649658416" lon="8.551575761301125"><ele>360.0</ele><time>2026-05-04T14:51:10Z</time></trkpt><trkpt lat="40.5947112274736" lon="8.551226460666753"><ele>358.0</ele><time>2026-05-04T14:51:11Z</time></trkpt><trkpt lat="40.59464760664565" lon="8.55081850311568"><ele>358.0</ele><time>2026-05-04T14:51:12Z</time></trkpt><trkpt lat="40.59458384834774" lon="8.550359597196858"><ele>358.0</ele><time>2026-05-04T14:51:13Z</time></trkpt><trkpt lat="40.59450834643362" lon="8.549943838421763"><ele>344.0</ele><time>2026-05-04T14:51:14Z</time></trkpt><trkpt lat="40.59443483120757" lon="8.549586373631904"><ele>330.0</ele><time>2026-05-04T14:51:15Z</time></trkpt><trkpt lat="40.59439573029097" lon="8.549262203308873"><ele>328.6666666666667</ele><time>2026-05-04T14:51:16Z</time></trkpt><trkpt lat="40.59436681659736" lon="8.548945161109383"><ele>327.33333333333337</ele><time>2026-05-04T14:51:17Z</time></trkpt><trkpt lat="40.5943296918228" lon="8.548694012342477"><ele>326.0</ele><time>2026-05-04T14:51:18Z</time></trkpt><trkpt lat="40.59429573642289" lon="8.548472362099094"><ele>324.6666666666667</ele><time>2026-05-04T14:51:19Z</time></trkpt><trkpt lat="40.59429800332235" lon="8.548267822200806"><ele>323.3333333333333</ele><time>2026-05-04T14:51:20Z</time></trkpt><trkpt lat="40.59436088685634" lon="8.548044633163267"><ele>322.0</ele><time>2026-05-04T14:51:20.999Z</time></trkpt><trkpt lat="40.59447837375336" lon="8.54777275342376"><ele>326.5</ele><time>2026-05-04T14:51:21.999Z</time></trkpt><trkpt lat="40.59461250244734" lon="8.547440982734319"><ele>331.0</ele><time>2026-05-04T14:51:22.999Z</time></trkpt><trkpt lat="40.59470679116392" lon="8.547164986004361"><ele>325.0</ele><time>2026-05-04T14:51:23.999Z</time></trkpt><trkpt lat="40.5948023576094" lon="8.54694425260264"><ele>319.0</ele><time>2026-05-04T14:51:24.999Z</time></trkpt><trkpt lat="40.59490983002281" lon="8.546765018910948"><ele>313.0</ele><time>2026-05-04T14:51:25.999Z</time></trkpt><trkpt lat="40.59505689495967" lon="8.546640510349539"><ele>313.0</ele><time>2026-05-04T14:51:26.999Z</time></trkpt><trkpt lat="40.59520747306887" lon="8.546599570344373"><ele>313.0</ele><time>2026-05-04T14:51:27.999Z</time></trkpt><trkpt lat="40.59537362416783" lon="8.546611624109755"><ele>313.0</ele><time>2026-05-04T14:51:28.999Z</time></trkpt><trkpt lat="40.59555404820991" lon="8.54670909327311"><ele>309.66666666666663</ele><time>2026-05-04T14:51:29.999Z</time></trkpt><trkpt lat="40.595714443626676" lon="8.546864387262335"><ele>306.3333333333333</ele><time>2026-05-04T14:51:30.999Z</time></trkpt><trkpt lat="40.595871771714855" lon="8.547048079404885"><ele>303.0</ele><time>2026-05-04T14:51:31.999Z</time></trkpt><trkpt lat="40.596002886634544" lon="8.54717838156439"><ele>307.75</ele><time>2026-05-04T14:51:32.999Z</time></trkpt><trkpt lat="40.596131938826154" lon="8.547279595145532"><ele>312.5</ele><time>2026-05-04T14:51:33.999Z</time></trkpt><trkpt lat="40.59626248026907" lon="8.54734658077293"><ele>317.25</ele><time>2026-05-04T14:51:34.999Z</time></trkpt><trkpt lat="40.596391397692415" lon="8.547358299777649"><ele>322.0</ele><time>2026-05-04T14:51:35.999Z</time></trkpt><trkpt lat="40.5965229909417" lon="8.547288895465153"><ele>322.0</ele><time>2026-05-04T14:51:36.999Z</time></trkpt><trkpt lat="40.59664024732032" lon="8.547158935921358"><ele>322.0</ele><time>2026-05-04T14:51:37.999Z</time></trkpt><trkpt lat="40.596701988067196" lon="8.546987748031956"><ele>322.0</ele><time>2026-05-04T14:51:38.999Z</time></trkpt><trkpt lat="40.59668865362588" lon="8.546714776693172"><ele>316.66666666666663</ele><time>2026-05-04T14:51:39.999Z</time></trkpt><trkpt lat="40.59670885014603" lon="8.54642114062708"><ele>311.3333333333333</ele><time>2026-05-04T14:51:40.999Z</time></trkpt><trkpt lat="40.59674824918428" lon="8.546161784924658"><ele>306.0</ele><time>2026-05-04T14:51:41.999Z</time></trkpt><trkpt lat="40.59680750018979" lon="8.54592548821822"><ele>302.0</ele><time>2026-05-04T14:51:42.999Z</time></trkpt><trkpt lat="40.59683643305464" lon="8.545630193479736"><ele>298.0</ele><time>2026-05-04T14:51:43.999Z</time></trkpt><trkpt lat="40.59680588214157" lon="8.545304608745969"><ele>296.0</ele><time>2026-05-04T14:51:44.999Z</time></trkpt><trkpt lat="40.59675686196114" lon="8.544955560671013"><ele>294.0</ele><time>2026-05-04T14:51:45.999Z</time></trkpt><trkpt lat="40.59673800481292" lon="8.54464595415214"><ele>293.5</ele><time>2026-05-04T14:51:46.999Z</time></trkpt><trkpt lat="40.59668886588436" lon="8.544369727911766"><ele>293.0</ele><time>2026-05-04T14:51:47.999Z</time></trkpt><trkpt lat="40.59657816036854" lon="8.54406481462177"><ele>293.0</ele><time>2026-05-04T14:51:48.999Z</time></trkpt><trkpt lat="40.596472782591256" lon="8.543795943875185"><ele>293.0</ele><time>2026-05-04T14:51:49.999Z</time></trkpt><trkpt lat="40.596409371538336" lon="8.543537873072413"><ele>293.0</ele><time>2026-05-04T14:51:50.999Z</time></trkpt><trkpt lat="40.596395317503934" lon="8.543268908087086"><ele>293.0</ele><time>2026-05-04T14:51:51.999Z</time></trkpt><trkpt lat="40.596427509575584" lon="8.542970441516394"><ele>293.0</ele><time>2026-05-04T14:51:52.999Z</time></trkpt><trkpt lat="40.59650124884479" lon="8.542647487708773"><ele>289.0</ele><time>2026-05-04T14:51:53.999Z</time></trkpt><trkpt lat="40.59660620510498" lon="8.542284062168225"><ele>285.0</ele><time>2026-05-04T14:51:54.999Z</time></trkpt><trkpt lat="40.59672512241412" lon="8.541960351039085"><ele>280.0</ele><time>2026-05-04T14:51:55.999Z</time></trkpt><trkpt lat="40.59679986993887" lon="8.54167908190765"><ele>275.0</ele><time>2026-05-04T14:51:56.999Z</time></trkpt><trkpt lat="40.59685887326047" lon="8.541365298807422"><ele>271.5</ele><time>2026-05-04T14:51:57.999Z</time></trkpt><trkpt lat="40.596869768239195" lon="8.54102092420949"><ele>268.0</ele><time>2026-05-04T14:51:58.999Z</time></trkpt><trkpt lat="40.59685057896311" lon="8.540617555613473"><ele>268.0</ele><time>2026-05-04T14:51:59.999Z</time></trkpt><trkpt lat="40.59681895853558" lon="8.540144996693796"><ele>268.0</ele><time>2026-05-04T14:52:00.999Z</time></trkpt><trkpt lat="40.59680172340593" lon="8.539733890272592"><ele>267.0</ele><time>2026-05-04T14:52:01.999Z</time></trkpt><trkpt lat="40.596793968169514" lon="8.539398763205842"><ele>266.0</ele><time>2026-05-04T14:52:02.999Z</time></trkpt><trkpt lat="40.596781411451964" lon="8.539131038478587"><ele>266.0</ele><time>2026-05-04T14:52:03.999Z</time></trkpt><trkpt lat="40.59677117200777" lon="8.538900892846325"><ele>266.0</ele><time>2026-05-04T14:52:04.999Z</time></trkpt><trkpt lat="40.59676146725231" lon="8.538689399948431"><ele>266.0</ele><time>2026-05-04T14:52:05.999Z</time></trkpt><trkpt lat="40.59678758534272" lon="8.53847745860518"><ele>263.33333333333337</ele><time>2026-05-04T14:52:06.999Z</time></trkpt><trkpt lat="40.5968595275636" lon="8.538252200111359"><ele>260.6666666666667</ele><time>2026-05-04T14:52:07.999Z</time></trkpt><trkpt lat="40.59697191534229" lon="8.538022436477501"><ele>258.0</ele><time>2026-05-04T14:52:08.999Z</time></trkpt><trkpt lat="40.59711884534652" lon="8.537792690570106"><ele>258.0</ele><time>2026-05-04T14:52:09.999Z</time></trkpt><trkpt lat="40.597294987076154" lon="8.537560588517168"><ele>258.0</ele><time>2026-05-04T14:52:11Z</time></trkpt><trkpt lat="40.59744832967135" lon="8.537345710305813"><ele>258.0</ele><time>2026-05-04T14:52:12Z</time></trkpt><trkpt lat="40.59757452271539" lon="8.537178995936086"><ele>258.0</ele><time>2026-05-04T14:52:13Z</time></trkpt><trkpt lat="40.59772364434985" lon="8.537058756580867"><ele>258.0</ele><time>2026-05-04T14:52:14Z</time></trkpt><trkpt lat="40.59788113413507" lon="8.5369711382248"><ele>257.6666666666667</ele><time>2026-05-04T14:52:15Z</time></trkpt><trkpt lat="40.597998115842785" lon="8.536845215728444"><ele>257.33333333333337</ele><time>2026-05-04T14:52:16Z</time></trkpt><trkpt lat="40.5980901508613" lon="8.53662405932603"><ele>257.0</ele><time>2026-05-04T14:52:17Z</time></trkpt><trkpt lat="40.598148893824316" lon="8.536345299716972"><ele>250.5</ele><time>2026-05-04T14:52:18Z</time></trkpt><trkpt lat="40.598213949670956" lon="8.535992755254087"><ele>244.0</ele><time>2026-05-04T14:52:19Z</time></trkpt><trkpt lat="40.59831478873393" lon="8.535625485831037"><ele>236.0</ele><time>2026-05-04T14:52:20Z</time></trkpt><trkpt lat="40.59845379402588" lon="8.535311387946912"><ele>228.0</ele><time>2026-05-04T14:52:21Z</time></trkpt><trkpt lat="40.5986083673562" lon="8.535019256625656"><ele>227.66666666666669</ele><time>2026-05-04T14:52:22Z</time></trkpt><trkpt lat="40.598725250571675" lon="8.534774770672202"><ele>227.33333333333334</ele><time>2026-05-04T14:52:23Z</time></trkpt><trkpt lat="40.59880322832459" lon="8.534558439287734"><ele>227.0</ele><time>2026-05-04T14:52:24Z</time></trkpt><trkpt lat="40.59885951668555" lon="8.534405309966424"><ele>227.0</ele><time>2026-05-04T14:52:25Z</time></trkpt><trkpt lat="40.59896077263505" lon="8.534296981813123"><ele>227.0</ele><time>2026-05-04T14:52:26Z</time></trkpt><trkpt lat="40.59911334114713" lon="8.534238402202307"><ele>227.0</ele><time>2026-05-04T14:52:27Z</time></trkpt><trkpt lat="40.59931039456948" lon="8.534219304288472"><ele>224.66666666666669</ele><time>2026-05-04T14:52:28Z</time></trkpt><trkpt lat="40.599518926680005" lon="8.53421928157929"><ele>222.33333333333331</ele><time>2026-05-04T14:52:29Z</time></trkpt><trkpt lat="40.59972115260615" lon="8.534268072206613"><ele>220.0</ele><time>2026-05-04T14:52:30Z</time></trkpt><trkpt lat="40.59990754415574" lon="8.534400044236998"><ele>219.0</ele><time>2026-05-04T14:52:31Z</time></trkpt><trkpt lat="40.60012146123135" lon="8.534579725777784"><ele>218.0</ele><time>2026-05-04T14:52:32Z</time></trkpt><trkpt lat="40.60033861905887" lon="8.534719879666861"><ele>218.0</ele><time>2026-05-04T14:52:33Z</time></trkpt><trkpt lat="40.60052853557098" lon="8.534800052524352"><ele>218.0</ele><time>2026-05-04T14:52:34Z</time></trkpt><trkpt lat="40.60068900063221" lon="8.534892244908777"><ele>218.0</ele><time>2026-05-04T14:52:35Z</time></trkpt><trkpt lat="40.60084516596727" lon="8.535071848254866"><ele>218.0</ele><time>2026-05-04T14:52:36Z</time></trkpt><trkpt lat="40.60099978783615" lon="8.535347919729254"><ele>218.0</ele><time>2026-05-04T14:52:37Z</time></trkpt><trkpt lat="40.601132515707974" lon="8.53558538233227"><ele>217.25</ele><time>2026-05-04T14:52:38Z</time></trkpt><trkpt lat="40.60124127447691" lon="8.535748656842062"><ele>216.5</ele><time>2026-05-04T14:52:39Z</time></trkpt><trkpt lat="40.60133999660872" lon="8.535852759725174"><ele>215.75</ele><time>2026-05-04T14:52:40Z</time></trkpt><trkpt lat="40.601452638741264" lon="8.535909567770625"><ele>215.0</ele><time>2026-05-04T14:52:41Z</time></trkpt><trkpt lat="40.60160676396498" lon="8.535880946177969"><ele>215.0</ele><time>2026-05-04T14:52:42Z</time></trkpt><trkpt lat="40.601791247420536" lon="8.535773081591294"><ele>215.0</ele><time>2026-05-04T14:52:43Z</time></trkpt><trkpt lat="40.601994907488326" lon="8.53567761906392"><ele>215.0</ele><time>2026-05-04T14:52:44Z</time></trkpt><trkpt lat="40.60218210397576" lon="8.53565752533393"><ele>213.33333333333334</ele><time>2026-05-04T14:52:45Z</time></trkpt><trkpt lat="40.602381280553125" lon="8.535693038197858"><ele>211.66666666666669</ele><time>2026-05-04T14:52:46Z</time></trkpt><trkpt lat="40.60259624867812" lon="8.535761123565697"><ele>210.0</ele><time>2026-05-04T14:52:47Z</time></trkpt><trkpt lat="40.60279553430107" lon="8.535860365849723"><ele>208.33333333333331</ele><time>2026-05-04T14:52:48Z</time></trkpt><trkpt lat="40.60296030507138" lon="8.535982103330044"><ele>206.66666666666666</ele><time>2026-05-04T14:52:49Z</time></trkpt><trkpt lat="40.60308496239372" lon="8.536103387765616"><ele>205.0</ele><time>2026-05-04T14:52:50Z</time></trkpt><trkpt lat="40.603189784999124" lon="8.536175857176083"><ele>205.0</ele><time>2026-05-04T14:52:51Z</time></trkpt><trkpt lat="40.60330389754158" lon="8.536179002180807"><ele>205.0</ele><time>2026-05-04T14:52:52Z</time></trkpt><trkpt lat="40.60342675650503" lon="8.536106875602776"><ele>205.0</ele><time>2026-05-04T14:52:53Z</time></trkpt><trkpt lat="40.60353609032915" lon="8.53593526023791"><ele>205.0</ele><time>2026-05-04T14:52:54Z</time></trkpt><trkpt lat="40.60363850731673" lon="8.535699529820874"><ele>204.0</ele><time>2026-05-04T14:52:55Z</time></trkpt><trkpt lat="40.60372040282435" lon="8.535521422754055"><ele>203.0</ele><time>2026-05-04T14:52:56Z</time></trkpt><trkpt lat="40.60381981619406" lon="8.53535831180697"><ele>202.0</ele><time>2026-05-04T14:52:57Z</time></trkpt><trkpt lat="40.60391211057022" lon="8.53523939826992"><ele>201.0</ele><time>2026-05-04T14:52:58Z</time></trkpt><trkpt lat="40.60401411607379" lon="8.535176671537908"><ele>201.0</ele><time>2026-05-04T14:52:59Z</time></trkpt><trkpt lat="40.604124414125714" lon="8.535201912256584"><ele>201.0</ele><time>2026-05-04T14:53:00Z</time></trkpt><trkpt lat="40.60422128153075" lon="8.535325151166802"><ele>201.0</ele><time>2026-05-04T14:53:01Z</time></trkpt><trkpt lat="40.60428479663601" lon="8.535523244023944"><ele>201.0</ele><time>2026-05-04T14:53:02Z</time></trkpt><trkpt lat="40.604336338756475" lon="8.535724560460485"><ele>201.0</ele><time>2026-05-04T14:53:03Z</time></trkpt><trkpt lat="40.60445355161644" lon="8.53588660548739"><ele>201.0</ele><time>2026-05-04T14:53:04Z</time></trkpt><trkpt lat="40.60462690533909" lon="8.535966753321343"><ele>201.0</ele><time>2026-05-04T14:53:05Z</time></trkpt><trkpt lat="40.60481300016874" lon="8.5359812823523"><ele>199.66666666666669</ele><time>2026-05-04T14:53:06Z</time></trkpt><trkpt lat="40.6049874766194" lon="8.53591707884289"><ele>198.33333333333334</ele><time>2026-05-04T14:53:07Z</time></trkpt><trkpt lat="40.605145368285015" lon="8.5357734187485"><ele>197.0</ele><time>2026-05-04T14:53:08Z</time></trkpt><trkpt lat="40.605285410329074" lon="8.535556122045174"><ele>197.5</ele><time>2026-05-04T14:53:09Z</time></trkpt><trkpt lat="40.60539553072865" lon="8.535272878757809"><ele>198.0</ele><time>2026-05-04T14:53:10Z</time></trkpt><trkpt lat="40.60553110002045" lon="8.53499707797847"><ele>198.0</ele><time>2026-05-04T14:53:11Z</time></trkpt><trkpt lat="40.60573736552281" lon="8.534755257898155"><ele>198.0</ele><time>2026-05-04T14:53:12Z</time></trkpt><trkpt lat="40.60601229126817" lon="8.534520112360164"><ele>193.0</ele><time>2026-05-04T14:53:13Z</time></trkpt><trkpt lat="40.60628692408927" lon="8.534294526926296"><ele>188.0</ele><time>2026-05-04T14:53:14Z</time></trkpt><trkpt lat="40.60648702007389" lon="8.53412403712243"><ele>188.0</ele><time>2026-05-04T14:53:15Z</time></trkpt><trkpt lat="40.606633295531104" lon="8.533997182501654"><ele>188.0</ele><time>2026-05-04T14:53:16Z</time></trkpt><trkpt lat="40.60677300655764" lon="8.533872326707787"><ele>188.0</ele><time>2026-05-04T14:53:17Z</time></trkpt><trkpt lat="40.60691884122024" lon="8.533822425176524"><ele>187.66666666666666</ele><time>2026-05-04T14:53:18Z</time></trkpt><trkpt lat="40.607081200858545" lon="8.533842823339231"><ele>187.33333333333334</ele><time>2026-05-04T14:53:19Z</time></trkpt><trkpt lat="40.60725530558067" lon="8.53392781352848"><ele>187.0</ele><time>2026-05-04T14:53:19.999Z</time></trkpt><trkpt lat="40.60739146263389" lon="8.533996207458303"><ele>187.0</ele><time>2026-05-04T14:53:20.999Z</time></trkpt><trkpt lat="40.60749676292742" lon="8.533984648720127"><ele>187.0</ele><time>2026-05-04T14:53:21.999Z</time></trkpt><trkpt lat="40.60759199472031" lon="8.533878998654334"><ele>187.0</ele><time>2026-05-04T14:53:22.999Z</time></trkpt><trkpt lat="40.60763788622649" lon="8.533675209162132"><ele>187.0</ele><time>2026-05-04T14:53:23.999Z</time></trkpt><trkpt lat="40.607628539788074" lon="8.533413479926294"><ele>182.5</ele><time>2026-05-04T14:53:24.999Z</time></trkpt><trkpt lat="40.60758377337548" lon="8.533091011447732"><ele>178.0</ele><time>2026-05-04T14:53:25.999Z</time></trkpt><trkpt lat="40.60754200177111" lon="8.532749736513392"><ele>175.33333333333334</ele><time>2026-05-04T14:53:26.999Z</time></trkpt><trkpt lat="40.60752856020089" lon="8.532467961031891"><ele>172.66666666666666</ele><time>2026-05-04T14:53:27.999Z</time></trkpt><trkpt lat="40.60756648631956" lon="8.53223399708524"><ele>170.0</ele><time>2026-05-04T14:53:28.999Z</time></trkpt><trkpt lat="40.60766740939953" lon="8.53200413091877"><ele>174.5</ele><time>2026-05-04T14:53:29.999Z</time></trkpt><trkpt lat="40.607829148154416" lon="8.53175413375077"><ele>179.0</ele><time>2026-05-04T14:53:30.999Z</time></trkpt><trkpt lat="40.608035163121684" lon="8.531456662255858"><ele>169.5</ele><time>2026-05-04T14:53:31.999Z</time></trkpt><trkpt lat="40.60825653195084" lon="8.531151414726047"><ele>160.0</ele><time>2026-05-04T14:53:32.999Z</time></trkpt><trkpt lat="40.60845676755151" lon="8.53087607011297"><ele>160.0</ele><time>2026-05-04T14:53:33.999Z</time></trkpt><trkpt lat="40.60860889400211" lon="8.530596643247954"><ele>160.0</ele><time>2026-05-04T14:53:34.999Z</time></trkpt><trkpt lat="40.60872761371112" lon="8.530278485878217"><ele>161.5</ele><time>2026-05-04T14:53:35.999Z</time></trkpt><trkpt lat="40.60883073865767" lon="8.529981224359787"><ele>163.0</ele><time>2026-05-04T14:53:36.999Z</time></trkpt><trkpt lat="40.60896195489074" lon="8.52974036778546"><ele>158.66666666666669</ele><time>2026-05-04T14:53:37.999Z</time></trkpt><trkpt lat="40.60909902258574" lon="8.529533087518239"><ele>154.33333333333334</ele><time>2026-05-04T14:53:38.999Z</time></trkpt><trkpt lat="40.60921286290159" lon="8.529314162456245"><ele>150.0</ele><time>2026-05-04T14:53:39.999Z</time></trkpt><trkpt lat="40.60932675266687" lon="8.529125356192303"><ele>150.0</ele><time>2026-05-04T14:53:40.999Z</time></trkpt><trkpt lat="40.6094700260012" lon="8.529002380821568"><ele>150.0</ele><time>2026-05-04T14:53:41.999Z</time></trkpt><trkpt lat="40.609674728084904" lon="8.528889268117814"><ele>150.0</ele><time>2026-05-04T14:53:42.999Z</time></trkpt><trkpt lat="40.60991696945572" lon="8.528760286408376"><ele>148.5</ele><time>2026-05-04T14:53:43.999Z</time></trkpt><trkpt lat="40.61021424013364" lon="8.528599655879674"><ele>147.0</ele><time>2026-05-04T14:53:44.999Z</time></trkpt><trkpt lat="40.61052951831916" lon="8.528417408553377"><ele>145.5</ele><time>2026-05-04T14:53:45.999Z</time></trkpt><trkpt lat="40.61080394650226" lon="8.528258813229307"><ele>144.0</ele><time>2026-05-04T14:53:46.999Z</time></trkpt><trkpt lat="40.611025994969985" lon="8.528126539929259"><ele>144.33333333333334</ele><time>2026-05-04T14:53:47.999Z</time></trkpt><trkpt lat="40.611200908095526" lon="8.52800529393697"><ele>144.66666666666669</ele><time>2026-05-04T14:53:48.999Z</time></trkpt><trkpt lat="40.61135577817279" lon="8.52783008357605"><ele>145.0</ele><time>2026-05-04T14:53:49.999Z</time></trkpt><trkpt lat="40.61151284379576" lon="8.527568885138017"><ele>143.0</ele><time>2026-05-04T14:53:50.999Z</time></trkpt><trkpt lat="40.61167809545642" lon="8.527256609426713"><ele>141.0</ele><time>2026-05-04T14:53:51.999Z</time></trkpt><trkpt lat="40.611890757197344" lon="8.526865944456004"><ele>142.0</ele><time>2026-05-04T14:53:52.999Z</time></trkpt><trkpt lat="40.61213396029021" lon="8.526435456756566"><ele>143.0</ele><time>2026-05-04T14:53:53.999Z</time></trkpt><trkpt lat="40.612392960281014" lon="8.52597905263942"><ele>143.0</ele><time>2026-05-04T14:53:54.999Z</time></trkpt><trkpt lat="40.61267339552217" lon="8.525487475023272"><ele>145.0</ele><time>2026-05-04T14:53:55.999Z</time></trkpt><trkpt lat="40.6129465307282" lon="8.52501592307514"><ele>145.0</ele><time>2026-05-04T14:53:56.999Z</time></trkpt><trkpt lat="40.61317089346476" lon="8.524611240876082"><ele>145.0</ele><time>2026-05-04T14:53:57.999Z</time></trkpt><trkpt lat="40.613396840878195" lon="8.524211806129868"><ele>145.0</ele><time>2026-05-04T14:53:58.999Z</time></trkpt><trkpt lat="40.61358852013039" lon="8.523870109019972"><ele>145.0</ele><time>2026-05-04T14:53:59.999Z</time></trkpt><trkpt lat="40.61375176580251" lon="8.523576541073805"><ele>145.0</ele><time>2026-05-04T14:54:00.999Z</time></trkpt><trkpt lat="40.613910292086175" lon="8.523299630363217"><ele>145.0</ele><time>2026-05-04T14:54:01.999Z</time></trkpt><trkpt lat="40.614053637817555" lon="8.523038360465549"><ele>143.66666666666669</ele><time>2026-05-04T14:54:02.999Z</time></trkpt><trkpt lat="40.614170184428986" lon="8.52282413561375"><ele>142.33333333333334</ele><time>2026-05-04T14:54:03.999Z</time></trkpt><trkpt lat="40.61427522425407" lon="8.522647686600695"><ele>141.0</ele><time>2026-05-04T14:54:04.999Z</time></trkpt><trkpt lat="40.61437822494678" lon="8.522459717742196"><ele>141.0</ele><time>2026-05-04T14:54:05.999Z</time></trkpt><trkpt lat="40.61445708380315" lon="8.522283896404318"><ele>141.0</ele><time>2026-05-04T14:54:06.999Z</time></trkpt><trkpt lat="40.6145011669139" lon="8.522077864970345"><ele>141.0</ele><time>2026-05-04T14:54:07.999Z</time></trkpt><trkpt lat="40.61450776565224" lon="8.521826081723981"><ele>140.66666666666666</ele><time>2026-05-04T14:54:08.999Z</time></trkpt><trkpt lat="40.61446334101021" lon="8.521572360052144"><ele>140.33333333333331</ele><time>2026-05-04T14:54:09.999Z</time></trkpt><trkpt lat="40.614362958688204" lon="8.521326992731879"><ele>140.0</ele><time>2026-05-04T14:54:10.999Z</time></trkpt><trkpt lat="40.61420929079847" lon="8.52108164970543"><ele>143.0</ele><time>2026-05-04T14:54:11.999Z</time></trkpt><trkpt lat="40.6140129489611" lon="8.520846731026456"><ele>146.0</ele><time>2026-05-04T14:54:12.999Z</time></trkpt><trkpt lat="40.613828665462" lon="8.520659288600188"><ele>146.0</ele><time>2026-05-04T14:54:13.999Z</time></trkpt><trkpt lat="40.61367353451738" lon="8.520517434031127"><ele>146.0</ele><time>2026-05-04T14:54:14.999Z</time></trkpt><trkpt lat="40.61356141480431" lon="8.520361083626575"><ele>146.0</ele><time>2026-05-04T14:54:16Z</time></trkpt><trkpt lat="40.61348272734126" lon="8.52014969503538"><ele>141.0</ele><time>2026-05-04T14:54:17Z</time></trkpt><trkpt lat="40.61342835711705" lon="8.519867126553718"><ele>136.0</ele><time>2026-05-04T14:54:18Z</time></trkpt><trkpt lat="40.613399469088314" lon="8.51951863057637"><ele>136.0</ele><time>2026-05-04T14:54:19Z</time></trkpt><trkpt lat="40.613378199286956" lon="8.51912598654318"><ele>136.0</ele><time>2026-05-04T14:54:20Z</time></trkpt><trkpt lat="40.61335494517854" lon="8.518765065397217"><ele>138.0</ele><time>2026-05-04T14:54:21Z</time></trkpt><trkpt lat="40.613321114122975" lon="8.5185115080165"><ele>140.0</ele><time>2026-05-04T14:54:22Z</time></trkpt><trkpt lat="40.613254849840885" lon="8.518260789672182"><ele>142.0</ele><time>2026-05-04T14:54:23Z</time></trkpt><trkpt lat="40.61312586385514" lon="8.517979397731803"><ele>136.5</ele><time>2026-05-04T14:54:24Z</time></trkpt><trkpt lat="40.612953971886625" lon="8.517672589303848"><ele>131.0</ele><time>2026-05-04T14:54:25Z</time></trkpt><trkpt lat="40.61279480696461" lon="8.517405290948737"><ele>131.0</ele><time>2026-05-04T14:54:26Z</time></trkpt><trkpt lat="40.61268216399885" lon="8.517201530249695"><ele>131.0</ele><time>2026-05-04T14:54:27Z</time></trkpt><trkpt lat="40.612587309123924" lon="8.516998180423043"><ele>131.0</ele><time>2026-05-04T14:54:28Z</time></trkpt><trkpt lat="40.612534986936765" lon="8.516761430792428"><ele>131.33333333333331</ele><time>2026-05-04T14:54:29Z</time></trkpt><trkpt lat="40.612541023251886" lon="8.516499941817907"><ele>131.66666666666666</ele><time>2026-05-04T14:54:30Z</time></trkpt><trkpt lat="40.61259073234064" lon="8.516183457718832"><ele>132.0</ele><time>2026-05-04T14:54:31Z</time></trkpt><trkpt lat="40.61266869522555" lon="8.515806794148382"><ele>130.0</ele><time>2026-05-04T14:54:32Z</time></trkpt><trkpt lat="40.612756558852645" lon="8.515376958006593"><ele>128.0</ele><time>2026-05-04T14:54:33Z</time></trkpt><trkpt lat="40.6128699966911" lon="8.514840556763502"><ele>133.0</ele><time>2026-05-04T14:54:34Z</time></trkpt><trkpt lat="40.612983499322446" lon="8.51427376625936"><ele>138.0</ele><time>2026-05-04T14:54:35Z</time></trkpt><trkpt lat="40.613096285849466" lon="8.513678905858042"><ele>138.0</ele><time>2026-05-04T14:54:36Z</time></trkpt><trkpt lat="40.61321505123197" lon="8.513049551904007"><ele>134.5</ele><time>2026-05-04T14:54:37Z</time></trkpt><trkpt lat="40.61332815473333" lon="8.512477774606582"><ele>131.0</ele><time>2026-05-04T14:54:38Z</time></trkpt><trkpt lat="40.61342536747785" lon="8.51198152432758"><ele>128.0</ele><time>2026-05-04T14:54:39Z</time></trkpt><trkpt lat="40.61351492755448" lon="8.511538450162568"><ele>125.0</ele><time>2026-05-04T14:54:40Z</time></trkpt><trkpt lat="40.61359666365144" lon="8.511143319286276"><ele>127.5</ele><time>2026-05-04T14:54:41Z</time></trkpt><trkpt lat="40.61366474547065" lon="8.510811420255118"><ele>130.0</ele><time>2026-05-04T14:54:42Z</time></trkpt><trkpt lat="40.61371806513141" lon="8.510509443541313"><ele>130.33333333333334</ele><time>2026-05-04T14:54:43Z</time></trkpt><trkpt lat="40.61376958183419" lon="8.510247041621811"><ele>130.66666666666666</ele><time>2026-05-04T14:54:44Z</time></trkpt><trkpt lat="40.61383665014715" lon="8.51001254753921"><ele>131.0</ele><time>2026-05-04T14:54:45Z</time></trkpt><trkpt lat="40.61394704602133" lon="8.509778351319085"><ele>127.5</ele><time>2026-05-04T14:54:46Z</time></trkpt><trkpt lat="40.61410952492786" lon="8.509529492100313"><ele>124.0</ele><time>2026-05-04T14:54:47Z</time></trkpt><trkpt lat="40.61426949803086" lon="8.509294321423376"><ele>124.0</ele><time>2026-05-04T14:54:48Z</time></trkpt><trkpt lat="40.61438107858743" lon="8.509029386934348"><ele>124.0</ele><time>2026-05-04T14:54:49Z</time></trkpt><trkpt lat="40.61445283743719" lon="8.508717465568035"><ele>122.5</ele><time>2026-05-04T14:54:50Z</time></trkpt><trkpt lat="40.614488213024096" lon="8.50831755919881"><ele>121.0</ele><time>2026-05-04T14:54:51Z</time></trkpt><trkpt lat="40.614478961678216" lon="8.507855811587426"><ele>121.0</ele><time>2026-05-04T14:54:52Z</time></trkpt><trkpt lat="40.614458994834365" lon="8.507342950884809"><ele>121.0</ele><time>2026-05-04T14:54:53Z</time></trkpt><trkpt lat="40.614452887131414" lon="8.506845859978677"><ele>134.0</ele><time>2026-05-04T14:54:54Z</time></trkpt><trkpt lat="40.61449350502297" lon="8.506358857145456"><ele>147.0</ele><time>2026-05-04T14:54:55Z</time></trkpt><trkpt lat="40.61456739242208" lon="8.50591804013844"><ele>147.0</ele><time>2026-05-04T14:54:56Z</time></trkpt><trkpt lat="40.61465143205806" lon="8.505557900710542"><ele>147.0</ele><time>2026-05-04T14:54:57Z</time></trkpt><trkpt lat="40.61471035943615" lon="8.50521602610745"><ele>146.5</ele><time>2026-05-04T14:54:58Z</time></trkpt><trkpt lat="40.61474314265036" lon="8.504870204119987"><ele>146.0</ele><time>2026-05-04T14:54:59Z</time></trkpt><trkpt lat="40.614730700810185" lon="8.5044816420933"><ele>146.0</ele><time>2026-05-04T14:55:00Z</time></trkpt><trkpt lat="40.61469902074721" lon="8.504046229329994"><ele>146.0</ele><time>2026-05-04T14:55:01Z</time></trkpt><trkpt lat="40.614652098835876" lon="8.503566447773874"><ele>147.0</ele><time>2026-05-04T14:55:02Z</time></trkpt><trkpt lat="40.61461822068117" lon="8.503085438247327"><ele>148.0</ele><time>2026-05-04T14:55:03Z</time></trkpt><trkpt lat="40.61458731572363" lon="8.50267119920472"><ele>148.0</ele><time>2026-05-04T14:55:04Z</time></trkpt><trkpt lat="40.61456460954931" lon="8.50232509005045"><ele>148.0</ele><time>2026-05-04T14:55:05Z</time></trkpt><trkpt lat="40.614544110041365" lon="8.50199860156257"><ele>150.0</ele><time>2026-05-04T14:55:06Z</time></trkpt><trkpt lat="40.61452663462832" lon="8.501693059124717"><ele>152.0</ele><time>2026-05-04T14:55:07Z</time></trkpt><trkpt lat="40.61450274242895" lon="8.501404855549735"><ele>143.66666666666666</ele><time>2026-05-04T14:55:08Z</time></trkpt><trkpt lat="40.614462771624304" lon="8.501134859543807"><ele>135.33333333333334</ele><time>2026-05-04T14:55:09Z</time></trkpt><trkpt lat="40.61438643465575" lon="8.500871770431946"><ele>127.0</ele><time>2026-05-04T14:55:10Z</time></trkpt><trkpt lat="40.614266438784846" lon="8.500605793859988"><ele>132.0</ele><time>2026-05-04T14:55:11Z</time></trkpt><trkpt lat="40.614116925020575" lon="8.500348339580427"><ele>137.0</ele><time>2026-05-04T14:55:12Z</time></trkpt><trkpt lat="40.61394410351789" lon="8.50006815954146"><ele>137.0</ele><time>2026-05-04T14:55:13Z</time></trkpt><trkpt lat="40.61382787345048" lon="8.499809559843"><ele>137.0</ele><time>2026-05-04T14:55:14Z</time></trkpt><trkpt lat="40.61376490010104" lon="8.499572568857147"><ele>137.0</ele><time>2026-05-04T14:55:15Z</time></trkpt><trkpt lat="40.61375989279922" lon="8.499302717776352"><ele>137.0</ele><time>2026-05-04T14:55:15.999Z</time></trkpt><trkpt lat="40.61378592052977" lon="8.498985120113078"><ele>137.0</ele><time>2026-05-04T14:55:16.999Z</time></trkpt><trkpt lat="40.61383647638545" lon="8.498641334861933"><ele>135.0</ele><time>2026-05-04T14:55:17.999Z</time></trkpt><trkpt lat="40.6138505932576" lon="8.498338140075159"><ele>133.0</ele><time>2026-05-04T14:55:18.999Z</time></trkpt><trkpt lat="40.61381265640193" lon="8.498034065488046"><ele>132.5</ele><time>2026-05-04T14:55:19.999Z</time></trkpt><trkpt lat="40.61372372009303" lon="8.497695264996747"><ele>132.0</ele><time>2026-05-04T14:55:20.999Z</time></trkpt><trkpt lat="40.613589914953664" lon="8.497356952446149"><ele>124.0</ele><time>2026-05-04T14:55:21.999Z</time></trkpt><trkpt lat="40.61349898999753" lon="8.497063536812428"><ele>116.0</ele><time>2026-05-04T14:55:22.999Z</time></trkpt><trkpt lat="40.613447236133844" lon="8.496787988432748"><ele>116.0</ele><time>2026-05-04T14:55:23.999Z</time></trkpt><trkpt lat="40.61344722812038" lon="8.496502361835805"><ele>116.0</ele><time>2026-05-04T14:55:24.999Z</time></trkpt><trkpt lat="40.61350357876852" lon="8.496169710562038"><ele>115.0</ele><time>2026-05-04T14:55:25.999Z</time></trkpt><trkpt lat="40.61359995368202" lon="8.495814821558007"><ele>114.0</ele><time>2026-05-04T14:55:26.999Z</time></trkpt><trkpt lat="40.61372039225261" lon="8.495416404065425"><ele>120.5</ele><time>2026-05-04T14:55:27.999Z</time></trkpt><trkpt lat="40.613852372741434" lon="8.495000694472699"><ele>127.0</ele><time>2026-05-04T14:55:28.999Z</time></trkpt><trkpt lat="40.61395290047997" lon="8.494667995657355"><ele>123.0</ele><time>2026-05-04T14:55:29.999Z</time></trkpt><trkpt lat="40.61405392597038" lon="8.494381610724101"><ele>119.0</ele><time>2026-05-04T14:55:30.999Z</time></trkpt><trkpt lat="40.61418056311787" lon="8.494113146568976"><ele>119.0</ele><time>2026-05-04T14:55:31.999Z</time></trkpt><trkpt lat="40.61434817632428" lon="8.493859400365364"><ele>119.0</ele><time>2026-05-04T14:55:32.999Z</time></trkpt><trkpt lat="40.61455246987302" lon="8.493626481740433"><ele>117.5</ele><time>2026-05-04T14:55:33.999Z</time></trkpt><trkpt lat="40.61480943806378" lon="8.493380144493848"><ele>116.0</ele><time>2026-05-04T14:55:34.999Z</time></trkpt><trkpt lat="40.61503609053444" lon="8.493163972604947"><ele>116.0</ele><time>2026-05-04T14:55:35.999Z</time></trkpt><trkpt lat="40.61519868118355" lon="8.492998496632875"><ele>116.0</ele><time>2026-05-04T14:55:36.999Z</time></trkpt><trkpt lat="40.61533432679596" lon="8.492826294200166"><ele>116.0</ele><time>2026-05-04T14:55:37.999Z</time></trkpt><trkpt lat="40.61544822914183" lon="8.492607012431774"><ele>118.5</ele><time>2026-05-04T14:55:38.999Z</time></trkpt><trkpt lat="40.61555123025179" lon="8.492327108426894"><ele>121.0</ele><time>2026-05-04T14:55:39.999Z</time></trkpt><trkpt lat="40.61561756729102" lon="8.492008752673838"><ele>122.0</ele><time>2026-05-04T14:55:40.999Z</time></trkpt><trkpt lat="40.61563481932356" lon="8.491692531163634"><ele>123.0</ele><time>2026-05-04T14:55:41.999Z</time></trkpt><trkpt lat="40.615615522424456" lon="8.491330975259352"><ele>124.0</ele><time>2026-05-04T14:55:42.999Z</time></trkpt><trkpt lat="40.61556297611491" lon="8.49090132208831"><ele>125.0</ele><time>2026-05-04T14:55:43.999Z</time></trkpt><trkpt lat="40.615514477892276" lon="8.490386660451204"><ele>125.0</ele><time>2026-05-04T14:55:44.999Z</time></trkpt><trkpt lat="40.61547832337787" lon="8.489886357181511"><ele>125.0</ele><time>2026-05-04T14:55:45.999Z</time></trkpt><trkpt lat="40.61544771103555" lon="8.489523531145583"><ele>127.0</ele><time>2026-05-04T14:55:46.999Z</time></trkpt><trkpt lat="40.61541015997331" lon="8.489215032814714"><ele>129.0</ele><time>2026-05-04T14:55:47.999Z</time></trkpt><trkpt lat="40.615336777596504" lon="8.488899832759339"><ele>124.0</ele><time>2026-05-04T14:55:48.999Z</time></trkpt><trkpt lat="40.61522293508347" lon="8.488565927118731"><ele>119.0</ele><time>2026-05-04T14:55:49.999Z</time></trkpt><trkpt lat="40.61508197700357" lon="8.48817965496408"><ele>122.0</ele><time>2026-05-04T14:55:50.999Z</time></trkpt><trkpt lat="40.61494429119736" lon="8.487784724580887"><ele>125.0</ele><time>2026-05-04T14:55:51.999Z</time></trkpt><trkpt lat="40.61482381003669" lon="8.487440910602746"><ele>125.0</ele><time>2026-05-04T14:55:52.999Z</time></trkpt><trkpt lat="40.61470673409237" lon="8.487129639777637"><ele>125.0</ele><time>2026-05-04T14:55:53.999Z</time></trkpt><trkpt lat="40.614594964738714" lon="8.486812700570493"><ele>126.5</ele><time>2026-05-04T14:55:54.999Z</time></trkpt><trkpt lat="40.61449489932649" lon="8.486518339571413"><ele>128.0</ele><time>2026-05-04T14:55:55.999Z</time></trkpt><trkpt lat="40.61440183141969" lon="8.486238478206928"><ele>124.0</ele><time>2026-05-04T14:55:56.999Z</time></trkpt><trkpt lat="40.614321631691524" lon="8.485990414834054"><ele>120.0</ele><time>2026-05-04T14:55:57.999Z</time></trkpt><trkpt lat="40.61424471799747" lon="8.485716347695694"><ele>116.0</ele><time>2026-05-04T14:55:58.999Z</time></trkpt><trkpt lat="40.614199727667604" lon="8.485399118134639"><ele>116.0</ele><time>2026-05-04T14:55:59.999Z</time></trkpt><trkpt lat="40.614184672840544" lon="8.485071459025136"><ele>116.0</ele><time>2026-05-04T14:56:00.999Z</time></trkpt><trkpt lat="40.61420625911886" lon="8.484736496820414"><ele>116.5</ele><time>2026-05-04T14:56:01.999Z</time></trkpt><trkpt lat="40.6142670550322" lon="8.484423164622132"><ele>117.0</ele><time>2026-05-04T14:56:02.999Z</time></trkpt><trkpt lat="40.61434757799131" lon="8.484143360699884"><ele>117.0</ele><time>2026-05-04T14:56:03.999Z</time></trkpt><trkpt lat="40.61445057300433" lon="8.483891189149588"><ele>117.0</ele><time>2026-05-04T14:56:04.999Z</time></trkpt><trkpt lat="40.61456252899065" lon="8.4836495003128"><ele>117.0</ele><time>2026-05-04T14:56:05.999Z</time></trkpt><trkpt lat="40.614685331027765" lon="8.483438948964373"><ele>118.0</ele><time>2026-05-04T14:56:06.999Z</time></trkpt><trkpt lat="40.61482018133816" lon="8.483273582278269"><ele>119.0</ele><time>2026-05-04T14:56:07.999Z</time></trkpt><trkpt lat="40.61495978797156" lon="8.483136385930116"><ele>120.0</ele><time>2026-05-04T14:56:08.999Z</time></trkpt><trkpt lat="40.61510620469904" lon="8.483032309355686"><ele>120.0</ele><time>2026-05-04T14:56:09.999Z</time></trkpt><trkpt lat="40.61525396947213" lon="8.482940927035587"><ele>120.0</ele><time>2026-05-04T14:56:10.999Z</time></trkpt><trkpt lat="40.61539280282045" lon="8.482866187279429"><ele>120.0</ele><time>2026-05-04T14:56:11.999Z</time></trkpt><trkpt lat="40.615535361692935" lon="8.48278685359166"><ele>119.25</ele><time>2026-05-04T14:56:12.999Z</time></trkpt><trkpt lat="40.615672190910196" lon="8.482710090290052"><ele>118.5</ele><time>2026-05-04T14:56:13.999Z</time></trkpt><trkpt lat="40.61580886978512" lon="8.482626650544553"><ele>117.75</ele><time>2026-05-04T14:56:14.999Z</time></trkpt><trkpt lat="40.61592874291353" lon="8.482544843510055"><ele>117.0</ele><time>2026-05-04T14:56:15.999Z</time></trkpt><trkpt lat="40.6160569000606" lon="8.482454654975454"><ele>118.66666666666666</ele><time>2026-05-04T14:56:16.999Z</time></trkpt><trkpt lat="40.616177232505315" lon="8.482347625597367"><ele>120.33333333333333</ele><time>2026-05-04T14:56:17.999Z</time></trkpt><trkpt lat="40.61629143678953" lon="8.482224361520094"><ele>122.0</ele><time>2026-05-04T14:56:18.999Z</time></trkpt><trkpt lat="40.61640830240173" lon="8.482078880359367"><ele>122.0</ele><time>2026-05-04T14:56:19.999Z</time></trkpt><trkpt lat="40.616514916719446" lon="8.48191518509243"><ele>122.0</ele><time>2026-05-04T14:56:20.999Z</time></trkpt><trkpt lat="40.61660122541239" lon="8.481756663583809"><ele>122.0</ele><time>2026-05-04T14:56:22Z</time></trkpt><trkpt lat="40.61667898175465" lon="8.481579989478874"><ele>122.0</ele><time>2026-05-04T14:56:23Z</time></trkpt><trkpt lat="40.61673751230354" lon="8.481419725075192"><ele>122.0</ele><time>2026-05-04T14:56:24Z</time></trkpt><trkpt lat="40.61679582253652" lon="8.481226612044749"><ele>122.0</ele><time>2026-05-04T14:56:25Z</time></trkpt><trkpt lat="40.61683962949264" lon="8.48102906398992"><ele>122.0</ele><time>2026-05-04T14:56:26Z</time></trkpt><trkpt lat="40.616879348088545" lon="8.480832208857846"><ele>122.0</ele><time>2026-05-04T14:56:27Z</time></trkpt><trkpt lat="40.61692044039346" lon="8.480649225682319"><ele>122.0</ele><time>2026-05-04T14:56:28Z</time></trkpt><trkpt lat="40.61695582465785" lon="8.480485828819928"><ele>122.0</ele><time>2026-05-04T14:56:29Z</time></trkpt><trkpt lat="40.6169848759098" lon="8.480337322394321"><ele>122.0</ele><time>2026-05-04T14:56:30Z</time></trkpt><trkpt lat="40.61701285661831" lon="8.480198342136738"><ele>122.8</ele><time>2026-05-04T14:56:31Z</time></trkpt><trkpt lat="40.617038989371686" lon="8.480071086881368"><ele>123.6</ele><time>2026-05-04T14:56:32Z</time></trkpt><trkpt lat="40.6170653404508" lon="8.479957535672845"><ele>124.39999999999999</ele><time>2026-05-04T14:56:33Z</time></trkpt><trkpt lat="40.61709408556203" lon="8.47981522509924"><ele>125.19999999999999</ele><time>2026-05-04T14:56:34Z</time></trkpt><trkpt lat="40.6171290977225" lon="8.479640917891539"><ele>126.0</ele><time>2026-05-04T14:56:35Z</time></trkpt><trkpt lat="40.61717257897741" lon="8.47946567927842"><ele>126.0</ele><time>2026-05-04T14:56:36Z</time></trkpt><trkpt lat="40.617215156835336" lon="8.479292058510337"><ele>126.0</ele><time>2026-05-04T14:56:37Z</time></trkpt><trkpt lat="40.61725001676167" lon="8.479119579200407"><ele>126.0</ele><time>2026-05-04T14:56:38Z</time></trkpt><trkpt lat="40.617283829033035" lon="8.478939549806393"><ele>126.0</ele><time>2026-05-04T14:56:39Z</time></trkpt><trkpt lat="40.6173221809095" lon="8.478759590378829"><ele>125.0</ele><time>2026-05-04T14:56:40Z</time></trkpt><trkpt lat="40.617366696566016" lon="8.478567473312136"><ele>124.0</ele><time>2026-05-04T14:56:41Z</time></trkpt><trkpt lat="40.61740618487704" lon="8.478370915193093"><ele>123.0</ele><time>2026-05-04T14:56:42Z</time></trkpt><trkpt lat="40.61743992251456" lon="8.478180631662413"><ele>123.0</ele><time>2026-05-04T14:56:43Z</time></trkpt><trkpt lat="40.6174860609151" lon="8.477974436055671"><ele>123.0</ele><time>2026-05-04T14:56:44Z</time></trkpt><trkpt lat="40.617535878073994" lon="8.477759225457477"><ele>123.0</ele><time>2026-05-04T14:56:45Z</time></trkpt><trkpt lat="40.617593979165946" lon="8.477494474468037"><ele>123.0</ele><time>2026-05-04T14:56:46Z</time></trkpt><trkpt lat="40.61765915900071" lon="8.477194017653954"><ele>123.0</ele><time>2026-05-04T14:56:47Z</time></trkpt><trkpt lat="40.617731105617054" lon="8.476849977681464"><ele>123.0</ele><time>2026-05-04T14:56:48Z</time></trkpt><trkpt lat="40.61780077824451" lon="8.476519979448549"><ele>123.0</ele><time>2026-05-04T14:56:49Z</time></trkpt><trkpt lat="40.61786687422478" lon="8.476221511254407"><ele>125.66666666666666</ele><time>2026-05-04T14:56:50Z</time></trkpt><trkpt lat="40.617920709734705" lon="8.475964266528864"><ele>128.33333333333331</ele><time>2026-05-04T14:56:51Z</time></trkpt><trkpt lat="40.61797020012797" lon="8.475728773126"><ele>131.0</ele><time>2026-05-04T14:56:52Z</time></trkpt><trkpt lat="40.61803259732739" lon="8.47550594195574"><ele>131.33333333333331</ele><time>2026-05-04T14:56:53Z</time></trkpt><trkpt lat="40.61812476643412" lon="8.475300299643525"><ele>131.66666666666666</ele><time>2026-05-04T14:56:54Z</time></trkpt><trkpt lat="40.61825056578237" lon="8.475105805073298"><ele>132.0</ele><time>2026-05-04T14:56:55Z</time></trkpt><trkpt lat="40.61840965302777" lon="8.474915853538194"><ele>132.0</ele><time>2026-05-04T14:56:56Z</time></trkpt><trkpt lat="40.618604089117795" lon="8.474763599908535"><ele>132.0</ele><time>2026-05-04T14:56:57Z</time></trkpt><trkpt lat="40.618823773821845" lon="8.474651113048303"><ele>130.66666666666666</ele><time>2026-05-04T14:56:58Z</time></trkpt><trkpt lat="40.61905033656513" lon="8.4745671709264"><ele>129.33333333333331</ele><time>2026-05-04T14:56:59Z</time></trkpt><trkpt lat="40.61925294902917" lon="8.474496196411675"><ele>128.0</ele><time>2026-05-04T14:57:00Z</time></trkpt><trkpt lat="40.61944506578446" lon="8.474378983999996"><ele>126.33333333333333</ele><time>2026-05-04T14:57:01Z</time></trkpt><trkpt lat="40.61959558299117" lon="8.474224092352829"><ele>124.66666666666666</ele><time>2026-05-04T14:57:02Z</time></trkpt><trkpt lat="40.619734468987986" lon="8.47401400784424"><ele>123.0</ele><time>2026-05-04T14:57:03Z</time></trkpt><trkpt lat="40.619842541360654" lon="8.47379737731244"><ele>122.33333333333334</ele><time>2026-05-04T14:57:04Z</time></trkpt><trkpt lat="40.619915607098015" lon="8.473586376669948"><ele>121.66666666666667</ele><time>2026-05-04T14:57:05Z</time></trkpt><trkpt lat="40.619965522629414" lon="8.473385818254581"><ele>121.0</ele><time>2026-05-04T14:57:06Z</time></trkpt><trkpt lat="40.6199916428127" lon="8.473198098410752"><ele>121.0</ele><time>2026-05-04T14:57:07Z</time></trkpt><trkpt lat="40.619999090310785" lon="8.472977327421052"><ele>121.0</ele><time>2026-05-04T14:57:08Z</time></trkpt><trkpt lat="40.61998807829921" lon="8.472752860257238"><ele>121.0</ele><time>2026-05-04T14:57:09Z</time></trkpt><trkpt lat="40.61997190764455" lon="8.472503366566402"><ele>119.66666666666667</ele><time>2026-05-04T14:57:10Z</time></trkpt><trkpt lat="40.61995635061141" lon="8.472241119967263"><ele>118.33333333333334</ele><time>2026-05-04T14:57:11Z</time></trkpt><trkpt lat="40.619945344830235" lon="8.472002140765634"><ele>117.0</ele><time>2026-05-04T14:57:12Z</time></trkpt><trkpt lat="40.61993341313925" lon="8.47176397862219"><ele>116.66666666666666</ele><time>2026-05-04T14:57:13Z</time></trkpt><trkpt lat="40.619922568198774" lon="8.471524074230205"><ele>116.33333333333333</ele><time>2026-05-04T14:57:14Z</time></trkpt><trkpt lat="40.61990968018517" lon="8.471286104221889"><ele>116.0</ele><time>2026-05-04T14:57:15Z</time></trkpt><trkpt lat="40.61989791412267" lon="8.471022158925086"><ele>116.0</ele><time>2026-05-04T14:57:16Z</time></trkpt><trkpt lat="40.619884103331366" lon="8.470793237250087"><ele>116.0</ele><time>2026-05-04T14:57:17Z</time></trkpt><trkpt lat="40.61987123630771" lon="8.47056385730846"><ele>116.0</ele><time>2026-05-04T14:57:18Z</time></trkpt><trkpt lat="40.61986165436167" lon="8.470375355870848"><ele>116.33333333333333</ele><time>2026-05-04T14:57:19Z</time></trkpt><trkpt lat="40.61984893754987" lon="8.470160363290473"><ele>116.66666666666666</ele><time>2026-05-04T14:57:20Z</time></trkpt><trkpt lat="40.61983563686395" lon="8.469960365537473"><ele>117.0</ele><time>2026-05-04T14:57:21Z</time></trkpt><trkpt lat="40.6198244947344" lon="8.46974090300169"><ele>117.66666666666666</ele><time>2026-05-04T14:57:22Z</time></trkpt><trkpt lat="40.61981334847144" lon="8.469491830681338"><ele>118.33333333333333</ele><time>2026-05-04T14:57:22.999Z</time></trkpt><trkpt lat="40.619808879554434" lon="8.469266261625025"><ele>119.0</ele><time>2026-05-04T14:57:23.999Z</time></trkpt><trkpt lat="40.61981501263014" lon="8.469058915763464"><ele>119.0</ele><time>2026-05-04T14:57:24.999Z</time></trkpt><trkpt lat="40.61983631332496" lon="8.468857596356449"><ele>119.0</ele><time>2026-05-04T14:57:25.999Z</time></trkpt><trkpt lat="40.61988370403329" lon="8.468674692189344"><ele>119.0</ele><time>2026-05-04T14:57:26.999Z</time></trkpt><trkpt lat="40.61996111161693" lon="8.4684843632854"><ele>118.66666666666666</ele><time>2026-05-04T14:57:27.999Z</time></trkpt><trkpt lat="40.62004764357399" lon="8.46829305930698"><ele>118.33333333333334</ele><time>2026-05-04T14:57:28.999Z</time></trkpt><trkpt lat="40.62015134199978" lon="8.468115649750892"><ele>118.0</ele><time>2026-05-04T14:57:29.999Z</time></trkpt><trkpt lat="40.62026312069501" lon="8.46794420058574"><ele>117.33333333333334</ele><time>2026-05-04T14:57:30.999Z</time></trkpt><trkpt lat="40.62035714282305" lon="8.467774870208615"><ele>116.66666666666666</ele><time>2026-05-04T14:57:31.999Z</time></trkpt><trkpt lat="40.62045260290697" lon="8.46757252690014"><ele>116.0</ele><time>2026-05-04T14:57:32.999Z</time></trkpt><trkpt lat="40.62053259140786" lon="8.467351701798648"><ele>116.66666666666666</ele><time>2026-05-04T14:57:33.999Z</time></trkpt><trkpt lat="40.62058396745453" lon="8.467101596794413"><ele>117.33333333333334</ele><time>2026-05-04T14:57:34.999Z</time></trkpt><trkpt lat="40.62060478850587" lon="8.466832679562366"><ele>118.0</ele><time>2026-05-04T14:57:35.999Z</time></trkpt><trkpt lat="40.620591711159165" lon="8.466561118259031"><ele>118.0</ele><time>2026-05-04T14:57:36.999Z</time></trkpt><trkpt lat="40.62054579069972" lon="8.466292360540875"><ele>118.0</ele><time>2026-05-04T14:57:37.999Z</time></trkpt><trkpt lat="40.62049692041431" lon="8.466069489467577"><ele>118.0</ele><time>2026-05-04T14:57:38.999Z</time></trkpt><trkpt lat="40.62045648988612" lon="8.465866343766146"><ele>119.33333333333334</ele><time>2026-05-04T14:57:39.999Z</time></trkpt><trkpt lat="40.620425319132536" lon="8.465666433487057"><ele>120.66666666666666</ele><time>2026-05-04T14:57:40.999Z</time></trkpt><trkpt lat="40.62039078836857" lon="8.465459189809005"><ele>122.0</ele><time>2026-05-04T14:57:41.999Z</time></trkpt><trkpt lat="40.62035353037945" lon="8.465244862701287"><ele>122.33333333333333</ele><time>2026-05-04T14:57:42.999Z</time></trkpt><trkpt lat="40.62032464847061" lon="8.465029639439258"><ele>122.66666666666666</ele><time>2026-05-04T14:57:43.999Z</time></trkpt><trkpt lat="40.620316716844385" lon="8.464815768799088"><ele>123.0</ele><time>2026-05-04T14:57:44.999Z</time></trkpt><trkpt lat="40.62031792457875" lon="8.464592614066264"><ele>123.0</ele><time>2026-05-04T14:57:45.999Z</time></trkpt><trkpt lat="40.62033565385547" lon="8.464365737124512"><ele>123.0</ele><time>2026-05-04T14:57:46.999Z</time></trkpt><trkpt lat="40.620370476119334" lon="8.464126424665364"><ele>123.0</ele><time>2026-05-04T14:57:47.999Z</time></trkpt><trkpt lat="40.620428073686824" lon="8.463875892263758"><ele>121.0</ele><time>2026-05-04T14:57:48.999Z</time></trkpt><trkpt lat="40.62050499066498" lon="8.46365503888087"><ele>119.0</ele><time>2026-05-04T14:57:49.999Z</time></trkpt><trkpt lat="40.62060371310915" lon="8.46343255989244"><ele>117.0</ele><time>2026-05-04T14:57:50.999Z</time></trkpt><trkpt lat="40.62071536596575" lon="8.463223017714272"><ele>117.0</ele><time>2026-05-04T14:57:51.999Z</time></trkpt><trkpt lat="40.62083036260153" lon="8.463049195960936"><ele>117.0</ele><time>2026-05-04T14:57:52.999Z</time></trkpt><trkpt lat="40.620956661684396" lon="8.462895718237418"><ele>117.0</ele><time>2026-05-04T14:57:53.999Z</time></trkpt><trkpt lat="40.62110499066411" lon="8.462718117640058"><ele>116.66666666666666</ele><time>2026-05-04T14:57:54.999Z</time></trkpt><trkpt lat="40.62124430020572" lon="8.462560810214447"><ele>116.33333333333333</ele><time>2026-05-04T14:57:55.999Z</time></trkpt><trkpt lat="40.621380424370486" lon="8.4623905090731"><ele>116.0</ele><time>2026-05-04T14:57:56.999Z</time></trkpt><trkpt lat="40.62150526765719" lon="8.46223221284598"><ele>115.66666666666666</ele><time>2026-05-04T14:57:57.999Z</time></trkpt><trkpt lat="40.62162846435738" lon="8.462089716051059"><ele>115.33333333333334</ele><time>2026-05-04T14:57:58.999Z</time></trkpt><trkpt lat="40.621752378811216" lon="8.46193921931958"><ele>115.0</ele><time>2026-05-04T14:57:59.999Z</time></trkpt><trkpt lat="40.62188167738738" lon="8.461753950500466"><ele>116.0</ele><time>2026-05-04T14:58:00.999Z</time></trkpt><trkpt lat="40.62199050195344" lon="8.46155328188811"><ele>117.0</ele><time>2026-05-04T14:58:01.999Z</time></trkpt><trkpt lat="40.622082536055714" lon="8.461314934923859"><ele>118.0</ele><time>2026-05-04T14:58:02.999Z</time></trkpt><trkpt lat="40.62215623377389" lon="8.461052280508236"><ele>118.0</ele><time>2026-05-04T14:58:03.999Z</time></trkpt><trkpt lat="40.62220711290022" lon="8.460825266037636"><ele>118.0</ele><time>2026-05-04T14:58:04.999Z</time></trkpt><trkpt lat="40.622256141808435" lon="8.460613250349411"><ele>118.0</ele><time>2026-05-04T14:58:05.999Z</time></trkpt><trkpt lat="40.62229993520862" lon="8.460433224289611"><ele>117.66666666666667</ele><time>2026-05-04T14:58:06.999Z</time></trkpt><trkpt lat="40.6223567302296" lon="8.46023283220587"><ele>117.33333333333334</ele><time>2026-05-04T14:58:07.999Z</time></trkpt><trkpt lat="40.62241662487758" lon="8.460020550377603"><ele>117.0</ele><time>2026-05-04T14:58:08.999Z</time></trkpt><trkpt lat="40.622470672724475" lon="8.459836097021702"><ele>117.0</ele><time>2026-05-04T14:58:09.999Z</time></trkpt><trkpt lat="40.62252400502757" lon="8.459669853528066"><ele>116.99999999999999</ele><time>2026-05-04T14:58:10.999Z</time></trkpt><trkpt lat="40.62258274244507" lon="8.45953873851126"><ele>116.99999999999999</ele><time>2026-05-04T14:58:11.999Z</time></trkpt><trkpt lat="40.62265010476729" lon="8.45944346890069"><ele>117.0</ele><time>2026-05-04T14:58:12.999Z</time></trkpt><trkpt lat="40.62272546612007" lon="8.459383200382707"><ele>117.0</ele><time>2026-05-04T14:58:13.999Z</time></trkpt><trkpt lat="40.62280950792355" lon="8.45934611181089"><ele>117.66666666666667</ele><time>2026-05-04T14:58:14.999Z</time></trkpt><trkpt lat="40.62288461723004" lon="8.45933395471355"><ele>118.33333333333334</ele><time>2026-05-04T14:58:15.999Z</time></trkpt><trkpt lat="40.622967880938674" lon="8.459333651808068"><ele>119.0</ele><time>2026-05-04T14:58:16.999Z</time></trkpt><trkpt lat="40.6230601265136" lon="8.459339520591808"><ele>119.66666666666667</ele><time>2026-05-04T14:58:17.999Z</time></trkpt><trkpt lat="40.62313218302793" lon="8.459377992711758"><ele>120.33333333333334</ele><time>2026-05-04T14:58:18.999Z</time></trkpt><trkpt lat="40.6232212299705" lon="8.459420678574647"><ele>121.0</ele><time>2026-05-04T14:58:20.999Z</time></trkpt><trkpt lat="40.6232712933496" lon="8.459470980375226"><ele>121.0</ele><time>2026-05-04T14:58:21.999Z</time></trkpt><trkpt lat="40.62333368785314" lon="8.459549262860644"><ele>121.0</ele><time>2026-05-04T14:58:22.999Z</time></trkpt><trkpt lat="40.62340885335379" lon="8.459665769839585"><ele>121.0</ele><time>2026-05-04T14:58:23.999Z</time></trkpt><trkpt lat="40.623485552913074" lon="8.459810621467547"><ele>121.0</ele><time>2026-05-04T14:58:24.999Z</time></trkpt><trkpt lat="40.623584182818725" lon="8.45997654584952"><ele>121.33333333333334</ele><time>2026-05-04T14:58:25.999Z</time></trkpt><trkpt lat="40.6236988912881" lon="8.46017159826111"><ele>121.66666666666666</ele><time>2026-05-04T14:58:26.999Z</time></trkpt><trkpt lat="40.62382363878105" lon="8.460402729972413"><ele>122.0</ele><time>2026-05-04T14:58:28Z</time></trkpt><trkpt lat="40.62397570033899" lon="8.460653461625284"><ele>123.33333333333333</ele><time>2026-05-04T14:58:29Z</time></trkpt><trkpt lat="40.624100802650844" lon="8.460893415697207"><ele>124.66666666666666</ele><time>2026-05-04T14:58:30Z</time></trkpt><trkpt lat="40.62422638472965" lon="8.461107760963051"><ele>126.0</ele><time>2026-05-04T14:58:31Z</time></trkpt><trkpt lat="40.62435567807259" lon="8.461341836681266"><ele>127.0</ele><time>2026-05-04T14:58:32Z</time></trkpt><trkpt lat="40.62448973872871" lon="8.461583851202446"><ele>128.0</ele><time>2026-05-04T14:58:33Z</time></trkpt><trkpt lat="40.624628582693994" lon="8.461840899491667"><ele>128.0</ele><time>2026-05-04T14:58:34Z</time></trkpt><trkpt lat="40.624786629938505" lon="8.462099341409441"><ele>128.0</ele><time>2026-05-04T14:58:35Z</time></trkpt><trkpt lat="40.62496958855626" lon="8.462364431554175"><ele>129.5</ele><time>2026-05-04T14:58:36Z</time></trkpt><trkpt lat="40.625178074930886" lon="8.462646468868789"><ele>131.0</ele><time>2026-05-04T14:58:37Z</time></trkpt><trkpt lat="40.62538572714223" lon="8.462895825669376"><ele>129.0</ele><time>2026-05-04T14:58:38Z</time></trkpt><trkpt lat="40.62560980773776" lon="8.463119959836165"><ele>127.0</ele><time>2026-05-04T14:58:39Z</time></trkpt><trkpt lat="40.6258498565958" lon="8.463323524621988"><ele>127.0</ele><time>2026-05-04T14:58:40Z</time></trkpt><trkpt lat="40.626104219024654" lon="8.463493239046933"><ele>127.0</ele><time>2026-05-04T14:58:41Z</time></trkpt><trkpt lat="40.62636615949396" lon="8.463638157235838"><ele>128.5</ele><time>2026-05-04T14:58:42Z</time></trkpt><trkpt lat="40.62663356370246" lon="8.463776210447609"><ele>130.0</ele><time>2026-05-04T14:58:43Z</time></trkpt><trkpt lat="40.626895030345366" lon="8.46391517583607"><ele>131.0</ele><time>2026-05-04T14:58:44Z</time></trkpt><trkpt lat="40.62715006432585" lon="8.46405388319854"><ele>132.0</ele><time>2026-05-04T14:58:45Z</time></trkpt><trkpt lat="40.62739565659806" lon="8.46418049966436"><ele>132.0</ele><time>2026-05-04T14:58:46Z</time></trkpt><trkpt lat="40.62761462371476" lon="8.464301560847128"><ele>132.0</ele><time>2026-05-04T14:58:47Z</time></trkpt><trkpt lat="40.62782998312653" lon="8.46443023789677"><ele>130.5</ele><time>2026-05-04T14:58:48Z</time></trkpt><trkpt lat="40.62805505552842" lon="8.464580521682958"><ele>129.0</ele><time>2026-05-04T14:58:49Z</time></trkpt><trkpt lat="40.62828396347624" lon="8.464755075908437"><ele>129.0</ele><time>2026-05-04T14:58:50Z</time></trkpt><trkpt lat="40.62850900709754" lon="8.464966697620728"><ele>129.0</ele><time>2026-05-04T14:58:51Z</time></trkpt><trkpt lat="40.62871281291047" lon="8.465191413225313"><ele>131.0</ele><time>2026-05-04T14:58:52Z</time></trkpt><trkpt lat="40.62890356571506" lon="8.465438389523213"><ele>133.0</ele><time>2026-05-04T14:58:53Z</time></trkpt><trkpt lat="40.62907112346847" lon="8.465680342992393"><ele>135.0</ele><time>2026-05-04T14:58:54Z</time></trkpt><trkpt lat="40.62922700140894" lon="8.465938208127909"><ele>137.0</ele><time>2026-05-04T14:58:55Z</time></trkpt><trkpt lat="40.6293623440134" lon="8.466211281381685"><ele>134.5</ele><time>2026-05-04T14:58:56Z</time></trkpt><trkpt lat="40.62948469389367" lon="8.466495857945235"><ele>132.0</ele><time>2026-05-04T14:58:57Z</time></trkpt><trkpt lat="40.629596710959824" lon="8.466788997932364"><ele>132.0</ele><time>2026-05-04T14:58:58Z</time></trkpt><trkpt lat="40.629697319817474" lon="8.46708822409552"><ele>132.0</ele><time>2026-05-04T14:58:59Z</time></trkpt><trkpt lat="40.629785100730196" lon="8.467375583455835"><ele>133.0</ele><time>2026-05-04T14:59:00Z</time></trkpt><trkpt lat="40.62987682674062" lon="8.467659132993957"><ele>134.0</ele><time>2026-05-04T14:59:01Z</time></trkpt><trkpt lat="40.62997410095668" lon="8.467924942008175"><ele>135.5</ele><time>2026-05-04T14:59:02Z</time></trkpt><trkpt lat="40.6300695297756" lon="8.46818904530753"><ele>137.0</ele><time>2026-05-04T14:59:03Z</time></trkpt><trkpt lat="40.63016403887281" lon="8.468465610270417"><ele>137.0</ele><time>2026-05-04T14:59:04Z</time></trkpt><trkpt lat="40.63025413191266" lon="8.468715600091752"><ele>137.0</ele><time>2026-05-04T14:59:05Z</time></trkpt><trkpt lat="40.63035011852987" lon="8.468958189064512"><ele>137.0</ele><time>2026-05-04T14:59:06Z</time></trkpt><trkpt lat="40.63045750928002" lon="8.469197270050273"><ele>137.66666666666666</ele><time>2026-05-04T14:59:07Z</time></trkpt><trkpt lat="40.63057536859969" lon="8.469438115273428"><ele>138.33333333333334</ele><time>2026-05-04T14:59:08Z</time></trkpt><trkpt lat="40.63071900635363" lon="8.469672552494684"><ele>139.0</ele><time>2026-05-04T14:59:09Z</time></trkpt><trkpt lat="40.63088120914599" lon="8.469908451379013"><ele>141.0</ele><time>2026-05-04T14:59:10Z</time></trkpt><trkpt lat="40.6310484777574" lon="8.470153013848064"><ele>143.0</ele><time>2026-05-04T14:59:11Z</time></trkpt><trkpt lat="40.63119366397767" lon="8.470359388516277"><ele>144.0</ele><time>2026-05-04T14:59:12Z</time></trkpt><trkpt lat="40.63132090787563" lon="8.470537040566729"><ele>145.0</ele><time>2026-05-04T14:59:13Z</time></trkpt><trkpt lat="40.63143402102001" lon="8.470709682375634"><ele>146.0</ele><time>2026-05-04T14:59:14Z</time></trkpt><trkpt lat="40.63153546269876" lon="8.470874948395798"><ele>146.0</ele><time>2026-05-04T14:59:15Z</time></trkpt><trkpt lat="40.631638760771864" lon="8.471023448159901"><ele>146.0</ele><time>2026-05-04T14:59:16Z</time></trkpt><trkpt lat="40.631750060132106" lon="8.471185844739253"><ele>146.0</ele><time>2026-05-04T14:59:17Z</time></trkpt><trkpt lat="40.63186940673448" lon="8.471373060228164"><ele>142.66666666666666</ele><time>2026-05-04T14:59:18Z</time></trkpt><trkpt lat="40.63200122837082" lon="8.471586464911352"><ele>139.33333333333334</ele><time>2026-05-04T14:59:19Z</time></trkpt><trkpt lat="40.63213742339211" lon="8.471810083751588"><ele>136.0</ele><time>2026-05-04T14:59:20Z</time></trkpt><trkpt lat="40.63227039679892" lon="8.47202605248539"><ele>134.66666666666669</ele><time>2026-05-04T14:59:21Z</time></trkpt><trkpt lat="40.63241871066733" lon="8.472239509546146"><ele>133.33333333333334</ele><time>2026-05-04T14:59:22Z</time></trkpt><trkpt lat="40.63255256518987" lon="8.472444011200848"><ele>132.0</ele><time>2026-05-04T14:59:23Z</time></trkpt><trkpt lat="40.63268030701846" lon="8.472630741925771"><ele>132.0</ele><time>2026-05-04T14:59:24Z</time></trkpt><trkpt lat="40.632800230287984" lon="8.47281405625627"><ele>132.0</ele><time>2026-05-04T14:59:25Z</time></trkpt><trkpt lat="40.632916930430845" lon="8.472996350059407"><ele>132.0</ele><time>2026-05-04T14:59:25.999Z</time></trkpt><trkpt lat="40.633028719662384" lon="8.47317175679625"><ele>132.66666666666666</ele><time>2026-05-04T14:59:26.999Z</time></trkpt><trkpt lat="40.63313369780286" lon="8.473329307304045"><ele>133.33333333333331</ele><time>2026-05-04T14:59:27.999Z</time></trkpt><trkpt lat="40.63323645848724" lon="8.473489287379119"><ele>134.0</ele><time>2026-05-04T14:59:28.999Z</time></trkpt><trkpt lat="40.63335049902372" lon="8.473665867480676"><ele>132.33333333333331</ele><time>2026-05-04T14:59:29.999Z</time></trkpt><trkpt lat="40.63345980729287" lon="8.473837697681436"><ele>130.66666666666666</ele><time>2026-05-04T14:59:30.999Z</time></trkpt><trkpt lat="40.63357462537616" lon="8.474006328887002"><ele>129.0</ele><time>2026-05-04T14:59:31.999Z</time></trkpt><trkpt lat="40.63371424618715" lon="8.47416689795731"><ele>129.0</ele><time>2026-05-04T14:59:32.999Z</time></trkpt><trkpt lat="40.6338804178113" lon="8.474319694473254"><ele>129.0</ele><time>2026-05-04T14:59:33.999Z</time></trkpt><trkpt lat="40.63406504238968" lon="8.474437955180978"><ele>129.0</ele><time>2026-05-04T14:59:34.999Z</time></trkpt><trkpt lat="40.63427156937437" lon="8.474532495985393"><ele>126.5</ele><time>2026-05-04T14:59:35.999Z</time></trkpt><trkpt lat="40.6344975910005" lon="8.474606172109056"><ele>124.0</ele><time>2026-05-04T14:59:36.999Z</time></trkpt><trkpt lat="40.63471717976968" lon="8.474642379076483"><ele>124.0</ele><time>2026-05-04T14:59:37.999Z</time></trkpt><trkpt lat="40.63493041826036" lon="8.47464181304275"><ele>124.0</ele><time>2026-05-04T14:59:38.999Z</time></trkpt><trkpt lat="40.63515307546775" lon="8.474618357484937"><ele>124.0</ele><time>2026-05-04T14:59:39.999Z</time></trkpt><trkpt lat="40.635380386091796" lon="8.47455899721881"><ele>123.33333333333334</ele><time>2026-05-04T14:59:40.999Z</time></trkpt><trkpt lat="40.635593742013114" lon="8.474488864943593"><ele>122.66666666666666</ele><time>2026-05-04T14:59:41.999Z</time></trkpt><trkpt lat="40.63580190067793" lon="8.474449580289184"><ele>122.0</ele><time>2026-05-04T14:59:42.999Z</time></trkpt><trkpt lat="40.636019283394745" lon="8.47446253229349"><ele>120.66666666666666</ele><time>2026-05-04T14:59:43.999Z</time></trkpt><trkpt lat="40.63623399488303" lon="8.47451891097165"><ele>119.33333333333334</ele><time>2026-05-04T14:59:44.999Z</time></trkpt><trkpt lat="40.636449714643746" lon="8.474609285969068"><ele>118.0</ele><time>2026-05-04T14:59:45.999Z</time></trkpt><trkpt lat="40.6366566318678" lon="8.474736481841342"><ele>113.5</ele><time>2026-05-04T14:59:46.999Z</time></trkpt><trkpt lat="40.63685557794542" lon="8.474904990250183"><ele>109.0</ele><time>2026-05-04T14:59:47.999Z</time></trkpt><trkpt lat="40.63704693395087" lon="8.475123055282213"><ele>104.0</ele><time>2026-05-04T14:59:48.999Z</time></trkpt><trkpt lat="40.637220009054964" lon="8.475376455808302"><ele>99.0</ele><time>2026-05-04T14:59:49.999Z</time></trkpt><trkpt lat="40.63737953507686" lon="8.47563805009463"><ele>97.66666666666667</ele><time>2026-05-04T14:59:50.999Z</time></trkpt><trkpt lat="40.63752283950587" lon="8.475866535181517"><ele>96.33333333333334</ele><time>2026-05-04T14:59:51.999Z</time></trkpt><trkpt lat="40.63765979456764" lon="8.476067533995089"><ele>95.0</ele><time>2026-05-04T14:59:52.999Z</time></trkpt><trkpt lat="40.63778820368613" lon="8.476255892939825"><ele>99.33333333333334</ele><time>2026-05-04T14:59:53.999Z</time></trkpt><trkpt lat="40.637906227341304" lon="8.47643251514148"><ele>103.66666666666667</ele><time>2026-05-04T14:59:54.999Z</time></trkpt><trkpt lat="40.63802609298939" lon="8.476593039232606"><ele>108.0</ele><time>2026-05-04T14:59:55.999Z</time></trkpt><trkpt lat="40.63813768151234" lon="8.476736927160388"><ele>108.0</ele><time>2026-05-04T14:59:56.999Z</time></trkpt><trkpt lat="40.6382625436065" lon="8.476877111978318"><ele>108.0</ele><time>2026-05-04T14:59:57.999Z</time></trkpt><trkpt lat="40.63840144560915" lon="8.477003628726335"><ele>108.0</ele><time>2026-05-04T14:59:58.999Z</time></trkpt><trkpt lat="40.63852231508188" lon="8.477111391933185"><ele>109.75</ele><time>2026-05-04T14:59:59.999Z</time></trkpt><trkpt lat="40.63863330454007" lon="8.47720410741063"><ele>111.5</ele><time>2026-05-04T15:00:00.999Z</time></trkpt><trkpt lat="40.63874004357552" lon="8.477289447269309"><ele>113.25</ele><time>2026-05-04T15:00:01.999Z</time></trkpt><trkpt lat="40.63883982535739" lon="8.477367301320824"><ele>115.0</ele><time>2026-05-04T15:00:02.999Z</time></trkpt><trkpt lat="40.638941713498674" lon="8.477454565666491"><ele>115.0</ele><time>2026-05-04T15:00:03.999Z</time></trkpt><trkpt lat="40.63904201160879" lon="8.477536269085599"><ele>115.0</ele><time>2026-05-04T15:00:04.999Z</time></trkpt><trkpt lat="40.63914556004118" lon="8.477617715672947"><ele>115.0</ele><time>2026-05-04T15:00:05.999Z</time></trkpt><trkpt lat="40.63924733949654" lon="8.477704723384514"><ele>115.0</ele><time>2026-05-04T15:00:06.999Z</time></trkpt><trkpt lat="40.63934689869444" lon="8.4777878934396"><ele>115.0</ele><time>2026-05-04T15:00:07.999Z</time></trkpt><trkpt lat="40.639440642011536" lon="8.477867652094488"><ele>115.0</ele><time>2026-05-04T15:00:08.999Z</time></trkpt><trkpt lat="40.6395328830966" lon="8.477945557403272"><ele>115.0</ele><time>2026-05-04T15:00:09.999Z</time></trkpt><trkpt lat="40.639630821812204" lon="8.478021216740805"><ele>115.0</ele><time>2026-05-04T15:00:10.999Z</time></trkpt><trkpt lat="40.639732041937606" lon="8.478101584745252"><ele>116.25</ele><time>2026-05-04T15:00:11.999Z</time></trkpt><trkpt lat="40.639830832239134" lon="8.478179061016178"><ele>117.5</ele><time>2026-05-04T15:00:12.999Z</time></trkpt><trkpt lat="40.63993873523096" lon="8.478265725026516"><ele>118.75</ele><time>2026-05-04T15:00:13.999Z</time></trkpt><trkpt lat="40.64004569853434" lon="8.478359057917098"><ele>120.0</ele><time>2026-05-04T15:00:14.999Z</time></trkpt><trkpt lat="40.640159618750396" lon="8.478458577761359"><ele>120.0</ele><time>2026-05-04T15:00:15.999Z</time></trkpt><trkpt lat="40.64028458711018" lon="8.478561925003476"><ele>120.0</ele><time>2026-05-04T15:00:16.999Z</time></trkpt><trkpt lat="40.6404115680408" lon="8.478666678953523"><ele>120.0</ele><time>2026-05-04T15:00:17.999Z</time></trkpt><trkpt lat="40.640544868862904" lon="8.478783497801953"><ele>119.66666666666666</ele><time>2026-05-04T15:00:18.999Z</time></trkpt><trkpt lat="40.6406875314322" lon="8.478897973278281"><ele>119.33333333333333</ele><time>2026-05-04T15:00:19.999Z</time></trkpt><trkpt lat="40.64083423168946" lon="8.479017337740572"><ele>119.0</ele><time>2026-05-04T15:00:20.999Z</time></trkpt><trkpt lat="40.640983312944336" lon="8.479135914423663"><ele>119.0</ele><time>2026-05-04T15:00:21.999Z</time></trkpt><trkpt lat="40.64112413158781" lon="8.479252542586652"><ele>119.0</ele><time>2026-05-04T15:00:22.999Z</time></trkpt><trkpt lat="40.64124946308805" lon="8.479354319491444"><ele>119.0</ele><time>2026-05-04T15:00:23.999Z</time></trkpt><trkpt lat="40.64136443576268" lon="8.479454693492546"><ele>118.80000000000001</ele><time>2026-05-04T15:00:24.999Z</time></trkpt><trkpt lat="40.64146702896949" lon="8.479537954325933"><ele>118.60000000000001</ele><time>2026-05-04T15:00:25.999Z</time></trkpt><trkpt lat="40.641563438404965" lon="8.479626241885217"><ele>118.4</ele><time>2026-05-04T15:00:26.999Z</time></trkpt><trkpt lat="40.64165747018516" lon="8.479700853804964"><ele>118.2</ele><time>2026-05-04T15:00:27.999Z</time></trkpt><trkpt lat="40.64174249753716" lon="8.47977350572636"><ele>118.0</ele><time>2026-05-04T15:00:28.999Z</time></trkpt><trkpt lat="40.64183380670977" lon="8.479847008622576"><ele>118.0</ele><time>2026-05-04T15:00:29.999Z</time></trkpt><trkpt lat="40.64194972724449" lon="8.479933020791645"><ele>118.0</ele><time>2026-05-04T15:00:30.999Z</time></trkpt><trkpt lat="40.64207543176233" lon="8.48004225017808"><ele>118.0</ele><time>2026-05-04T15:00:31.999Z</time></trkpt><trkpt lat="40.64221237548431" lon="8.480160008403306"><ele>118.0</ele><time>2026-05-04T15:00:33Z</time></trkpt><trkpt lat="40.6423437838905" lon="8.480273824430967"><ele>119.0</ele><time>2026-05-04T15:00:34Z</time></trkpt><trkpt lat="40.64246460998514" lon="8.48037528255413"><ele>120.0</ele><time>2026-05-04T15:00:35Z</time></trkpt><trkpt lat="40.64256952206623" lon="8.480457857718037"><ele>121.0</ele><time>2026-05-04T15:00:36Z</time></trkpt><trkpt lat="40.64266120710691" lon="8.480534815702516"><ele>122.0</ele><time>2026-05-04T15:00:37Z</time></trkpt><trkpt lat="40.64274180239048" lon="8.48060301431604"><ele>121.99999999999999</ele><time>2026-05-04T15:00:38Z</time></trkpt><trkpt lat="40.642799997242356" lon="8.480655325001337"><ele>122.0</ele><time>2026-05-04T15:00:39Z</time></trkpt><trkpt lat="40.64285380606029" lon="8.480703226481626"><ele>121.99999999999999</ele><time>2026-05-04T15:00:40Z</time></trkpt><trkpt lat="40.642896831821616" lon="8.480798045316769"><ele>121.99999999999999</ele><time>2026-05-04T15:00:43Z</time></trkpt><trkpt lat="40.64288509882692" lon="8.48088234040155"><ele>122.0</ele><time>2026-05-04T15:00:45Z</time></trkpt><trkpt lat="40.64285228031381" lon="8.480965104256947"><ele>121.99999999999999</ele><time>2026-05-04T15:00:46Z</time></trkpt><trkpt lat="40.642790679336706" lon="8.481051272924507"><ele>121.99999999999999</ele><time>2026-05-04T15:00:47Z</time></trkpt><trkpt lat="40.64272916280104" lon="8.481127079535145"><ele>121.99999999999999</ele><time>2026-05-04T15:00:48Z</time></trkpt><trkpt lat="40.64267600411138" lon="8.481188367121824"><ele>122.0</ele><time>2026-05-04T15:00:49Z</time></trkpt><trkpt lat="40.64261909266077" lon="8.481253581487483"><ele>122.0</ele><time>2026-05-04T15:00:50Z</time></trkpt><trkpt lat="40.64256515436158" lon="8.481316993446859"><ele>122.0</ele><time>2026-05-04T15:00:51Z</time></trkpt><trkpt lat="40.642478646205895" lon="8.481425807132613"><ele>121.99999999999999</ele><time>2026-05-04T15:00:53Z</time></trkpt><trkpt lat="40.642431004077714" lon="8.481484792120101"><ele>122.0</ele><time>2026-05-04T15:00:54Z</time></trkpt><trkpt lat="40.64236789961116" lon="8.48155586492321"><ele>122.6</ele><time>2026-05-04T15:00:55Z</time></trkpt><trkpt lat="40.642279374940415" lon="8.481668435383146"><ele>123.19999999999999</ele><time>2026-05-04T15:00:57Z</time></trkpt><trkpt lat="40.6421752276764" lon="8.481806790508008"><ele>123.8</ele><time>2026-05-04T15:00:59Z</time></trkpt><trkpt lat="40.642123692258835" lon="8.481872042110403"><ele>124.4</ele><time>2026-05-04T15:01:00Z</time></trkpt><trkpt lat="40.64207110170312" lon="8.481939596589744"><ele>125.0</ele><time>2026-05-04T15:01:01Z</time></trkpt><trkpt lat="40.64197684738785" lon="8.482067717600371"><ele>125.49999999999999</ele><time>2026-05-04T15:01:03Z</time></trkpt><trkpt lat="40.64189956559853" lon="8.482156702009483"><ele>126.0</ele><time>2026-05-04T15:01:05Z</time></trkpt><trkpt lat="40.641817117881864" lon="8.482248338356671"><ele>126.5</ele><time>2026-05-04T15:01:07Z</time></trkpt><trkpt lat="40.641758845086095" lon="8.482314180901573"><ele>127.0</ele><time>2026-05-04T15:01:08Z</time></trkpt><trkpt lat="40.641705730976106" lon="8.48237459019122"><ele>127.49999999999999</ele><time>2026-05-04T15:01:09Z</time></trkpt><trkpt lat="40.64166424158923" lon="8.482477891236323"><ele>128.0</ele><time>2026-05-04T15:01:11Z</time></trkpt><trkpt lat="40.6416800816703" lon="8.482611288346982"><ele>127.99999999999999</ele><time>2026-05-04T15:01:13Z</time></trkpt><trkpt lat="40.641733722730336" lon="8.482712593720619"><ele>128.0</ele><time>2026-05-04T15:01:14Z</time></trkpt><trkpt lat="40.64178859450129" lon="8.482836708174377"><ele>128.0</ele><time>2026-05-04T15:01:15Z</time></trkpt><trkpt lat="40.64182680758873" lon="8.482923673596407"><ele>128.0</ele><time>2026-05-04T15:01:16Z</time></trkpt><trkpt lat="40.641856787822555" lon="8.482997068748046"><ele>127.99999999999999</ele><time>2026-05-04T15:01:18Z</time></trkpt><trkpt lat="40.64177860144633" lon="8.48306646111459"><ele>128.0</ele><time>2026-05-04T15:01:23Z</time></trkpt><trkpt lat="40.641702569750464" lon="8.483116823842925"><ele>129.0</ele><time>2026-05-04T15:01:24Z</time></trkpt><trkpt lat="40.64158995436738" lon="8.483197844297973"><ele>130.0</ele><time>2026-05-04T15:01:25Z</time></trkpt><trkpt lat="40.64144193424856" lon="8.483309343826988"><ele>131.0</ele><time>2026-05-04T15:01:26Z</time></trkpt><trkpt lat="40.64129126197573" lon="8.483428368302016"><ele>131.0</ele><time>2026-05-04T15:01:27Z</time></trkpt><trkpt lat="40.64113419213047" lon="8.483556097758138"><ele>131.0</ele><time>2026-05-04T15:01:28Z</time></trkpt><trkpt lat="40.640933463745014" lon="8.483702724817636"><ele>131.0</ele><time>2026-05-04T15:01:29Z</time></trkpt><trkpt lat="40.64070080592988" lon="8.483877753556351"><ele>133.5</ele><time>2026-05-04T15:01:29.999Z</time></trkpt><trkpt lat="40.64046558725763" lon="8.48406328293731"><ele>136.0</ele><time>2026-05-04T15:01:30.999Z</time></trkpt><trkpt lat="40.64026884247237" lon="8.48421439144987"><ele>137.33333333333334</ele><time>2026-05-04T15:01:31.999Z</time></trkpt><trkpt lat="40.64010331867327" lon="8.484332687065345"><ele>138.66666666666666</ele><time>2026-05-04T15:01:32.999Z</time></trkpt><trkpt lat="40.63994826442168" lon="8.484457610386622"><ele>140.0</ele><time>2026-05-04T15:01:33.999Z</time></trkpt><trkpt lat="40.6397862797613" lon="8.484583579268346"><ele>140.66666666666666</ele><time>2026-05-04T15:01:34.999Z</time></trkpt><trkpt lat="40.63963088777507" lon="8.484697633785704"><ele>141.33333333333334</ele><time>2026-05-04T15:01:35.999Z</time></trkpt><trkpt lat="40.639500629374076" lon="8.48480236826151"><ele>142.0</ele><time>2026-05-04T15:01:36.999Z</time></trkpt><trkpt lat="40.639390025629574" lon="8.484887760738326"><ele>142.6</ele><time>2026-05-04T15:01:37.999Z</time></trkpt><trkpt lat="40.63930577978796" lon="8.48495454009312"><ele>143.2</ele><time>2026-05-04T15:01:38.999Z</time></trkpt><trkpt lat="40.63924781164621" lon="8.485005567404471"><ele>143.8</ele><time>2026-05-04T15:01:39.999Z</time></trkpt><trkpt lat="40.639158412076576" lon="8.485075787915065"><ele>144.4</ele><time>2026-05-04T15:01:41.999Z</time></trkpt><trkpt lat="40.63907671825083" lon="8.485172270010414"><ele>145.0</ele><time>2026-05-04T15:01:43.999Z</time></trkpt><trkpt lat="40.63909938974798" lon="8.485256440159265"><ele>145.0</ele><time>2026-05-04T15:01:44.999Z</time></trkpt><trkpt lat="40.639116612062125" lon="8.485406239807842"><ele>145.0</ele><time>2026-05-04T15:01:45.999Z</time></trkpt><trkpt lat="40.63912823793617" lon="8.485575137319739"><ele>145.0</ele><time>2026-05-04T15:01:46.999Z</time></trkpt><trkpt lat="40.6391039185007" lon="8.48580132278512"><ele>145.0</ele><time>2026-05-04T15:01:47.999Z</time></trkpt><trkpt lat="40.639077496709795" lon="8.486096483513501"><ele>149.0</ele><time>2026-05-04T15:01:48.999Z</time></trkpt><trkpt lat="40.63904934728358" lon="8.486420821379195"><ele>153.0</ele><time>2026-05-04T15:01:49.999Z</time></trkpt><trkpt lat="40.639017342673604" lon="8.486720786634375"><ele>153.0</ele><time>2026-05-04T15:01:50.999Z</time></trkpt><trkpt lat="40.63899514204875" lon="8.486954708035729"><ele>153.0</ele><time>2026-05-04T15:01:51.999Z</time></trkpt><trkpt lat="40.63898388171648" lon="8.487146272841162"><ele>153.0</ele><time>2026-05-04T15:01:52.999Z</time></trkpt><trkpt lat="40.63897448509404" lon="8.487285692736155"><ele>153.0</ele><time>2026-05-04T15:01:53.999Z</time></trkpt><trkpt lat="40.63894947161756" lon="8.487404470493948"><ele>154.25</ele><time>2026-05-04T15:01:54.999Z</time></trkpt><trkpt lat="40.638929749709" lon="8.48752890465754"><ele>155.5</ele><time>2026-05-04T15:01:55.999Z</time></trkpt><trkpt lat="40.63891646585393" lon="8.487668307277103"><ele>156.75</ele><time>2026-05-04T15:01:56.999Z</time></trkpt><trkpt lat="40.6389145155643" lon="8.487847812336545"><ele>158.0</ele><time>2026-05-04T15:01:57.999Z</time></trkpt><trkpt lat="40.63889652687854" lon="8.488036184262425"><ele>159.5</ele><time>2026-05-04T15:01:58.999Z</time></trkpt><trkpt lat="40.638867492303014" lon="8.488235644264151"><ele>161.0</ele><time>2026-05-04T15:01:59.999Z</time></trkpt><trkpt lat="40.63883526779235" lon="8.488426725284372"><ele>162.5</ele><time>2026-05-04T15:02:00.999Z</time></trkpt><trkpt lat="40.63879988439392" lon="8.488593968905036"><ele>164.0</ele><time>2026-05-04T15:02:01.999Z</time></trkpt><trkpt lat="40.63874700562699" lon="8.488760442263654"><ele>165.0</ele><time>2026-05-04T15:02:02.999Z</time></trkpt><trkpt lat="40.63867716782346" lon="8.488931059717677"><ele>166.0</ele><time>2026-05-04T15:02:03.999Z</time></trkpt><trkpt lat="40.63860388443513" lon="8.489087738814423"><ele>167.0</ele><time>2026-05-04T15:02:04.999Z</time></trkpt><trkpt lat="40.6385248840274" lon="8.48921296406806"><ele>168.0</ele><time>2026-05-04T15:02:05.999Z</time></trkpt><trkpt lat="40.638448478756146" lon="8.489315039621326"><ele>168.0</ele><time>2026-05-04T15:02:06.999Z</time></trkpt><trkpt lat="40.638384715578226" lon="8.489392673174294"><ele>168.0</ele><time>2026-05-04T15:02:07.999Z</time></trkpt><trkpt lat="40.63832383157543" lon="8.489458418392251"><ele>168.0</ele><time>2026-05-04T15:02:08.999Z</time></trkpt><trkpt lat="40.63826721387179" lon="8.48953094316871"><ele>168.0</ele><time>2026-05-04T15:02:09.999Z</time></trkpt><trkpt lat="40.638203364355775" lon="8.489601384082281"><ele>168.0</ele><time>2026-05-04T15:02:10.999Z</time></trkpt><trkpt lat="40.638106493815016" lon="8.489685880072509"><ele>168.0</ele><time>2026-05-04T15:02:11.999Z</time></trkpt><trkpt lat="40.63797705023252" lon="8.489807136077214"><ele>170.0</ele><time>2026-05-04T15:02:12.999Z</time></trkpt><trkpt lat="40.63782657264593" lon="8.489954589859265"><ele>172.0</ele><time>2026-05-04T15:02:13.999Z</time></trkpt><trkpt lat="40.637708386624915" lon="8.490072882107617"><ele>174.0</ele><time>2026-05-04T15:02:14.999Z</time></trkpt><trkpt lat="40.63761327477671" lon="8.49016406098338"><ele>174.0</ele><time>2026-05-04T15:02:15.999Z</time></trkpt><trkpt lat="40.63754398017108" lon="8.490232025270725"><ele>174.0</ele><time>2026-05-04T15:02:16.999Z</time></trkpt><trkpt lat="40.6374886215887" lon="8.490297738890495"><ele>174.0</ele><time>2026-05-04T15:02:17.999Z</time></trkpt><trkpt lat="40.63744650312306" lon="8.49037187894266"><ele>174.0</ele><time>2026-05-04T15:02:18.999Z</time></trkpt><trkpt lat="40.63740268170257" lon="8.490458853570825"><ele>174.0</ele><time>2026-05-04T15:02:19.999Z</time></trkpt><trkpt lat="40.637349761564316" lon="8.490576956495488"><ele>174.0</ele><time>2026-05-04T15:02:21.999Z</time></trkpt><trkpt lat="40.63731690963762" lon="8.490722915473405"><ele>174.39999999999998</ele><time>2026-05-04T15:02:23.999Z</time></trkpt><trkpt lat="40.637298174969764" lon="8.49083153290679"><ele>174.8</ele><time>2026-05-04T15:02:24.999Z</time></trkpt><trkpt lat="40.63728283283789" lon="8.490938931524525"><ele>175.2</ele><time>2026-05-04T15:02:25.999Z</time></trkpt><trkpt lat="40.63726538932282" lon="8.491053964648847"><ele>175.60000000000002</ele><time>2026-05-04T15:02:26.999Z</time></trkpt><trkpt lat="40.63723611081853" lon="8.491196538487829"><ele>176.0</ele><time>2026-05-04T15:02:27.999Z</time></trkpt><trkpt lat="40.63720070321059" lon="8.491347403492329"><ele>176.60000000000002</ele><time>2026-05-04T15:02:28.999Z</time></trkpt><trkpt lat="40.63716925323034" lon="8.491474022620643"><ele>177.2</ele><time>2026-05-04T15:02:29.999Z</time></trkpt><trkpt lat="40.63713598098761" lon="8.491594771910894"><ele>177.8</ele><time>2026-05-04T15:02:30.999Z</time></trkpt><trkpt lat="40.63709820345105" lon="8.491712757065903"><ele>178.39999999999998</ele><time>2026-05-04T15:02:31.999Z</time></trkpt><trkpt lat="40.63705699556194" lon="8.491822989034025"><ele>179.0</ele><time>2026-05-04T15:02:32.999Z</time></trkpt><trkpt lat="40.63701540895713" lon="8.491934802434752"><ele>179.0</ele><time>2026-05-04T15:02:33.999Z</time></trkpt><trkpt lat="40.63697281356001" lon="8.492052636165157"><ele>179.0</ele><time>2026-05-04T15:02:34.999Z</time></trkpt><trkpt lat="40.636939405159566" lon="8.492161870459771"><ele>179.0</ele><time>2026-05-04T15:02:35.999Z</time></trkpt><trkpt lat="40.63690630055477" lon="8.492262250297788"><ele>179.0</ele><time>2026-05-04T15:02:36.999Z</time></trkpt><trkpt lat="40.63685906521268" lon="8.492375754472183"><ele>179.0</ele><time>2026-05-04T15:02:37.999Z</time></trkpt><trkpt lat="40.636812137119094" lon="8.49246769886527"><ele>179.16666666666666</ele><time>2026-05-04T15:02:39Z</time></trkpt><trkpt lat="40.63677860855467" lon="8.49253793637162"><ele>179.33333333333331</ele><time>2026-05-04T15:02:40Z</time></trkpt><trkpt lat="40.6367277884398" lon="8.492599739000925"><ele>179.5</ele><time>2026-05-04T15:02:43Z</time></trkpt><trkpt lat="40.63678460564602" lon="8.492651536686818"><ele>179.66666666666666</ele><time>2026-05-04T15:03:48.999Z</time></trkpt><trkpt lat="40.63672895555218" lon="8.492605734963469"><ele>179.83333333333334</ele><time>2026-05-04T15:12:59.999Z</time></trkpt><trkpt lat="40.63673826547158" lon="8.492740789480903"><ele>180.0</ele><time>2026-05-04T15:14:17.999Z</time></trkpt><trkpt lat="40.63670760741418" lon="8.492876256555142"><ele>181.2</ele><time>2026-05-04T15:14:19.999Z</time></trkpt><trkpt lat="40.636640959793006" lon="8.493032145154928"><ele>182.4</ele><time>2026-05-04T15:14:21.999Z</time></trkpt><trkpt lat="40.63658528383087" lon="8.49312978707729"><ele>183.60000000000002</ele><time>2026-05-04T15:14:22.999Z</time></trkpt><trkpt lat="40.636556542828444" lon="8.49325582706503"><ele>184.8</ele><time>2026-05-04T15:14:23.999Z</time></trkpt><trkpt lat="40.63652037727753" lon="8.493370952826764"><ele>186.0</ele><time>2026-05-04T15:14:24.999Z</time></trkpt><trkpt lat="40.63649543747034" lon="8.493469343740797"><ele>186.0</ele><time>2026-05-04T15:14:25.999Z</time></trkpt><trkpt lat="40.63650162583026" lon="8.493580082514333"><ele>186.0</ele><time>2026-05-04T15:14:26.999Z</time></trkpt><trkpt lat="40.63652560094553" lon="8.493694102097049"><ele>186.0</ele><time>2026-05-04T15:14:27.999Z</time></trkpt><trkpt lat="40.63658107990509" lon="8.493812944828663"><ele>186.0</ele><time>2026-05-04T15:14:28.999Z</time></trkpt><trkpt lat="40.6366475168602" lon="8.493928159567746"><ele>186.0</ele><time>2026-05-04T15:14:29.999Z</time></trkpt><trkpt lat="40.63671531834129" lon="8.494027060636922"><ele>186.33333333333334</ele><time>2026-05-04T15:14:30.999Z</time></trkpt><trkpt lat="40.636776719116334" lon="8.494101306977477"><ele>186.66666666666666</ele><time>2026-05-04T15:14:31.999Z</time></trkpt><trkpt lat="40.636834630655976" lon="8.494186710404808"><ele>187.0</ele><time>2026-05-04T15:14:33.999Z</time></trkpt><trkpt lat="40.636907395151376" lon="8.4942657868991"><ele>187.33333333333331</ele><time>2026-05-04T15:14:35.999Z</time></trkpt><trkpt lat="40.636960576219785" lon="8.49433069576799"><ele>187.66666666666666</ele><time>2026-05-04T15:14:36.999Z</time></trkpt><trkpt lat="40.637028962006745" lon="8.494412290721828"><ele>188.0</ele><time>2026-05-04T15:14:37.999Z</time></trkpt><trkpt lat="40.63710145281171" lon="8.494506048557694"><ele>189.8</ele><time>2026-05-04T15:14:38.999Z</time></trkpt><trkpt lat="40.63717351161269" lon="8.494604006181692"><ele>191.60000000000002</ele><time>2026-05-04T15:14:39.999Z</time></trkpt><trkpt lat="40.63724290397547" lon="8.494706438524933"><ele>193.39999999999998</ele><time>2026-05-04T15:14:40.999Z</time></trkpt><trkpt lat="40.637320670283245" lon="8.494816231520439"><ele>195.2</ele><time>2026-05-04T15:14:41.999Z</time></trkpt><trkpt lat="40.63739796847799" lon="8.494934740835316"><ele>197.0</ele><time>2026-05-04T15:14:42.999Z</time></trkpt><trkpt lat="40.63747093348485" lon="8.495071000687403"><ele>197.0</ele><time>2026-05-04T15:14:43.999Z</time></trkpt><trkpt lat="40.63753739684356" lon="8.495216901845627"><ele>197.0</ele><time>2026-05-04T15:14:44.999Z</time></trkpt><trkpt lat="40.63759901474808" lon="8.495374692124528"><ele>197.0</ele><time>2026-05-04T15:14:45.999Z</time></trkpt><trkpt lat="40.63765837343622" lon="8.495532996963412"><ele>197.0</ele><time>2026-05-04T15:14:46.999Z</time></trkpt><trkpt lat="40.637712883643054" lon="8.495697434975083"><ele>198.25</ele><time>2026-05-04T15:14:47.999Z</time></trkpt><trkpt lat="40.63776846726665" lon="8.49585489435134"><ele>199.5</ele><time>2026-05-04T15:14:48.999Z</time></trkpt><trkpt lat="40.637820549469545" lon="8.496008564166116"><ele>200.75</ele><time>2026-05-04T15:14:49.999Z</time></trkpt><trkpt lat="40.63787295429228" lon="8.49616209531198"><ele>202.0</ele><time>2026-05-04T15:14:50.999Z</time></trkpt><trkpt lat="40.63792269910044" lon="8.496313774793848"><ele>203.25</ele><time>2026-05-04T15:14:51.999Z</time></trkpt><trkpt lat="40.63797570870578" lon="8.49647287241151"><ele>204.5</ele><time>2026-05-04T15:14:52.999Z</time></trkpt><trkpt lat="40.63803137200915" lon="8.496639560647141"><ele>205.75</ele><time>2026-05-04T15:14:53.999Z</time></trkpt><trkpt lat="40.638078675220946" lon="8.496813740612218"><ele>207.0</ele><time>2026-05-04T15:14:54.999Z</time></trkpt><trkpt lat="40.638131744811446" lon="8.496986750876951"><ele>207.5</ele><time>2026-05-04T15:14:55.999Z</time></trkpt><trkpt lat="40.63817396268779" lon="8.497154199437206"><ele>208.0</ele><time>2026-05-04T15:14:56.999Z</time></trkpt><trkpt lat="40.63821438429931" lon="8.497309134460332"><ele>208.5</ele><time>2026-05-04T15:14:57.999Z</time></trkpt><trkpt lat="40.63825723222002" lon="8.497468511349389"><ele>209.0</ele><time>2026-05-04T15:14:58.999Z</time></trkpt><trkpt lat="40.638301495213774" lon="8.497640666013895"><ele>209.0</ele><time>2026-05-04T15:14:59.999Z</time></trkpt><trkpt lat="40.638343684273444" lon="8.497805480743573"><ele>209.0</ele><time>2026-05-04T15:15:00.999Z</time></trkpt><trkpt lat="40.63838792634089" lon="8.497979142443226"><ele>209.0</ele><time>2026-05-04T15:15:01.999Z</time></trkpt><trkpt lat="40.638437241109244" lon="8.498154275525179"><ele>209.0</ele><time>2026-05-04T15:15:02.999Z</time></trkpt><trkpt lat="40.638487769584316" lon="8.498334410568548"><ele>209.0</ele><time>2026-05-04T15:15:03.999Z</time></trkpt><trkpt lat="40.63852944142092" lon="8.498519418027385"><ele>209.0</ele><time>2026-05-04T15:15:04.999Z</time></trkpt><trkpt lat="40.638582841300625" lon="8.498712179622979"><ele>209.0</ele><time>2026-05-04T15:15:05.999Z</time></trkpt><trkpt lat="40.63863193708942" lon="8.498904123962303"><ele>207.0</ele><time>2026-05-04T15:15:06.999Z</time></trkpt><trkpt lat="40.63868921192631" lon="8.499101861907771"><ele>205.0</ele><time>2026-05-04T15:15:07.999Z</time></trkpt><trkpt lat="40.63874011865268" lon="8.499296363967186"><ele>203.0</ele><time>2026-05-04T15:15:08.999Z</time></trkpt><trkpt lat="40.63884159314812" lon="8.499683427939706"><ele>202.0</ele><time>2026-05-04T15:15:10.998Z</time></trkpt><trkpt lat="40.63889154263565" lon="8.499876657854458"><ele>201.0</ele><time>2026-05-04T15:15:11.998Z</time></trkpt><trkpt lat="40.63894165213601" lon="8.500073080500794"><ele>200.0</ele><time>2026-05-04T15:15:12.998Z</time></trkpt><trkpt lat="40.63899578701113" lon="8.50028024773862"><ele>200.0</ele><time>2026-05-04T15:15:14Z</time></trkpt><trkpt lat="40.63905176251021" lon="8.500489276651686"><ele>198.0</ele><time>2026-05-04T15:15:15Z</time></trkpt><trkpt lat="40.63911148086586" lon="8.50070774942611"><ele>198.0</ele><time>2026-05-04T15:15:16Z</time></trkpt></trkseg></trk></gpx>